     2              OBSERVATION DATA    GPS                 RINEX VERSION / TYPE
teqc 1997Sep10 19971030 21:32:18UTC                         PGM / RUN BY / DATE
                                                            COMMENT
Original Marker Name: 55477.OCOT                            COMMENT
Campaign Name: NGS Imperial Valley 1990                     COMMENT
4-Character Station Name: OCOT                              COMMENT
6-Character Antenna Code: TI4100                            COMMENT
Vertical Measurement Point: PAE                             COMMENT
Vertical Offset to Rinex Ref. Point: 0.0000                 COMMENT
Radial Measurement Point: RRP                               COMMENT
Radial Offset to Rinex Ref. Point: 0.0000                   COMMENT
Antenna Height from Field Measurement: 1.3260 m             COMMENT
Original XYZ: -2335607.9306 -4832248.5496 3434396.9606      COMMENT
New XYZ position is based on association with SCEC monument COMMENT
E1C8V7N3+0011. Position of that monument is believed to be  COMMENT
valid to within 1 m horizontally; vertical accuracy         COMMENT
should be no worse than 3-times this value.                 COMMENT
                                                            COMMENT
Revised Rinex header created by UCSD GPS archive for        COMMENT
GSAC on 10-Apr-1999 (1999:100) 05:16:16 GMT                 COMMENT
For assistance contact dagnew@ucsd.edu or hjohnson@ucsd.edu COMMENT
                                                            COMMENT
OCOTILLO NCMN 7270                                          MARKER NAME
5 NATIONAL GEODETIC SURVEY                                  OBSERVER / AGENCY
30 TI 4100 1.9                                              REC # / TYPE / VERS
108 TI 4100                                                 ANT # / TYPE
 -2335602.0000 -4832244.0000  3434393.0000                  APPROX POSITION XYZ
        1.3260        0.0000        0.0000                  ANTENNA: DELTA H/E/N
     1     1     0                                          WAVELENGTH FACT L1/2
     4    P1    P2    L1    L2                              # / TYPES OF OBSERV
    15                                                      INTERVAL
  1990     2    23     4    39   29.000000                  TIME OF FIRST OBS
  1990     2    23     8    50   44.000000                  TIME OF LAST OBS
     0                                                      # OF SATELLITES
                                                            END OF HEADER
 90  2 23  4 39 29.0800000  0  4G 6G 9G11G13
  20592059.997    20592063.247     4045009.757 9  -6526215.718 8
  22174077.752    22174081.847      475944.066 8  -1016997.678 9
  20934415.733    20934422.553      672865.400 8   -854336.626 8
  23852044.905    23852055.091      344514.673 9   -963989.014 8
 90  2 23  4 39 44.0800000  0  4G 6G 9G11G13
  20589595.414    20589600.966     4032062.997 9  -6536304.098 8
  22166270.454    22166275.747      434918.344 9  -1048965.732 9
  20930553.142    20930559.042      652565.957 8   -870154.355 7
  23841675.379    23841685.712      290024.016 8  -1006449.166 8
 90  2 23  4 39 59.0800000  0  4G 6G 9G11G13
  20587151.772    20587157.631     4019218.373 8  -6546312.883 8
  22158471.108    22158476.448      393935.338 9  -1080900.496 9
  20926715.988    20926720.404      632398.672 7   -885869.087 7
  23831316.759    23831326.620      235587.557 8  -1048867.105 8
 90  2 23  4 40 14.0800000  0  4G 6G 9G11G13
  20584727.104    20584731.080     4006475.879 9  -6556242.090 8
  22150680.923    22150686.095      352995.423 9  -1112801.702 9
  20922903.365    20922909.553      612363.347 8   -901481.016 8
  23820968.602    23820978.550      181205.184 9  -1091242.903 7
 90  2 23  4 40 29.0800000  0  4G 6G 9G11G13
  20582321.716    20582325.560     3993835.976 9  -6566091.354 8
  22142898.385    22142904.894      312098.893 8  -1144669.091 9
  20919114.944    20919121.195      592460.294 9   -916989.867 9
  23810629.905    23810639.371      126877.053 9  -1133576.432 8
 90  2 23  4 40 44.0800000  0  4G 6G 9G11G13
  20579936.210    20579939.645     3981299.168 8  -6575860.287 9
  22135124.510    22135129.747      271246.383 9  -1176502.177 9
  20915354.121    20915358.850      572689.950 8   -932395.310 8
  23800302.331    23800310.731       72603.952 9  -1175867.072 8
 90  2 23  4 40 59.0800000  0  4G 6G 9G11G13
  20577570.251    20577573.892     3968865.781 8  -6585548.632 8
  22127359.067    22127364.783      230438.279 9  -1208300.661 9
  20911617.362    20911622.693      553052.293 8   -947697.365 8
  23789984.241    23789994.337       18386.471 8  -1218114.357 8
 90  2 23  4 41 14.0800000  0  4G 6G 9G11G13
  20575222.848    20575228.542     3956535.741 9  -6595156.446 8
  22119601.386    22119608.073      189674.548 9  -1240064.574 9
  20907904.559    20907910.560      533546.910 8   -962896.352 7
  23779677.240    23779687.418      -35775.529 8  -1260318.416 8
 90  2 23  4 41 29.0800000  0  4G 6G 9G11G13
  20572896.803    20572902.486     3944310.096 8  -6604682.922 7
  22111853.334    22111858.914      148955.998 8  -1271793.280 9
  20904218.772    20904223.212      514174.643 8   -977991.602 8
  23769381.586    23769392.111      -89880.987 9  -1302478.438 8
 90  2 23  4 41 44.0800000  0  4G 6G 9G11G13
  20570590.369    20570594.706     3932188.603 9  -6614128.225 8
  22104114.691    22104118.653      108282.684 9  -1303486.735 8
  20900558.280    20900563.421      494935.072 9   -992983.450 8
  23759097.053    23759106.750     -143930.088 9  -1344594.516 8
 90  2 23  4 41 59.0800000  0  4G 6G 9G11G13
  20568304.660    20568308.505     3920171.377 9  -6623492.294 9
  22096381.498    22096387.454       67654.779 9  -1335144.798 9
  20896921.970    20896927.254      475828.021 8  -1007872.036 9
  23748821.465    23748830.513     -197922.808 8  -1386666.666 9
 90  2 23  4 42 14.0800000  0  4G 6G 9G11G13
  20566038.031    20566042.346     3908258.642 9  -6632774.927 8
  22088660.372    22088664.736       27072.292 8  -1366767.477 8
  20893311.106    20893316.393      456853.628 7  -1022657.274 8
  23738558.421    23738567.881     -251858.816 9  -1428694.643 7
 90  2 23  4 42 29.0800000  0  4G 6G 9G11G13
  20563789.472    20563795.140     3896450.475 8  -6641976.096 8
  22080945.873    22080951.336      -13464.301 9  -1398354.393 9
  20889724.107    20889730.021      438011.721 8  -1037339.262 8
  23728305.762    23728314.726     -305737.869 8  -1470678.239 8
 90  2 23  4 42 44.0800000  0  4G 6G 9G11G13
  20561562.638    20561567.295     3884747.424 9  -6651095.340 8
  22073241.089    22073246.051      -53954.554 8  -1429905.210 9
  20886165.298    20886171.901      419302.595 8  -1051917.786 8
  23718062.308    23718072.046     -359559.739 8  -1512617.242 8
 90  2 23  4 42 59.0800000  0  4G 6G 9G11G13
  20559356.194    20559361.294     3873150.044 8  -6660132.263 8
  22065544.445    22065549.588      -94398.204 9  -1461419.715 9
  20882630.382    20882635.684      400726.599 8  -1066392.564 8
  23707833.342    23707841.138     -413323.727 7  -1554511.174 8
 90  2 23  4 43 14.0800000  0  4G 6G 9G11G13
  20557169.103    20557174.066     3861658.392 8  -6669086.776 9
  22057856.424    22057863.444     -134794.399 9  -1492897.227 9
  20879120.023    20879126.197      382283.526 8  -1080763.790 9
  23697612.586    23697621.211     -467029.757 7  -1596359.921 8
 90  2 23  4 43 29.0800000  0  4G 6G 9G11G13
  20555003.460    20555006.455     3850272.635 8  -6677958.788 8
  22050179.225    22050184.203     -175143.546 8  -1524338.083 9
  20875636.250    20875642.184      363973.299 8  -1095031.462 8
  23687403.349    23687412.011     -520677.691 8  -1638163.393 8
 90  2 23  4 43 44.0800000  0  4G 6G 9G11G13
  20552857.257    20552860.188     3838993.012 9  -6686748.107 8
  22042508.855    22042515.393     -215445.053 9  -1555741.813 8
  20872177.464    20872182.781      345796.071 8  -1109195.529 8
  23677206.152    23677214.109     -574267.207 8  -1679921.357 7
 90  2 23  4 43 59.0800000  0  4G 6G 9G11G13
  20550729.165    20550733.851     3827819.805 8  -6695454.497 8
  22034851.046    22034855.271     -255698.850 8  -1587108.387 9
  20868742.769    20868747.859      327751.758 8  -1123256.011 7
  23667020.070    23667027.916     -627798.118 8  -1721633.661 7
 90  2 23  4 44 14.0800000  0  4G 6G 9G11G13
  20548623.862    20548627.879     3816753.521 9  -6704077.579 8
  22027198.786    22027203.635     -295904.170 8  -1618437.171 8
  20865334.725    20865340.669      309840.670 8  -1137212.692 7
  23656843.988    23656853.516     -681269.660 8  -1763299.712 6
 90  2 23  4 44 29.0800000  0  4G 6G 9G11G13
  20546539.286    20546542.523     3805794.571 8  -6712617.006 7
  22019558.279    22019563.328     -336060.670 9  -1649727.909 9
  20861951.745    20861957.692      292062.858 8  -1151065.515 7
  23646678.952    23646688.767     -734681.474 7  -1804919.220 6
 90  2 23  4 44 44.0800000  0  4G 6G 9G11G13
  20544473.640    20544477.798     3794942.977 9  -6721072.789 8
  22011924.849    22011930.449     -376168.382 8  -1680980.649 9
  20858594.525    20858599.482      274418.122 9  -1164814.653 7
  23636526.673    23636534.602     -788033.620 8  -1846492.233 7
 90  2 23  4 44 59.0800000  0  4G 6G 9G11G13
  20542428.328    20542431.809     3784198.735 8  -6729444.923 8
  22004302.651    22004308.101     -416226.935 9  -1712195.064 9
  20855262.144    20855267.273      256906.377 9  -1178460.133 8
  23626384.828    23626394.923     -841326.140 8  -1888018.789 7
 90  2 23  4 45 14.0800000  0  4G 6G 9G11G13
  20540405.001    20540409.351     3773562.490 8  -6737732.885 8
  21996688.844    21996694.668     -456235.841 9  -1743370.807 9
  20851955.606    20851960.119      239528.014 8  -1192001.719 8
  23616256.850    23616264.000     -894558.287 8  -1929498.267 7
 90  2 23  4 45 29.0800000  0  4G 6G 9G11G13
  20538402.629    20538405.459     3763034.283 9  -6745936.674 8
  21989085.223    21989090.310     -496195.101 9  -1774507.852 8
  20848673.360    20848680.426      222282.835 8  -1205439.511 8
  23606137.638    23606147.111     -947729.899 8  -1970930.585 7
 90  2 23  4 45 44.0800000  0  4G 6G 9G11G13
  20536419.928    20536422.274     3752614.450 8  -6754056.019 8
  21981490.587    21981495.031     -536103.838 8  -1805605.543 8
  20845416.963    20845422.583      205170.943 8  -1218773.430 8
  23596029.492    23596039.168    -1000840.686 7  -2012315.523 7
 90  2 23  4 45 59.0800000  0  4G 6G 9G11G13
  20534456.489    20534460.823     3742303.343 9  -6762090.639 8
  21973906.471    21973910.518     -575962.243 9  -1836664.017 8
  20842186.266    20842191.809      188192.427 7  -1232003.420 7
  23585935.849    23585944.228    -1053890.219 8  -2053652.701 7
 90  2 23  4 46 14.0800000  0  4G 6G 9G11G13
  20532514.993    20532519.097     3732101.404 8  -6770040.208 8
  21966330.847    21966335.811     -615769.587 9  -1867682.690 8
  20838979.862    20838984.994      171347.416 8  -1245129.382 8
  23575851.979    23575859.466    -1106878.395 8  -2094942.081 7
 90  2 23  4 46 29.0800000  0  4G 6G 9G11G13
  20530592.873    20530599.097     3722008.667 8  -6777904.663 8
  21958764.248    21958771.066     -655525.829 8  -1898661.550 8
  20835799.961    20835805.820      154635.693 8  -1258151.492 8
  23565779.627    23565788.492    -1159804.785 8  -2136183.335 7
 90  2 23  4 46 44.0800000  0  4G 6G 9G11G13
  20528693.229    20528697.841     3712025.408 9  -6785683.824 8
  21951209.150    21951214.227     -695230.518 9  -1929600.236 9
  20832645.414    20832651.262      138057.307 7  -1271069.710 8
  23555719.293    23555730.682    -1212669.127 7  -2177376.226 7
 90  2 23  4 46 59.0800000  0  4G 6G 9G11G13
  20526815.507    20526821.378     3702151.697 9  -6793377.618 8
  21943663.933    21943669.591     -734883.597 8  -1960498.717 9
  20829515.051    20829523.027      121612.086 7  -1283884.154 7
  23545673.604    23545680.628    -1265471.454 8  -2218520.809 7
 90  2 23  4 47 14.0800000  0  4G 6G 9G11G13
  20524956.943    20524961.792     3692388.172 8  -6800985.544 8
  21936127.647    21936132.997     -774484.243 9  -1991356.333 8
  20826410.131    20826416.342      105300.555 8  -1296594.408 8
  23535637.903    23535645.065    -1318211.113 9  -2259616.557 8
 90  2 23  4 47 29.0800000  0  4G 6G 9G11G13
  20523120.203    20523125.352     3682735.147 9  -6808507.393 8
  21928601.775    21928607.889     -814032.332 9  -2022172.988 9
  20823332.450    20823339.241       89122.676 7  -1309200.526 8
  23525612.235    23525620.751    -1370887.705 8  -2300663.155 7
 90  2 23  4 47 44.0800000  0  4G 6G 9G11G13
  20521305.425    20521308.874     3673192.830 9  -6815942.938 8
  21921086.305    21921091.591     -853527.269 9  -2052948.235 9
  20820280.272    20820286.565       73078.455 8  -1321702.501 8
  23515600.670    23515609.031    -1423501.046 8  -2341660.470 8
 90  2 23  4 47 59.0800000  0  4G 6G 9G11G13
  20519511.069    20519515.488     3663761.133 9  -6823292.314 8
  21913581.505    21913585.525     -892969.218 9  -2083682.191 7
  20817252.620    20817257.966       57167.544 8  -1334100.587 8
  23505599.238    23505608.792    -1476051.208 9  -2382608.538 8
 90  2 23  4 48 14.0800000  0  4G 6G 9G11G13
  20517737.367    20517742.306     3654440.389 8  -6830555.225 8
  21906085.966    21906089.884     -932357.938 8  -2114374.683 8
  20814250.923    20814255.913       41390.006 8  -1346394.756 7
  23495612.567    23495620.476    -1528537.716 9  -2423507.016 7
 90  2 23  4 48 29.0800000  0  4G 6G 9G11G13
  20515984.315    20515988.798     3645230.855 9  -6837731.475 8
  21898601.206    21898605.673     -971692.782 9  -2145025.182 8
  20811271.955    20811279.232       25745.843 7  -1358585.002 7
  23485636.702    23485647.133    -1580960.409 8  -2464355.801 7
 90  2 23  4 48 44.0800000  0  4G 6G 9G11G13
  20514252.338    20514257.349     3636132.845 9  -6844820.830 9
  21891125.883    21891130.494    -1010973.829 9  -2175633.767 8
  20808321.201    20808326.512       10235.167 8  -1370671.214 8
  23475672.331    23475681.425    -1633319.197 8  -2505154.773 7
 90  2 23  4 48 59.0800000  0  4G 6G 9G11G13
  20512543.678    20512547.797     3627146.943 8  -6851822.833 8
  21883660.788    21883666.165    -1050200.045 9  -2206199.615 8
  20805394.683    20805400.818       -5141.845 8  -1382653.291 7
  23465722.134    23465731.355    -1685613.267 8  -2545903.314 8
 90  2 23  4 49 14.0800000  0  4G 6G 9G11G13
  20510854.665    20510859.079     3618273.110 8  -6858737.493 9
  21876207.069    21876211.969    -1089371.367 9  -2236722.691 8
  20802494.039    20802500.599      -20385.272 7  -1394531.263 7
  23455783.929    23455792.392    -1737842.505 9  -2586601.345 7
 90  2 23  4 49 29.0800000  0  4G 6G 9G11G13
  20509186.949    20509192.027     3609511.761 9  -6865564.510 7
  21868763.182    21868768.300    -1128487.375 9  -2267202.674 8
  20799618.668    20799625.928      -35495.025 8  -1406305.082 8
  23445857.297    23445864.419    -1790006.675 9  -2627248.673 8
 90  2 23  4 49 44.0800000  0  4G 6G 9G11G13
  20507541.392    20507545.657     3600863.140 8  -6872303.686 8
  21861330.781    21861333.942    -1167548.101 9  -2297639.582 8
  20796767.619    20796775.566      -50471.163 8  -1417974.775 8
  23435941.285    23435950.101    -1842105.464 7  -2667845.016 7
 90  2 23  4 49 59.0800000  0  4G 6G 9G11G13
  20505915.827    20505921.263     3592327.356 8  -6878954.934 8
  21853908.200    21853912.055    -1206553.010 9  -2328032.991 8
  20793945.188    20793950.431      -65313.695 7  -1429540.371 8
  23426040.276    23426049.204    -1894138.592 9  -2708390.205 8
 90  2 23  4 50 14.0800000  0  4G 6G 9G11G13
  20504313.773    20504319.661     3583904.609 9  -6885518.118 8
  21846496.175    21846501.022    -1245501.940 9  -2358382.782 8
  20791143.936    20791152.355      -80022.759 8  -1441001.970 8
  23416151.308    23416159.337    -1946105.856 9  -2748884.092 7
 90  2 23  4 50 29.0800000  0  4G 6G 9G11G13
  20502732.015    20502737.995     3575595.532 9  -6891992.711 8
  21839094.427    21839100.374    -1284394.262 8  -2388688.467 8
  20788372.962    20788377.460      -94597.988 7  -1452359.271 8
  23406275.764    23406283.457    -1998006.800 8  -2789326.297 8
 90  2 23  4 50 44.0800000  0  4G 6G 9G11G13
  20501173.887    20501177.818     3567400.230 8  -6898378.660 8
  21831705.081    21831709.442    -1323229.329 8  -2418949.534 8
  20785624.566    20785630.943     -109039.429 8  -1463612.318 7
  23396410.551    23396419.879    -2049841.118 9  -2829716.605 8
 90  2 23  4 50 59.0800000  0  4G 6G 9G11G13
  20499635.886    20499639.883     3559318.942 8  -6904675.761 8
  21824326.190    21824329.893    -1362007.276 9  -2449166.075 8
  20782900.211    20782907.088     -123347.258 8  -1474761.260 8
  23386560.461    23386567.766    -2101608.726 8  -2870054.915 9
 90  2 23  4 51 14.0800000  0  4G 6G 9G11G13
  20498118.952    20498123.807     3551351.662 9  -6910884.029 8
  21816957.436    21816962.811    -1400727.804 8  -2479337.896 8
  20780204.048    20780210.606     -137521.654 8  -1485806.243 7
  23376722.676    23376730.345    -2153309.500 7  -2910341.131 7
 90  2 23  4 51 29.0800000  0  4G 6G 9G11G13
  20496624.876    20496629.789     3543498.822 9  -6917003.108 8
  21809600.171    21809605.847    -1439390.720 8  -2509464.815 8
  20777532.466    20777538.955     -151562.528 8  -1496747.152 8
  23366895.493    23366904.207    -2204942.839 9  -2950574.794 8
 90  2 23  4 51 44.0800000  0  4G 6G 9G11G13
  20495152.272    20495156.647     3535760.539 8  -6923032.927 8
  21802254.070    21802257.946    -1477995.539 8  -2539546.476 9
  20774885.377    20774891.084     -165469.831 7  -1507584.007 9
  23357084.096    23357092.334    -2256508.507 8  -2990755.736 8
 90  2 23  4 51 59.0800000  0  4G 6G 9G11G13
  20493702.465    20493706.468     3528137.119 8  -6928973.247 8
  21794918.673    21794923.420    -1516542.127 9  -2569582.739 8
  20772265.255    20772270.482     -179243.726 7  -1518316.883 8
  23347283.389    23347290.424    -2308006.455 8  -3030883.922 9
 90  2 23  4 52 14.0800000  0  4G 6G 9G11G13
  20492272.216    20492277.417     3520628.819 8  -6934823.855 9
  21787594.220    21787600.378    -1555029.937 9  -2599573.221 8
  20769668.765    20769673.841     -192884.134 8  -1528945.756 8
  23337495.725    23337505.033    -2359436.617 8  -3070959.269 8
 90  2 23  4 52 29.0800000  0  4G 6G 9G11G13
  20490864.902    20490871.804     3513235.950 8  -6940584.534 9
  21780281.190    21780286.874    -1593458.393 8  -2629517.426 9
  20767098.149    20767105.855     -206391.011 8  -1539470.577 8
  23327722.117    23327730.167    -2410798.338 9  -3110981.289 8
 90  2 23  4 52 44.0800000  0  4G 6G 9G11G13
  20489481.302    20489485.135     3505958.571 8  -6946255.204 8
  21772980.735    21772985.247    -1631827.612 8  -2659415.495 9
  20764552.232    20764558.790     -219764.613 7  -1549891.551 8
  23317962.231    23317969.579    -2462091.464 8  -3150949.880 8
 90  2 23  4 52 59.0800000  0  4G 6G 9G11G13
  20488118.719    20488122.403     3498796.988 7  -6951835.646 8
  21765690.707    21765694.629    -1670137.202 9  -2689267.098 8
  20762033.814    20762040.889     -233004.730 9  -1560208.500 8
  23308213.293    23308220.642    -2513315.834 8  -3190864.888 7
 90  2 23  4 53 14.0800000  0  4G 6G 9G11G13
  20486777.514    20486782.467     3491751.725 8  -6957325.469 8
  21758411.443    21758417.550    -1708386.449 9  -2719071.685 8
  20759540.378    20759545.953     -246111.211 8  -1570421.344 8
  23298480.354    23298488.081    -2564470.712 9  -3230725.753 8
 90  2 23  4 53 29.0800000  0  4G 6G 9G11G13
  20485459.286    20485463.464     3484822.942 8  -6962724.511 7
  21751144.288    21751149.345    -1746575.134 9  -2748829.060 9
  20757071.817    20757077.221     -259084.205 7  -1580530.163 8
  23288756.936    23288766.681    -2615556.236 8  -3270532.557 8
 90  2 23  4 53 44.0800000  0  4G 6G 9G11G13
  20484163.082    20484167.679     3478010.865 8  -6968032.618 9
  21743888.692    21743894.928    -1784702.880 8  -2778538.963 8
  20754628.808    20754633.869     -271923.566 7  -1590534.840 8
  23279051.106    23279058.525    -2666572.069 7  -3310285.037 8
 90  2 23  4 53 59.0800000  0  4G 6G 9G11G13
  20482888.308    20482893.711     3471315.488 8  -6973249.798 8
  21736645.960    21736650.646    -1822769.599 8  -2808201.295 8
  20752210.244    20752216.316     -284629.726 7  -1600435.736 8
  23269356.394    23269363.546    -2717517.991 7  -3349983.084 8
 90  2 23  4 54 14.0800000  0  4G 6G 9G11G13
  20481636.589    20481642.513     3464737.444 8  -6978375.526 9
  21729413.144    21729418.203    -1860774.922 7  -2837815.811 9
  20749817.032    20749823.605     -297202.229 9  -1610232.484 8
  23259673.146    23259681.998    -2768393.653 8  -3389626.348 8
 90  2 23  4 54 29.0800000  0  4G 6G 9G11G13
  20480406.996    20480412.448     3458276.887 8  -6983409.735 8
  21722191.852    21722197.831    -1898718.277 8  -2867382.035 9
  20747451.096    20747456.396     -309641.259 8  -1619925.216 8
  23250006.466    23250014.618    -2819198.571 8  -3429214.533 7
 90  2 23  4 54 44.0800000  0  4G 6G 9G11G13
  20479200.519    20479206.226     3451933.826 8  -6988352.368 8
  21714984.563    21714988.820    -1936599.468 9  -2896899.827 8
  20745108.938    20745114.254     -321947.037 8  -1629514.112 8
  23240351.415    23240360.147    -2869932.862 8  -3468747.682 8
 90  2 23  4 54 59.0800000  0  4G 6G 9G11G13
  20478015.145    20478020.816     3445708.639 8  -6993203.156 9
  21707786.571    21707792.944    -1974418.028 8  -2926368.798 9
  20742792.510    20742798.684     -334119.476 7  -1638999.119 8
  23230710.357    23230719.365    -2920596.192 8  -3508225.497 8
 90  2 23  4 55 14.0800000  0  4G 6G 9G11G13
  20476854.125    20476857.846     3439601.263 8  -6997962.138 8
  21700602.025    21700607.427    -2012173.964 9  -2955788.988 9
  20740502.269    20740507.196     -346158.758 9  -1648380.370 8
  23221082.745    23221092.184    -2971188.363 8  -3547647.896 8
 90  2 23  4 55 29.0800000  0  4G 6G 9G11G13
  20475713.736    20475719.691     3433612.186 8  -7002628.954 8
  21693429.260    21693435.414    -2049866.892 9  -2985160.062 9
  20738235.607    20738242.283     -358064.953 8  -1657657.901 9
  23211470.406    23211477.788    -3021708.951 8  -3587014.483 7
 90  2 23  4 55 44.0800000  0  4G 6G 9G11G13
  20474597.836    20474601.084     3427741.482 8  -7007203.513 8
  21686269.108    21686274.768    -2087496.651 9  -3014481.928 9
  20735996.160    20736002.164     -369838.020 8  -1666831.712 7
  23201869.713    23201876.466    -3072157.796 8  -3626325.185 8
 90  2 23  4 55 59.0800000  0  4G 6G 9G11G13
  20473503.350    20473505.863     3421989.153 8  -7011685.841 8
  21679120.318    21679125.700    -2125062.885 9  -3043754.286 9
  20733780.157    20733786.114     -381478.168 9  -1675901.949 7
  23192281.957    23192288.782    -3122535.030 7  -3665580.091 7
 90  2 23  4 56 14.0800000  0  4G 6G 9G11G13
  20472430.462    20472434.852     3416355.504 8  -7016075.701 8
  21671982.445    21671988.062    -2162565.264 8  -3072976.888 9
  20731591.225    20731596.183     -392985.390 8  -1684868.611 7
  23182711.621    23182716.907    -3172840.314 7  -3704778.966 8
 90  2 23  4 56 29.0800000  0  4G 6G 9G11G13
  20471381.448    20471385.049     3410841.179 8  -7020372.576 8
  21664860.941    21664864.614    -2200003.148 8  -3102149.244 9
  20729426.242    20729432.274     -404359.426 8  -1693731.486 7
  23173150.657    23173158.208    -3223072.960 8  -3743921.234 7
 90  2 23  4 56 44.0800000  0  4G 6G 9G11G13
  20470353.528    20470359.508     3405446.411 8  -7024576.284 9
  21657748.125    21657752.957    -2237376.044 9  -3131270.952 8
  20727286.988    20727294.049     -415600.238 8  -1702490.549 8
  23163605.860    23163612.436    -3273232.919 9  -3783006.818 8
 90  2 23  4 56 59.0800000  0  4G 6G 9G11G13
  20469349.452    20469355.084     3400171.466 9  -7028686.627 8
  21650648.441    21650653.119    -2274683.718 8  -3160341.845 8
  20725173.095    20725179.798     -426707.900 8  -1711145.862 8
  23154074.587    23154081.687    -3323319.684 9  -3822035.417 7
 90  2 23  4 57 14.0800000  0  4G 6G 9G11G13
  20468369.289    20468375.515     3395016.624 8  -7032703.373 7
  21643562.367    21643566.406    -2311925.703 9  -3189361.532 8
  20723083.467    20723091.230     -437682.413 8  -1719697.425 7
  23144558.124    23144564.598    -3373332.970 9  -3861006.729 7
 90  2 23  4 57 29.0800000  0  4G 6G 9G11G13
  20467412.008    20467416.147     3389982.027 8  -7036626.439 8
  21636488.112    21636492.704    -2349101.826 9  -3218329.934 8
  20721021.887    20721027.831     -448523.915 8  -1728145.328 8
  23135055.337    23135061.850    -3423272.524 9  -3899920.622 8
 90  2 23  4 57 44.0800000  0  4G 6G 9G11G13
  20466476.914    20466480.224     3385067.731 8  -7040455.744 8
  21629425.925    21629430.765    -2386211.677 9  -3247246.682 8
  20718984.944    20718990.246     -459232.450 8  -1736489.628 7
  23125566.341    23125572.299    -3473138.306 8  -3938777.030 7
 90  2 23  4 57 59.0800000  0  4G 6G 9G11G13
  20465565.222    20465568.877     3380274.059 8  -7044191.070 8
  21622376.642    21622381.686    -2423254.950 8  -3276111.551 9
  20716972.587    20716978.175     -469808.181 8  -1744730.454 8
  23116089.519    23116096.876    -3522930.116 9  -3977575.783 8
 90  2 23  4 58 14.0800000  0  4G 6G 9G11G13
  20464675.693    20464679.275     3375601.376 8  -7047832.123 8
  21615340.796    21615344.219    -2460231.264 9  -3304924.237 8
  20714985.786    20714990.872     -480250.877 8  -1752867.618 7
  23106628.356    23106637.435    -3572647.348 9  -4016316.430 7
 90  2 23  4 58 29.0800000  0  4G 6G 9G11G13
  20463807.224    20463813.407     3371050.011 9  -7051378.630 8
  21608316.477    21608320.986    -2497140.163 8  -3333684.392 9
  20713023.654    20713028.554     -490560.422 8  -1760901.014 8
  23097182.312    23097190.986    -3622289.657 9  -4054998.699 7
 90  2 23  4 58 44.0800000  0  4G 6G 9G11G13
  20462965.503    20462970.586     3366620.120 8  -7054830.486 8
  21601305.536    21601311.148    -2533981.394 9  -3362391.822 9
  20711086.761    20711092.351     -500737.021 8  -1768830.816 8
  23087750.747    23087757.887    -3671856.950 9  -4093622.502 7
 90  2 23  4 58 59.0800000  0  4G 6G 9G11G13
  20462145.607    20462149.978     3362311.811 8  -7058187.613 8
  21594308.389    21594312.230    -2570754.570 9  -3391046.217 8
  20709174.625    20709181.571     -510780.819 8  -1776657.143 8
  23078331.342    23078338.339    -3721349.109 9  -4132187.765 8
 90  2 23  4 59 14.0800000  0  4G 6G 9G11G13
  20461349.162    20461353.941     3358125.416 8  -7061449.728 8
  21587324.132    21587328.663    -2607459.191 9  -3419647.213 9
  20707288.643    20707294.647     -520691.850 8  -1784380.014 8
  23068928.429    23068936.049    -3770765.760 9  -4170694.195 8
 90  2 23  4 59 29.0800000  0  4G 6G 9G11G13
  20460576.314    20460581.259     3354060.912 7  -7064616.880 9
  21580350.968    21580356.291    -2644095.504 8  -3448194.972 8
  20705427.108    20705435.589     -530470.311 8  -1791999.585 8
  23059538.638    23059547.004    -3820106.698 9  -4209141.597 8
 90  2 23  4 59 44.0800000  0  4G 6G 9G11G13
  20459825.600    20459830.055     3350118.709 7  -7067688.706 8
  21573392.602    21573397.788    -2680662.759 9  -3476688.894 8
  20703591.040    20703597.227     -540116.079 8  -1799515.752 8
  23050163.715    23050170.846    -3869371.635 9  -4247529.820 8
 90  2 23  4 59 59.0800000  0  4G 6G 9G11G13
  20459099.634    20459103.559     3346298.981 8  -7070665.127 9
  21566447.645    21566452.443    -2717160.569 9  -3505128.738 9
  20701781.241    20701787.589     -549629.208 7  -1806928.574 8
  23040803.599    23040810.778    -3918560.315 8  -4285858.630 8
 90  2 23  5  0 14.0800000  0  4G 6G 9G11G13
  20458394.926    20458400.000     3342602.116 8  -7073545.789 8
  21559515.897    21559520.802    -2753588.516 9  -3533514.127 8
  20699997.630    20700002.703     -559009.636 8  -1814237.985 7
  23031457.959    23031465.191    -3967672.340 8  -4324127.678 9
 90  2 23  5  0 29.0800000  0  4G 6G 9G11G13
  20457714.831    20457719.664     3339028.256 8  -7076330.612 9
  21552597.543    21552601.161    -2789946.509 9  -3561845.011 9
  20698238.374    20698243.419     -568257.553 8  -1821444.149 9
  23022126.322    23022133.940    -4016707.764 8  -4362337.031 8
 90  2 23  5  0 44.0800000  0  4G 6G 9G11G13
  20457059.085    20457064.176     3335577.458 8  -7079019.536 8
  21545692.242    21545696.175    -2826234.063 9  -3590121.016 8
  20696503.557    20696508.601     -577372.992 7  -1828547.071 8
  23012811.070    23012817.040    -4065666.345 8  -4400486.505 9
 90  2 23  5  0 59.0800000  0  4G 6G 9G11G13
  20456426.672    20456430.107     3332250.135 8  -7081612.271 8
  21538799.389    21538805.451    -2862450.870 8  -3618341.891 9
  20694793.411    20694798.307     -586356.064 8  -1835546.862 8
  23003508.631    23003515.399    -4114547.604 9  -4438575.748 8
 90  2 23  5  1 14.0800000  0  4G 6G 9G11G13
  20455815.784    20455820.306     3329046.559 9  -7084108.543 8
  21531921.822    21531926.697    -2898596.472 9  -3646507.270 9
  20693109.247    20693114.162     -595206.715 9  -1842443.457 8
  22994221.544    22994227.754    -4163351.309 9  -4476604.586 8
 90  2 23  5  1 29.0800000  0  4G 6G 9G11G13
  20455229.659    20455233.723     3325966.800 8  -7086508.359 7
  21525057.445    21525062.016    -2934670.648 9  -3674616.998 8
  20691449.582    20691455.955     -603925.015 7  -1849236.931 8
  22984949.425    22984957.367    -4212077.146 9  -4514572.730 9
 90  2 23  5  1 44.0800000  0  4G 6G 9G11G13
  20454666.907    20454672.205     3323010.898 8  -7088811.660 8
  21518205.934    21518210.333    -2970673.179 8  -3702670.887 8
  20689817.391    20689822.578     -612511.295 8  -1855927.531 8
  22975691.825    22975699.186    -4260725.249 8  -4552480.271 8
 90  2 23  5  1 59.0800000  0  4G 6G 9G11G13
  20454129.053    20454133.499     3320179.118 9  -7091018.223 8
  21511368.566    21511372.164    -3006603.669 9  -3730668.662 8
  20688208.241    20688213.724     -620965.617 7  -1862515.311 8
  22966450.032    22966456.360    -4309295.282 9  -4590326.986 9
 90  2 23  5  2 14.0800000  0  4G 6G 9G11G13
  20453611.992    20453618.167     3317471.711 7  -7093127.890 8
  21504544.811    21504549.391    -3042461.849 7  -3758610.079 8
  20686623.839    20686629.900     -629287.805 8  -1869000.112 7
  22957220.300    22957227.864    -4357787.021 8  -4628112.710 7
 90  2 23  5  2 29.0800000  0  4G 6G 9G11G13
  20453122.360    20453127.199     3314889.184 8  -7095140.252 8
  21497735.366    21497740.104    -3078247.059 8  -3786494.646 8
  20685064.795    20685070.612     -637477.926 7  -1875382.021 9
  22948008.658    22948014.948    -4406199.912 9  -4665837.005 8
 90  2 23  5  2 44.0800000  0  4G 6G 9G11G13
  20452653.689    20452659.325     3312431.611 8  -7097055.247 7
  21490938.140    21490944.355    -3113959.147 8  -3814322.225 8
  20683531.569    20683538.201     -645536.008 9  -1881661.030 8
  22938809.652    22938818.317    -4454533.872 8  -4703499.786 8
 90  2 23  5  2 59.0800000  0  4G 6G 9G11G13
  20452210.762    20452214.642     3310099.014 9  -7098872.850 8
  21484156.947    21484161.769    -3149597.652 8  -3842092.459 8
  20682022.406    20682028.708     -653462.368 8  -1887837.404 8
  22929628.089    22929635.979    -4502788.832 8  -4741101.005 8
 90  2 23  5  3 14.0800000  0  4G 6G 9G11G13
  20451790.260    20451795.669     3307891.716 8  -7100592.813 8
  21477389.949    21477394.242    -3185162.315 8  -3869805.166 8
  20680539.831    20680545.392     -661257.030 7  -1893911.148 9
  22920459.738    22920467.614    -4550964.411 8  -4778640.350 8
 90  2 23  5  3 29.0800000  0  4G 6G 9G11G13
  20451394.063    20451398.076     3305809.883 8  -7102215.012 8
  21470636.039    21470639.655    -3220652.738 7  -3897460.022 7
  20679082.042    20679088.130     -668919.992 8  -1899882.293 8
  22911309.055    22911316.196    -4599060.299 8  -4816117.604 9
 90  2 23  5  3 44.0800000  0  4G 6G 9G11G13
  20451021.888    20451027.740     3303854.028 9  -7103739.065 8
  21463895.818    21463900.766    -3256068.533 8  -3925056.729 8
  20677649.836    20677653.563     -676451.081 8  -1905750.654 8
  22902170.124    22902179.382    -4647076.078 8  -4853532.451 9
 90  2 23  5  3 59.0800000  0  4G 6G 9G11G13
  20450673.852    20450678.564     3302024.161 9  -7105164.921 8
  21457172.178    21457176.749    -3291409.157 8  -3952594.854 8
  20676239.695    20676247.986     -683850.424 8  -1911516.373 8
  22893049.376    22893056.351    -4695011.504 8  -4890884.668 7
 90  2 23  5  4 14.0800000  0  4G 6G 9G11G13
  20450350.158    20450355.497     3300320.577 8  -7106492.396 8
  21450460.251    21450464.565    -3326674.447 8  -3980074.290 9
  20674857.684    20674863.128     -691118.146 8  -1917179.516 8
  22883942.447    22883951.234    -4742866.604 8  -4928174.286 8
 90  2 23  5  4 29.0800000  0  4G 6G 9G11G13
  20450049.313    20450054.417     3298743.394 9  -7107721.361 8
  21443764.327    21443769.111    -3361864.042 8  -4007494.718 9
  20673500.287    20673505.459     -698254.454 8  -1922740.266 7
  22874851.641    22874858.750    -4790640.960 7  -4965401.018 8
 90  2 23  5  4 44.0800000  0  4G 6G 9G11G13
  20449772.695    20449777.599     3297292.812 7  -7108851.679 8
  21437080.707    21437087.735    -3396977.694 9  -4034855.997 8
  20672166.872    20672172.157     -705259.338 8  -1928198.617 9
  22865775.556    22865783.234    -4838334.261 9  -5002564.601 8
 90  2 23  5  4 59.0800000  0  4G 6G 9G11G13
  20449520.024    20449527.084     3295968.866 9  -7109883.325 8
  21430415.187    21430419.634    -3432014.988 8  -4062157.774 8
  20670858.753    20670864.562     -712132.964 8  -1933554.677 8
  22856715.570    22856722.602    -4885946.453 8  -5039664.967 8
 90  2 23  5  5 14.0800000  0  4G 6G 9G11G13
  20449293.030    20449297.148     3294771.682 7  -7110816.183 8
  21423762.526    21423766.769    -3466975.829 7  -4089399.960 8
  20669576.025    20669581.240     -718875.554 7  -1938808.638 8
  22847670.027    22847677.388    -4933477.288 9  -5076701.934 8
 90  2 23  5  5 29.0800000  0  4G 6G 9G11G13
  20449088.965    20449095.163     3293701.671 8  -7111649.963 8
  21417124.545    21417129.129    -3501859.773 8  -4116582.230 8
  20668317.130    20668321.600     -725487.126 8  -1943960.504 7
  22838641.129    22838647.015    -4980926.729 8  -5113675.471 7
 90  2 23  5  5 44.0800000  0  4G 6G 9G11G13
  20448910.321    20448915.104     3292759.066 8  -7112384.453 8
  21410500.512    21410504.780    -3536666.243 9  -4143704.164 8
  20667083.309    20667087.920     -731967.687 7  -1949010.281 8
  22829627.576    22829635.120    -5028294.301 9  -5150585.239 7
 90  2 23  5  5 59.0800000  0  4G 6G 9G11G13
  20448754.973    20448759.746     3291944.218 9  -7113019.399 8
  21403892.085    21403896.143    -3571394.779 8  -4170765.336 8
  20665876.957    20665880.885     -738317.187 8  -1953957.928 8
  22820629.292    22820636.687    -5075579.668 8  -5187430.943 7
 90  2 23  5  6 14.0800000  0  4G 6G 9G11G13
  20448624.991    20448629.937     3291257.110 8  -7113554.805 8
  21397298.394    21397301.969    -3606045.307 8  -4197765.729 9
  20664691.956    20664697.701     -744535.878 8  -1958803.654 8
  22811646.475    22811654.287    -5122782.715 9  -5224212.501 8
 90  2 23  5  6 29.0800000  0  4G 6G 9G11G13
  20448519.279    20448523.789     3290698.107 9  -7113990.388 8
  21390719.491    21390723.873    -3640617.321 8  -4224704.945 9
  20663533.570    20663539.000     -750623.625 8  -1963547.346 8
  22802679.842    22802687.389    -5169903.141 8  -5260929.667 8
 90  2 23  5  6 44.0800000  0  4G 6G 9G11G13
  20448436.163    20448442.085     3290267.363 8  -7114326.034 7
  21384154.682    21384160.411    -3675110.414 7  -4251582.658 8
  20662400.342    20662406.200     -756580.392 8  -1968188.978 7
  22793730.446    22793736.576    -5216940.726 9  -5297582.283 7
 90  2 23  5  6 59.0800000  0  4G 6G 9G11G13
  20448378.546    20448383.970     3289964.994 8  -7114561.642 8
  21377607.343    21377611.181    -3709524.363 8  -4278398.698 8
  20661292.839    20661297.568     -762406.564 8  -1972728.844 8
  22784794.470    22784801.060    -5263895.257 8  -5334170.204 9
 90  2 23  5  7 14.0800000  0  4G 6G 9G11G13
  20448345.892    20448350.343     3289791.098 8  -7114697.151 8
  21371073.448    21371078.387    -3743858.877 9  -4305152.852 8
  20660208.290    20660211.577     -768102.311 8  -1977167.077 8
  22775874.619    22775880.377    -5310766.672 8  -5370693.347 8
 90  2 23  5  7 29.0800000  0  4G 6G 9G11G13
  20448337.601    20448341.555     3289745.949 8  -7114732.321 8
  21364554.743    21364560.155    -3778113.597 9  -4331844.823 8
  20659148.754    20659154.567     -773667.630 8  -1981503.681 7
  22766971.521    22766978.627    -5357554.602 9  -5407151.435 7
 90  2 23  5  7 44.0800000  0  4G 6G 9G11G13
  20448352.834    20448357.569     3289829.543 9  -7114667.179 9
  21358052.026    21358055.592    -3812288.133 9  -4358474.317 9
  20658115.459    20658120.573     -779102.746 8  -1985738.825 8
  22758083.474    22758090.779    -5404259.007 9  -5443544.436 8
 90  2 23  5  7 59.0800000  0  4G 6G 9G11G13
  20448394.314    20448397.405     3290042.211 8  -7114501.466 8
  21351563.755    21351567.200    -3846382.476 8  -4385041.316 9
  20657106.491    20657110.360     -784407.721 8  -1989872.566 8
  22749211.332    22749218.794    -5450879.860 9  -5479872.340 7
 90  2 23  5  8 14.0800000  0  4G 6G 9G11G13
  20448458.579    20448464.405     3290384.007 8  -7114235.126 8
  21345091.361    21345094.845    -3880396.012 9  -4411545.367 9
  20656120.274    20656126.034     -789582.596 8  -1993904.932 8
  22740356.654    22740363.846    -5497416.651 8  -5516134.726 7
 90  2 23  5  8 29.0800000  0  4G 6G 9G11G13
  20448547.982    20448553.095     3290855.099 7  -7113868.041 8
  21338634.344    21338638.370    -3914328.388 8  -4437986.156 9
  20655159.811    20655165.557     -794627.702 9  -1997836.168 8
  22731515.955    22731524.043    -5543869.076 7  -5552331.392 7
 90  2 23  5  8 44.0800000  0  4G 6G 9G11G13
  20448662.942    20448667.569     3291455.871 7  -7113399.899 8
  21332192.803    21332198.288    -3948179.279 9  -4464363.462 8
  20654224.847    20654230.295     -799543.026 7  -2001666.282 8
  22722692.909    22722700.199    -5590237.034 8  -5588462.223 7
 90  2 23  5  8 59.0800000  0  4G 6G 9G11G13
  20448800.237    20448806.413     3292186.425 8  -7112830.642 8
  21325766.444    21325770.410    -3981948.354 9  -4490677.015 8
  20653315.133    20653320.803     -804328.461 8  -2005395.186 8
  22713885.115    22713892.205    -5636520.429 9  -5624527.192 8
 90  2 23  5  9 14.0800000  0  4G 6G 9G11G13
  20448964.543    20448970.161     3293046.849 8  -7112160.179 8
  21319355.920    21319359.481    -4015635.224 9  -4516926.500 8
  20652428.877    20652433.981     -808984.327 8  -2009023.134 8
  22705093.556    22705100.538    -5682718.809 8  -5660525.891 7
 90  2 23  5  9 29.0800000  0  4G 6G 9G11G13
  20449153.932    20449157.556     3294037.723 9  -7111388.059 9
  21312962.235    21312965.744    -4049239.219 8  -4543111.421 9
  20651567.379    20651571.721     -813510.542 8  -2012550.031 8
  22696318.525    22696325.126    -5728831.647 8  -5696457.909 8
 90  2 23  5  9 44.0800000  0  4G 6G 9G11G13
  20449365.855    20449370.462     3295158.968 9  -7110514.377 9
  21306583.001    21306587.100    -4082760.215 9  -4569231.662 8
  20650729.406    20650734.624     -817907.198 8  -2015975.988 7
  22687560.509    22687567.551    -5774858.900 8  -5732323.263 8
 90  2 23  5  9 59.0800000  0  4G 6G 9G11G13
  20449605.354    20449609.330     3296410.773 8  -7109538.928 8
  21300219.267    21300223.264    -4116197.963 9  -4595287.039 9
  20649917.017    20649924.821     -822174.406 8  -2019301.077 8
  22678816.538    22678825.064    -5820800.273 8  -5768121.692 7
 90  2 23  5 10 14.0800000  0  4G 6G 9G11G13
  20449868.352    20449872.143     3297793.499 7  -7108461.479 8
  21293872.222    21293877.480    -4149552.008 9  -4621277.192 8
  20649130.790    20649136.057     -826312.254 7  -2022525.365 7
  22670092.401    22670099.420    -5866655.514 7  -5803853.016 7
 90  2 23  5 10 29.0800000  0  4G 6G 9G11G13
  20450156.653    20450161.004     3299306.982 8  -7107282.142 8
  21287540.869    21287546.383    -4182821.984 9  -4647201.834 9
  20648368.477    20648372.788     -830320.928 8  -2025649.004 8
  22661383.349    22661389.020    -5912424.726 8  -5839517.311 8
 90  2 23  5 10 44.0800000  0  4G 6G 9G11G13
  20450469.775    20450473.743     3300951.784 8  -7106000.478 8
  21281227.904    21281231.027    -4216007.466 9  -4673060.623 8
  20647630.613    20647635.597     -834200.299 7  -2028671.881 7
  22652689.705    22652696.046    -5958107.421 9  -5875114.192 7
 90  2 23  5 10 59.0800000  0  4G 6G 9G11G13
  20450806.630    20450812.440     3302728.039 8  -7104616.386 8
  21274927.974    21274931.817    -4249108.118 9  -4698853.329 8
  20646916.553    20646922.032     -837950.794 8  -2031594.331 7
  22644012.457    22644019.189    -6003703.418 8  -5910643.499 9
 90  2 23  5 11 14.0800000  0  4G 6G 9G11G13
  20451171.007    20451175.887     3304635.525 7  -7103130.028 8
  21268645.291    21268650.126    -4282123.802 9  -4724579.827 9
  20646227.625    20646231.767     -841572.626 8  -2034416.526 8
  22635352.148    22635358.989    -6049212.798 8  -5946105.333 8
 90  2 23  5 11 29.0800000  0  4G 6G 9G11G13
  20451559.257    20451562.742     3306674.489 8  -7101541.231 7
  21262378.170    21262382.029    -4315054.060 8  -4750239.737 8
  20645563.050    20645567.609     -845065.757 8  -2037138.447 8
  22626708.601    22626715.836    -6094635.376 8  -5981499.518 8
 90  2 23  5 11 44.0800000  0  4G 6G 9G11G13
  20451972.211    20451975.538     3308845.303 8  -7099849.666 8
  21256128.055    21256132.690    -4347898.663 9  -4775832.931 8
  20644922.973    20644927.917     -848430.198 9  -2039760.073 7
  22618080.424    22618089.032    -6139970.752 9  -6016825.766 8
 90  2 23  5 11 59.0800000  0  4G 6G 9G11G13
  20452409.660    20452414.358     3311148.297 8  -7098055.126 7
  21249893.909    21249899.542    -4380656.956 8  -4801358.853 8
  20644306.218    20644311.405     -851666.060 8  -2042281.525 7
  22609471.728    22609478.416    -6185218.545 8  -6052083.737 9
 90  2 23  5 12 14.0800000  0  4G 6G 9G11G13
  20452873.437    20452877.898     3313583.423 7  -7096157.630 7
  21243676.924    21243682.094    -4413328.774 8  -4826817.403 8
  20643715.940    20643720.738     -854773.581 8  -2044702.951 8
  22600878.220    22600885.203    -6230378.693 8  -6087273.418 8
 90  2 23  5 12 29.0800000  0  4G 6G 9G11G13
  20453360.326    20453367.093     3316150.907 7  -7094157.004 9
  21237476.163    21237480.383    -4445913.701 9  -4852208.229 8
  20643148.352    20643152.361     -857752.924 8  -2047024.506 7
  22592302.445    22592308.023    -6275450.841 8  -6122394.538 8
 90  2 23  5 12 44.0800000  0  4G 6G 9G11G13
  20453874.365    20453879.688     3318850.834 8  -7092053.153 8
  21231293.101    21231296.081    -4478411.477 8  -4877531.156 8
  20642604.660    20642610.162     -860603.982 8  -2049246.096 7
  22583739.949    22583745.956    -6320434.767 7  -6157446.945 8
 90  2 23  5 12 59.0800000  0  4G 6G 9G11G13
  20454413.862    20454418.307     3321683.321 8  -7089846.018 8
  21225124.902    21225129.991    -4510821.659 8  -4902785.832 8
  20642087.696    20642092.455     -863326.990 8  -2051367.916 8
  22575196.277    22575204.142    -6365330.436 8  -6192430.555 8
 90  2 23  5 13 14.0800000  0  4G 6G 9G11G13
  20454978.114    20454983.450     3324648.710 7  -7087535.319 9
  21218973.252    21218978.475    -4543143.975 9  -4927972.031 8
  20641593.002    20641598.359     -865922.000 8  -2053389.986 7
  22566670.591    22566676.999    -6410137.551 8  -6227345.112 8
 90  2 23  5 13 29.0800000  0  4G 6G 9G11G13
  20455569.346    20455573.549     3327747.187 7  -7085120.931 8
  21212839.440    21212844.657    -4575377.851 8  -4953089.320 8
  20641123.717    20641129.348     -868389.070 7  -2055312.373 8
  22558160.857    22558168.234    -6454855.962 8  -6262190.618 9
 90  2 23  5 13 44.0800000  0  4G 6G 9G11G13
  20456183.034    20456187.554     3330978.547 8  -7082602.987 8
  21206722.326    21206726.916    -4607523.328 9  -4978137.732 8
  20640677.845    20640682.904     -870728.677 8  -2057135.439 7
  22549667.537    22549676.475    -6499485.558 8  -6296966.903 8
 90  2 23  5 13 59.0800000  0  4G 6G 9G11G13
  20456823.145    20456828.195     3334343.233 8  -7079981.148 8
  21200623.697    21200626.872    -4639579.897 8  -5003116.863 8
  20640257.614    20640262.385     -872940.818 8  -2058859.183 7
  22541191.624    22541199.123    -6544025.999 8  -6331673.713 8
 90  2 23  5 14 14.0800000  0  4G 6G 9G11G13
  20457488.478    20457493.633     3337841.300 8  -7077255.390 8
  21194540.097    21194543.382    -4671547.257 9  -5028026.480 8
  20639861.476    20639866.367     -875025.593 8  -2060483.680 8
  22532733.512    22532740.422    -6588477.171 9  -6366310.951 8
 90  2 23  5 14 29.0800000  0  4G 6G 9G11G13
  20458179.599    20458184.209     3341472.820 8  -7074425.625 8
  21188473.274    21188477.916    -4703425.016 9  -5052866.277 8
  20639488.498    20639494.471     -876983.315 7  -2062009.150 8
  22524291.613    22524297.958    -6632838.827 9  -6400878.454 9
 90  2 23  5 14 44.0800000  0  4G 6G 9G11G13
  20458896.445    20458901.365     3345238.142 7  -7071491.615 8
  21182423.080    21182428.686    -4735212.755 7  -5077635.925 7
  20639140.240    20639146.329     -878813.966 7  -2063435.637 8
  22515867.516    22515873.313    -6677110.741 8  -6435376.035 8
 90  2 23  5 14 59.0800000  0  4G 6G 9G11G13
  20459638.895    20459642.005     3349137.464 9  -7068453.186 8
  21176391.912    21176397.489    -4766910.039 7  -5102335.089 7
  20638816.080    20638821.037     -880517.546 9  -2064763.087 9
  22507458.493    22507465.508    -6721292.772 9  -6469803.546 8
 90  2 23  5 15 14.0800000  0  4G 6G 9G11G13
  20460406.252    20460410.396     3353170.910 8  -7065310.230 8
  21170377.812    21170382.647    -4798516.663 9  -5126963.621 8
  20638515.015    20638521.120     -882094.217 8  -2065991.660 7
  22499069.429    22499075.714    -6765384.513 8  -6504160.731 8
 90  2 23  5 15 29.0800000  0  4G 6G 9G11G13
  20461199.877    20461204.366     3357338.555 8  -7062062.708 8
  21164380.836    21164384.555    -4830032.162 8  -5151521.132 8
  20638240.110    20638245.624     -883544.156 7  -2067121.491 8
  22490696.157    22490702.015    -6809385.867 8  -6538447.479 9
 90  2 23  5 15 44.0800000  0  4G 6G 9G11G13
  20462018.448    20462022.369     3361640.580 8  -7058710.487 8
  21158400.650    21158405.663    -4861456.288 8  -5176007.454 9
  20637988.469    20637993.372     -884867.535 8  -2068152.672 7
  22482340.312    22482347.024    -6853296.615 9  -6572663.628 8
 90  2 23  5 15 59.0800000  0  4G 6G 9G11G13
  20462861.489    20462867.345     3366077.311 8  -7055253.294 8
  21152437.176    21152442.645    -4892788.457 8  -5200422.115 8
  20637761.180    20637766.442     -886064.250 8  -2069085.168 8
  22474001.838    22474007.885    -6897116.646 8  -6606809.080 8
 90  2 23  5 16 14.0800000  0  4G 6G 9G11G13
  20463730.723    20463737.765     3370648.930 8  -7051690.996 8
  21146494.556    21146498.103    -4924028.243 8  -5224764.774 8
  20637555.877    20637561.963     -887134.386 8  -2069919.025 7
  22465680.100    22465686.397    -6940845.363 8  -6640883.359 8
 90  2 23  5 16 29.0800000  0  4G 6G 9G11G13
  20464628.682    20464632.132     3375355.386 8  -7048023.631 8
  21140565.825    21140572.958    -4955175.537 8  -5249035.374 8
  20637376.008    20637381.941     -888078.330 8  -2070654.555 7
  22457375.496    22457382.349    -6984482.777 9  -6674886.522 8
 90  2 23  5 16 44.0800000  0  4G 6G 9G11G13
  20465548.980    20465554.219     3380196.672 9  -7044251.192 8
  21134656.549    21134661.611    -4986230.247 8  -5273233.845 8
  20637221.215    20637227.074     -888896.343 8  -2071291.960 6
  22449088.162    22449094.759    -7028028.875 8  -6708818.521 8
 90  2 23  5 16 59.0800000  0  4G 6G 9G11G13
  20466495.806    20466501.953     3385173.085 8  -7040373.475 8
  21128764.777    21128771.558    -5017191.895 7  -5297359.787 8
  20637089.460    20637095.287     -889588.384 8  -2071831.209 7
  22440820.348    22440827.052    -7071483.282 8  -6742679.075 8
 90  2 23  5 17 14.0800000  0  4G 6G 9G11G13
  20467469.534    20467473.194     3390284.684 8  -7036390.400 7
  21122890.765    21122895.620    -5048059.994 9  -5321412.833 8
  20636981.136    20636988.070     -890154.699 8  -2072272.482 7
  22432568.653    22432575.113    -7114845.965 8  -6776468.157 7
 90  2 23  5 17 29.0800000  0  4G 6G 9G11G13
  20468467.114    20468471.925     3395531.562 8  -7032301.937 8
  21117035.428    21117039.709    -5078834.378 7  -5345392.855 8
  20636899.548    20636903.356     -890595.380 8  -2072615.857 8
  22424334.873    22424341.350    -7158116.760 9  -6810185.635 8
 90  2 23  5 17 44.0800000  0  4G 6G 9G11G13
  20469490.655    20469496.692     3400914.090 8  -7028107.750 7
  21111196.753    21111201.610    -5109514.416 8  -5369299.363 8
  20636838.818    20636843.376     -890910.425 8  -2072861.344 8
  22416117.735    22416124.674    -7201295.120 8  -6843831.079 8
 90  2 23  5 17 59.0800000  0  4G 6G 9G11G13
  20470540.945    20470546.818     3406432.489 8  -7023807.698 9
  21105376.473    21105380.527    -5140099.672 8  -5393132.019 8
  20636803.445    20636807.329     -891100.010 9  -2073009.079 8
  22407918.746    22407925.621    -7244380.921 7  -6877404.404 8
 90  2 23  5 18 14.0800000  0  4G 6G 9G11G13
  20471617.822    20471622.117     3412086.684 8  -7019401.834 8
  21099573.565    21099580.295    -5170589.888 6  -5416890.618 8
  20636790.830    20636795.728     -891164.363 9  -2073059.204 7
  22399736.644    22399744.669    -7287374.182 8  -6910905.612 7
 90  2 23  5 18 29.0800000  0  4G 6G 9G11G13
  20472719.789    20472723.731     3417877.152 9  -7014889.784 9
  21093790.145    21093794.592    -5200984.619 8  -5440574.813 8
  20636802.107    20636806.675     -891103.352 8  -2073011.652 7
  22391573.301    22391581.023    -7330274.430 8  -6944334.358 8
 90  2 23  5 18 44.0800000  0  4G 6G 9G11G13
  20473846.610    20473852.564     3423804.185 8  -7010271.321 8
  21088025.548    21088028.936    -5231283.354 8  -5464184.197 8
  20636837.509    20636842.410     -890916.926 8  -2072866.392 8
  22383427.594    22383435.586    -7373081.324 8  -6977690.353 7
 90  2 23  5 18 59.0800000  0  4G 6G 9G11G13
  20474999.227    20475004.722     3429867.800 8  -7005546.430 8
  21082277.691    21082282.366    -5261485.816 9  -5487718.569 8
  20636896.578    20636901.535     -890605.320 8  -2072623.563 8
  22375300.731    22375306.532    -7415794.685 8  -7010973.463 7
 90  2 23  5 19 14.0800000  0  4G 6G 9G11G13
  20476180.802    20476186.405     3436067.948 8  -7000715.149 8
  21076549.538    21076553.399    -5291591.692 8  -5511177.694 9
  20636978.224    20636984.228     -890168.944 8  -2072283.528 7
  22367189.596    22367196.284    -7458414.668 8  -7044183.818 8
 90  2 23  5 19 29.0800000  0  4G 6G 9G11G13
  20477386.932    20477390.890     3442404.782 9  -6995777.353 9
  21070837.305    21070841.390    -5321600.823 8  -5534561.415 8
  20637086.747    20637091.967     -889607.897 8  -2071846.339 8
  22359096.861    22359104.087    -7500940.849 9  -7077321.077 7
 90  2 23  5 19 44.0800000  0  4G 6G 9G11G13
  20478619.272    20478623.126     3448878.509 8  -6990732.884 8
  21065144.762    21065151.112    -5351512.560 9  -5557869.252 8
  20637216.362    20637222.493     -888922.328 8  -2071312.132 8
  22351022.714    22351028.534    -7543373.119 9  -7110385.147 7
 90  2 23  5 19 59.0800000  0  4G 6G 9G11G13
  20479876.543    20479881.417     3455488.948 9  -6985581.886 8
  21059472.022    21059477.488    -5381327.107 8  -5581101.350 8
  20637369.101    20637375.457     -888112.674 7  -2070681.217 8
  22342965.824    22342973.193    -7585711.537 8  -7143376.076 7
 90  2 23  5 20 14.0800000  0  4G 6G 9G11G13
  20481161.488    20481166.233     3462236.233 8  -6980324.259 8
  21053817.071    21053822.644    -5411043.809 8  -5604257.204 7
  20637548.621    20637553.085     -887179.110 8  -2069953.757 7
  22334927.263    22334932.856    -7627955.972 8  -7176293.815 7
 90  2 23  5 20 29.0800000  0  4G 6G 9G11G13
  20482470.816    20482475.781     3469120.697 8  -6974959.762 8
  21048181.275    21048186.011    -5440662.327 9  -5627336.570 9
  20637749.295    20637755.573     -886121.561 8  -2069129.685 8
  22326905.309    22326912.621    -7670105.759 7  -7209137.775 6
 90  2 23  5 20 44.0800000  0  4G 6G 9G11G13
  20483808.034    20483811.890     3476142.331 8  -6969488.355 8
  21042565.359    21042567.701    -5470182.370 9  -5650339.183 8
  20637974.440    20637980.845     -884940.320 8  -2068209.227 8
  22318901.813    22318909.768    -7712160.918 7  -7241908.005 8
 90  2 23  5 20 59.0800000  0  4G 6G 9G11G13
  20485170.216    20485173.408     3483301.343 7  -6963909.900 7
  21036965.772    21036969.351    -5499603.535 8  -5673264.756 8
  20638222.905    20638225.801     -883635.536 8  -2067192.513 7
  22310918.841    22310925.592    -7754121.286 8  -7274604.352 8
 90  2 23  5 21 14.0800000  0  4G 6G 9G11G13
  20486557.995    20486564.218     3490597.621 8  -6958224.495 8
  21031384.939    21031389.904    -5528925.783 8  -5696113.252 8
  20638494.323    20638499.007     -882207.631 8  -2066079.838 7
  22302952.397    22302957.928    -7795986.936 9  -7307226.905 7
 90  2 23  5 21 29.0800000  0  4G 6G 9G11G13
  20487972.324    20487977.919     3498031.143 8  -6952432.140 8
  21025824.835    21025829.042    -5558148.883 8  -5718884.484 8
  20638789.751    20638794.049     -880656.667 7  -2064871.314 8
  22295002.381    22295008.843    -7837757.747 8  -7339775.541 8
 90  2 23  5 21 44.0800000  0  4G 6G 9G11G13
  20489412.552    20489418.035     3505602.083 7  -6946532.706 8
  21020283.506    21020287.605    -5587272.284 8  -5741578.037 7
  20639108.559    20639113.287     -878982.924 8  -2063567.089 8
  22287073.310    22287079.176    -7879433.606 8  -7372250.205 7
 90  2 23  5 21 59.0800000  0  4G 6G 9G11G13
  20490878.590    20490884.304     3513310.584 8  -6940526.087 8
  21014759.976    21014764.910    -5616295.682 9  -5764193.676 8
  20639450.441    20639454.578     -877186.387 9  -2062167.174 8
  22279159.022    22279166.064    -7921014.100 7  -7404650.567 7
 90  2 23  5 22 14.0800000  0  4G 6G 9G11G13
  20492372.424    20492378.077     3521157.220 8  -6934411.817 8
  21009256.260    21009260.089    -5645218.424 8  -5786730.852 8
  20639816.638    20639819.578     -875266.913 8  -2060671.475 7
  22271265.085    22271272.378    -7962499.129 8  -7436976.507 7
 90  2 23  5 22 29.0800000  0  4G 6G 9G11G13
  20493891.709    20493897.852     3529141.838 8  -6928190.047 8
  21003770.663    21003775.965    -5674040.311 8  -5809189.470 8
  20640204.018    20640209.020     -873224.817 7  -2059080.226 9
  22263389.732    22263396.077    -8003888.445 9  -7469227.884 7
 90  2 23  5 22 44.0800000  0  4G 6G 9G11G13
  20495437.793    20495443.511     3537264.350 8  -6921860.823 8
  20998305.382    20998309.156    -5702761.133 8  -5831569.312 8
  20640616.040    20640620.853     -871060.501 8  -2057393.742 8
  22255530.822    22255536.503    -8045181.939 8  -7501404.610 8
 90  2 23  5 22 59.0800000  0  4G 6G 9G11G13
  20497010.087    20497015.829     3545525.090 8  -6915423.874 8
  20992860.165    20992864.906    -5731380.451 8  -5853870.057 8
  20641050.783    20641056.398     -868774.021 8  -2055612.064 8
  22247690.366    22247697.722    -8086379.321 9  -7533506.434 7
 90  2 23  5 23 14.0800000  0  4G 6G 9G11G13
  20498607.986    20498612.097     3553924.320 9  -6908879.028 8
  20987433.515    20987437.088    -5759897.776 8  -5876091.346 7
  20641508.703    20641513.933     -866365.290 8  -2053735.116 7
  22239870.316    22239877.060    -8127480.209 9  -7565533.052 8
 90  2 23  5 23 29.0800000  0  4G 6G 9G11G13
  20500232.373    20500238.535     3562461.936 8  -6902226.343 8
  20982026.335    20982030.576    -5788312.832 8  -5898232.946 9
  20641990.551    20641995.010     -863834.698 8  -2051763.210 7
  22232068.378    22232074.513    -8168484.702 9  -7597484.577 8
 90  2 23  5 23 44.0800000  0  4G 6G 9G11G13
  20501886.025    20501889.223     3571138.051 9  -6895465.732 7
  20976637.691    20976643.205    -5816625.269 9  -5920294.565 8
  20642495.008    20642499.727     -861182.401 7  -2049696.498 8
  22224283.277    22224289.292    -8209392.653 9  -7629360.857 7
 90  2 23  5 23 59.0800000  0  4G 6G 9G11G13
  20503560.712    20503565.878     3579952.975 8  -6888596.956 7
  20971269.270    20971274.671    -5844834.720 8  -5942275.941 9
  20643023.621    20643027.647     -858408.378 8  -2047534.915 8
  22216516.270    22216523.789    -8250203.815 9  -7661161.726 8
 90  2 23  5 24 14.0800000  0  4G 6G 9G11G13
  20505265.190    20505270.584     3588906.878 7  -6881619.905 8
  20965921.251    20965925.505    -5872940.705 9  -5964176.692 8
  20643574.584    20643578.951     -855512.762 8  -2045278.581 8
  22208769.638    22208775.765    -8290917.613 8  -7692886.727 9
 90  2 23  5 24 29.0800000  0  4G 6G 9G11G13
  20506996.381    20506999.850     3597999.495 8  -6874534.731 8
  20960592.937    20960596.882    -5900943.342 8  -5985996.913 8
  20644147.640    20644152.395     -852496.068 8  -2042927.910 8
  22201039.190    22201046.796    -8331534.233 9  -7724536.001 8
 90  2 23  5 24 44.0800000  0  4G 6G 9G11G13
  20508752.928    20508756.164     3607231.053 8  -6867341.311 7
  20955283.473    20955288.948    -5928841.910 9  -6007736.055 7
  20644744.592    20644750.349     -849358.361 8  -2040482.937 8
  22193329.215    22193335.733    -8372053.560 8  -7756109.446 8
 90  2 23  5 24 59.0800000  0  4G 6G 9G11G13
  20510535.138    20510539.699     3616601.695 9  -6860039.512 8
  20949993.954    20949999.166    -5956636.218 8  -6029393.951 9
  20645364.695    20645371.241     -846099.875 8  -2037943.850 8
  22185637.001    22185643.340    -8412475.609 8  -7787607.107 8
 90  2 23  5 25 14.0800000  0  4G 6G 9G11G13
  20512345.051    20512350.008     3626111.264 8  -6852629.463 8
  20944725.350    20944729.817    -5984325.956 8  -6050970.352 8
  20646008.263    20646012.437     -842720.916 8  -2035310.880 8
  22177963.564    22177970.703    -8452800.146 8  -7819028.774 8
 90  2 23  5 25 29.0800000  0  4G 6G 9G11G13
  20514181.374    20514185.977     3635759.945 9  -6845111.021 8
  20939477.378    20939480.358    -6011910.917 8  -6072465.117 8
  20646673.846    20646679.462     -839221.551 8  -2032584.106 8
  22170308.217    22170314.934    -8493027.240 8  -7850374.515 7
 90  2 23  5 25 44.0800000  0  4G 6G 9G11G13
  20516044.819    20516048.433     3645547.814 8  -6837484.114 8
  20934246.710    20934251.579    -6039390.802 8  -6093878.005 9
  20647364.379    20647368.936     -835602.044 9  -2029763.699 7
  22162671.685    22162679.391    -8533156.683 9  -7881644.169 8
 90  2 23  5 25 59.0800000  0  4G 6G 9G11G13
  20517932.467    20517937.044     3655475.110 8  -6829748.555 9
  20929038.864    20929042.344    -6066765.021 8  -6115208.552 8
  20648074.775    20648079.720     -831862.417 8  -2026849.693 7
  22155053.303    22155061.465    -8573187.939 9  -7912837.320 8
 90  2 23  5 26 14.0800000  0  4G 6G 9G11G13
  20519848.987    20519853.278     3665541.935 9  -6821904.276 8
  20923849.318    20923853.362    -6094033.341 8  -6136456.578 7
  20648808.407    20648813.478     -828002.872 8  -2023842.260 7
  22147455.644    22147462.191    -8613120.691 8  -7943953.720 8
 90  2 23  5 26 29.0800000  0  4G 6G 9G11G13
  20521791.525    20521795.844     3675748.318 8  -6813951.266 8
  20918679.887    20918685.242    -6121195.336 9  -6157621.760 8
  20649565.534    20649571.497     -824023.571 8  -2020741.505 8
  22139875.252    22139881.916    -8652955.202 7  -7974993.557 8
 90  2 23  5 26 44.0800000  0  4G 6G 9G11G13
  20523759.395    20523764.969     3686094.432 9  -6805889.361 7
  20913532.906    20913536.610    -6148250.586 8  -6178703.769 9
  20650346.761    20650351.435     -819924.770 8  -2017547.622 8
  22132314.510    22132321.163    -8692691.042 9  -8005956.498 8
 90  2 23  5 26 59.0800000  0  4G 6G 9G11G13
  20525755.526    20525759.100     3696580.228 9  -6797718.607 7
  20908403.909    20908407.863    -6175198.846 7  -6199702.378 8
  20651149.480    20651152.750     -815706.687 9  -2014260.795 7
  22124771.600    22124777.458    -8732327.946 9  -8036842.386 9
 90  2 23  5 27 14.0800000  0  4G 6G 9G11G13
  20527776.647    20527781.336     3707205.928 9  -6789438.844 8
  20903296.148    20903300.323    -6202039.746 7  -6220617.368 8
  20651974.494    20651979.164     -811369.426 8  -2010881.108 8
  22117247.523    22117253.529    -8771865.918 8  -8067651.150 8
 90  2 23  5 27 29.0800000  0  4G 6G 9G11G13
  20529826.434    20529830.040     3717971.552 8  -6781050.040 8
  20898208.457    20898212.791    -6228773.188 8  -6241448.599 8
  20652822.141    20652827.243     -806913.299 8  -2007408.802 7
  22109741.927    22109748.110    -8811305.061 8  -8098382.907 8
 90  2 23  5 27 44.0800000  0  4G 6G 9G11G13
  20531899.909    20531904.325     3728876.995 8  -6772552.302 7
  20893141.763    20893146.993    -6255398.541 8  -6262195.623 7
  20653692.595    20653697.400     -802338.566 8  -2003844.068 8
  22102256.575    22102262.206    -8850645.153 8  -8129037.498 9
 90  2 23  5 27 59.0800000  0  4G 6G 9G11G13
  20534003.381    20534007.202     3739922.648 8  -6763945.302 8
  20888096.037    20888100.560    -6281915.579 9  -6282858.226 8
  20654585.461    20654589.836     -797645.134 8  -2000186.836 8
  22094787.943    22094794.588    -8889885.924 8  -8159614.681 9
 90  2 23  5 28 14.0800000  0  4G 6G 9G11G13
  20536131.003    20536135.390     3751108.533 8  -6755229.031 8
  20883069.819    20883074.232    -6308324.032 8  -6303436.244 8
  20655501.569    20655507.441     -792833.316 9  -1996437.375 8
  22087339.915    22087346.296    -8929027.090 8  -8190114.238 9
 90  2 23  5 28 29.0800000  0  4G 6G 9G11G13
  20538286.621    20538290.924     3762434.934 8  -6746403.258 8
  20878065.204    20878070.789    -6334623.060 7  -6323928.973 9
  20656439.594    20656445.571     -787903.133 8  -1992595.668 8
  22079912.522    22079918.210    -8968068.405 8  -8220536.029 8
 90  2 23  5 28 44.0800000  0  4G 6G 9G11G13
  20540469.010    20540472.540     3773901.691 7  -6737468.121 9
  20873082.172    20873087.469    -6360812.785 7  -6344336.549 8
  20657401.204    20657405.402     -782854.947 8  -1988662.014 8
  22072501.369    22072506.149    -9007009.949 9  -8250880.060 8
 90  2 23  5 28 59.0800000  0  4G 6G 9G11G13
  20542678.300    20542682.859     3785509.002 9  -6728423.470 7
  20868119.563    20868123.254    -6386892.767 8  -6364658.595 8
  20658383.588    20658388.058     -777688.853 9  -1984636.466 7
  22065108.751    22065116.077    -9045851.344 8  -8281146.030 9
 90  2 23  5 29 14.0800000  0  4G 6G 9G11G13
  20544913.465    20544917.059     3797256.666 8  -6719269.448 8
  20863176.414    20863181.035    -6412862.795 8  -6384894.974 8
  20659389.004    20659394.266     -772405.210 9  -1980519.333 7
  22057736.842    22057743.592    -9084592.676 7  -8311334.035 8
 90  2 23  5 29 29.0800000  0  4G 6G 9G11G13
  20547174.370    20547179.223     3809144.399 9  -6710006.280 7
  20858256.589    20858259.710    -6438722.831 8  -6405045.639 8
  20660415.950    20660421.780     -767004.597 8  -1976311.073 9
  22050383.903    22050389.417    -9123234.184 8  -8341444.260 9
 90  2 23  5 29 44.0800000  0  4G 6G 9G11G13
  20549465.415    20549468.939     3821172.870 9  -6700633.455 8
  20853356.312    20853361.884    -6464472.343 8  -6425110.171 7
  20661465.644    20661471.634     -761486.620 7  -1972011.346 8
  22043050.107    22043055.225    -9161775.128 8  -8371476.130 8
 90  2 23  5 29 59.0800000  0  4G 6G 9G11G13
  20551780.605    20551783.776     3833342.204 9  -6691150.846 7
  20848477.987    20848482.020    -6490110.548 8  -6445087.987 8
  20662537.146    20662545.580     -755851.451 8  -1967620.302 8
  22035734.981    22035741.597    -9200215.148 7  -8401429.366 7
 90  2 23  5 30 14.0800000  0  4G 6G 9G11G13
  20554122.959    20554127.125     3845652.420 9  -6681558.461 7
  20843619.787    20843624.473    -6515637.176 9  -6464978.864 8
  20663632.947    20663638.462     -750099.363 8  -1963138.139 8
  22028439.372    22028445.750    -9238554.351 7  -8431304.028 8
 90  2 23  5 30 29.0800000  0  4G 6G 9G11G13
  20556492.532    20556497.273     3858103.692 9  -6671856.183 8
  20838784.374    20838788.527    -6541052.122 8  -6484782.699 8
  20664750.268    20664754.265     -744230.406 8  -1958564.922 7
  22021162.293    22021169.153    -9276792.649 8  -8461100.081 7
 90  2 23  5 30 44.0800000  0  4G 6G 9G11G13
  20558887.997    20558892.082     3870695.895 8  -6662044.070 7
  20833969.137    20833973.328    -6566354.829 8  -6504499.085 7
  20665889.077    20665893.067     -738244.866 8  -1953900.877 8
  22013904.006    22013912.348    -9314929.846 8  -8490817.348 9
 90  2 23  5 30 59.0800000  0  4G 6G 9G11G13
  20561312.064    20561314.785     3883429.323 8  -6652121.923 8
  20829174.728    20829179.183    -6591545.261 8  -6524127.985 8
  20667050.472    20667055.658     -732142.984 8  -1949146.152 9
  22006666.674    22006673.887    -9352965.708 8  -8520455.658 8
 90  2 23  5 31 14.0800000  0  4G 6G 9G11G13
  20563761.021    20563764.924     3896304.013 9  -6642089.696 7
  20824404.517    20824407.619    -6616622.666 7  -6543668.815 7
  20668232.837    20668238.585     -725924.710 8  -1944300.729 7
  21999448.631    21999453.674    -9390899.746 9  -8550014.597 8
 90  2 23  5 31 29.0800000  0  4G 6G 9G11G13
  20566238.028    20566243.670     3909319.699 9  -6631947.609 8
  20819651.656    20819656.778    -6641587.096 8  -6563121.603 8
  20669438.936    20669443.892     -719590.792 9  -1939365.204 8
  21992250.131    21992255.521    -9428732.425 8  -8579494.574 7
 90  2 23  5 31 44.0800000  0  4G 6G 9G11G13
  20568741.785    20568745.984     3922476.827 8  -6621695.299 8
  20814924.246    20814928.001    -6666437.916 8  -6582485.871 8
  20670666.634    20670671.593     -713141.039 9  -1934339.412 8
  21985069.829    21985073.976    -9466463.396 9  -8608895.317 7
 90  2 23  5 31 59.0800000  0  4G 6G 9G11G13
  20571271.817    20571277.145     3935775.105 8  -6611333.012 7
  20810217.186    20810221.182    -6691175.071 8  -6601761.570 8
  20671916.261    20671921.648     -706575.874 8  -1929223.701 8
  21977908.992    21977914.366    -9504092.677 9  -8638216.806 7
 90  2 23  5 32 14.0800000  0  4G 6G 9G11G13
  20573830.575    20573834.757     3949214.741 8  -6600860.570 8
  20805531.355    20805535.734    -6715798.094 8  -6620948.328 8
  20673187.000    20673191.885     -699895.474 9  -1924018.183 8
  21970766.647    21970771.654    -9541620.038 8  -8667458.884 8
 90  2 23  5 32 29.0800000  0  4G 6G 9G11G13
  20576414.893    20576418.184     3962795.919 9  -6590277.838 7
  20800866.415    20800870.617    -6740306.615 7  -6640045.871 7
  20674480.809    20674485.252     -693099.817 8  -1918722.866 8
  21963646.027    21963650.814    -9579045.334 8  -8696621.421 8
 90  2 23  5 32 44.0800000  0  4G 6G 9G11G13
  20579026.238    20579029.853     3976518.557 7  -6579584.879 7
  20796224.482    20796229.641    -6764700.571 8  -6659054.141 7
  20675794.683    20675799.865     -686189.310 8  -1913338.045 8
  21956543.087    21956548.618    -9616368.413 8  -8725704.302 7
 90  2 23  5 32 59.0800000  0  4G 6G 9G11G13
  20581663.455    20581668.273     3990382.627 8  -6568781.716 7
  20791605.067    20791609.911    -6788979.618 8  -6677972.868 8
  20677132.165    20677136.749     -679164.178 8  -1907863.908 7
  21949461.953    21949467.241    -9653589.258 8  -8754707.531 8
 90  2 23  5 33 14.0800000  0  4G 6G 9G11G13
  20584328.996    20584333.920     4004388.491 9  -6557868.057 8
  20787006.974    20787010.286    -6813142.964 8  -6696801.444 8
  20678490.424    20678495.937     -672024.457 8  -1902300.487 8
  21942397.495    21942403.388    -9690707.395 9  -8783630.741 7
 90  2 23  5 33 29.0800000  0  4G 6G 9G11G13
  20587022.178    20587026.442     4018535.977 9  -6546844.047 7
  20782430.516    20782434.864    -6837190.479 9  -6715539.744 8
  20679871.201    20679876.187     -664770.285 8  -1896647.885 7
  21935352.790    21935358.612    -9727722.881 9  -8812473.969 8
 90  2 23  5 33 44.0800000  0  4G 6G 9G11G13
  20589739.845    20589744.029     4032825.188 9  -6535709.595 7
  20777876.317    20777880.711    -6861122.036 8  -6734187.702 8
  20681273.334    20681278.847     -657402.019 9  -1890906.367 7
  21928328.100    21928333.787    -9764635.460 8  -8841236.991 6
 90  2 23  5 33 59.0800000  0  4G 6G 9G11G13
  20592486.384    20592490.652     4047256.319 8  -6524464.553 7
  20773345.365    20773348.845    -6884936.873 8  -6752744.714 8
  20682696.009    20682702.567     -649919.653 8  -1885075.956 8
  21921325.045    21921330.754    -9801444.980 8  -8869919.704 7
 90  2 23  5 34 14.0800000  0  4G 6G 9G11G13
  20595259.137    20595264.579     4061829.340 9  -6513108.973 8
  20768835.439    20768839.108    -6908634.905 8  -6771210.701 8
  20684142.926    20684148.358     -642323.517 8  -1879156.870 8
  21914337.890    21914346.525    -9838151.177 8  -8898521.907 7
 90  2 23  5 34 29.0800000  0  4G 6G 9G11G13
  20598060.076    20598065.335     4076544.191 8  -6501642.862 8
  20764347.962    20764351.979    -6932216.046 8  -6789585.606 8
  20685609.277    20685614.622     -634614.017 8  -1873149.462 8
  21907373.906    21907379.351    -9874754.070 8  -8927043.615 8
 90  2 23  5 34 44.0800000  0  4G 6G 9G11G13
  20600886.880    20600891.971     4091400.824 9  -6490066.254 7
  20759882.893    20759885.759    -6955679.783 8  -6807869.028 8
  20687098.436    20687103.279     -626791.483 8  -1867053.975 8
  21900428.373    21900433.264    -9911253.799 9  -8955484.939 7
 90  2 23  5 34 59.0800000  0  4G 6G 9G11G13
  20603741.936    20603744.972     4106399.480 9  -6478378.988 7
  20755439.736    20755444.490    -6979025.715 7  -6826060.655 8
  20688608.886    20688614.404     -618855.926 8  -1860870.419 7
  21893503.122    21893508.987    -9947650.095 8  -8983845.669 8
 90  2 23  5 35 14.0800000  0  4G 6G 9G11G13
  20606622.798    20606625.719     4121540.269 9  -6466580.981 8
  20751019.271    20751023.916    -7002253.352 8  -6844160.093 8
  20690140.886    20690144.373     -610807.301 8  -1854598.761 8
  21886596.075    21886602.078    -9983942.666 8  -9012125.569 8
 90  2 23  5 35 29.0800000  0  4G 6G 9G11G13
  20609530.503    20609535.894     4136823.207 9  -6454672.198 7
  20746622.575    20746626.970    -7025362.580 8  -6862167.277 9
  20691692.231    20691699.024     -602645.906 8  -1848239.222 8
  21879708.192    21879714.518   -10020131.287 8  -9040324.474 8
 90  2 23  5 35 44.0800000  0  4G 6G 9G11G13
  20612466.312    20612469.330     4152248.228 8  -6442652.706 7
  20742247.615    20742251.967    -7048353.020 8  -6880081.904 8
  20693268.246    20693272.248     -594372.228 8  -1841792.201 8
  21872843.009    21872847.267   -10056216.233 8  -9068442.588 8
 90  2 23  5 35 59.0800000  0  4G 6G 9G11G13
  20615428.548    20615431.982     4167815.407 8  -6430522.442 7
  20737895.866    20737898.717    -7071224.529 8  -6897903.862 8
  20694863.209    20694868.840     -585986.376 8  -1835257.765 8
  21865995.562    21866002.612   -10092197.143 9  -9096479.635 7
 90  2 23  5 36 14.0800000  0  4G 6G 9G11G13
  20618417.578    20618421.268     4183524.691 9  -6418281.437 8
  20733566.684    20733570.213    -7093976.576 8  -6915632.708 7
  20696480.889    20696485.050     -577488.505 9  -1828636.053 8
  21859168.904    21859173.628   -10128074.128 9  -9124435.702 8
 90  2 23  5 36 29.0800000  0  4G 6G 9G11G13
  20621433.106    20621437.939     4199375.954 8  -6405929.808 7
  20729258.456    20729262.980    -7116609.134 8  -6933268.450 8
  20698117.780    20698124.697     -568879.015 8  -1821927.340 9
  21852360.921    21852368.052   -10163847.113 8  -9152310.745 8
 90  2 23  5 36 44.0800000  0  4G 6G 9G11G13
  20624476.908    20624481.633     4215369.577 8  -6393467.251 7
  20724974.892    20724979.603    -7139121.694 8  -6950810.704 7
  20699777.818    20699783.751     -560157.852 8  -1815131.631 8
  21845573.271    21845580.082   -10199515.578 9  -9180104.318 8
 90  2 23  5 36 59.0800000  0  4G 6G 9G11G13
  20627548.920    20627551.862     4231505.640 9  -6380893.689 7
  20720713.474    20720716.999    -7161513.542 8  -6968258.882 9
  20701458.719    20701463.192     -551325.149 9  -1808248.997 8
  21838806.448    21838811.691   -10235079.423 9  -9207816.384 8
 90  2 23  5 37 14.0800000  0  4G 6G 9G11G13
  20630645.964    20630649.419     4247783.881 8  -6368209.335 8
  20716475.473    20716479.987    -7183785.232 9  -6985613.435 8
  20703161.370    20703166.217     -542381.466 8  -1801279.898 8
  21832058.626    21832063.246   -10270538.686 8  -9235446.973 7
 90  2 23  5 37 29.0800000  0  4G 6G 9G11G13
  20633770.601    20633775.284     4264204.373 9  -6355414.163 7
  20712260.456    20712264.738    -7205935.607 8  -7002873.470 8
  20704883.169    20704889.156     -533326.946 9  -1794224.436 8
  21825329.944    21825337.929   -10305893.529 9  -9262996.176 8
 90  2 23  5 37 44.0800000  0  4G 6G 9G11G13
  20636922.413    20636926.935     4280767.206 9  -6342508.071 8
  20708067.452    20708072.928    -7227964.770 9  -7020039.045 8
  20706627.002    20706633.749     -524161.813 9  -1787082.755 7
  21818622.127    21818628.246   -10341143.530 9  -9290463.688 7
 90  2 23  5 37 59.0800000  0  4G 6G 9G11G13
  20640101.106    20640106.449     4297472.254 8  -6329491.161 8
  20703900.216    20703903.471    -7249871.944 7  -7037109.559 8
  20708392.928    20708399.318     -514886.336 7  -1779855.112 8
  21811935.573    21811941.213   -10376288.811 8  -9317849.608 8
 90  2 23  5 38 14.0800000  0  4G 6G 9G11G13
  20643306.917    20643313.066     4314319.928 9  -6316363.120 7
  20699753.215    20699757.787    -7271657.537 7  -7054085.340 8
  20710179.064    20710183.905     -505500.391 8  -1772541.384 8
  21805265.656    21805273.830   -10411328.763 8  -9345153.439 8
 90  2 23  5 38 29.0800000  0  4G 6G 9G11G13
  20646540.328    20646545.196     4331309.816 9  -6303124.236 7
  20695631.976    20695636.162    -7293321.003 8  -7070965.951 8
  20711985.970    20711990.954     -496004.758 8  -1765142.169 8
  21798619.158    21798622.911   -10446263.721 8  -9372375.448 8
 90  2 23  5 38 44.0800000  0  4G 6G 9G11G13
  20649800.207    20649804.787     4348441.993 8  -6289774.488 7
  20691532.374    20691536.440    -7314861.798 8  -7087750.978 7
  20713814.140    20713819.944     -486399.390 8  -1757657.461 9
  21791992.366    21791997.574   -10481093.251 8  -9399515.334 8
 90  2 23  5 38 59.0800000  0  4G 6G 9G11G13
  20653088.247    20653091.913     4365716.483 8  -6276313.856 7
  20687456.617    20687459.414    -7336280.049 8  -7104440.529 8
  20715662.862    20715667.647     -476684.745 8  -1750087.606 8
  21785382.573    21785389.705   -10515817.543 8  -9426573.201 7
 90  2 23  5 39 14.0800000  0  4G 6G 9G11G13
  20656401.610    20656405.813     4383133.297 8  -6262742.320 7
  20683404.343    20683408.412    -7357575.276 8  -7121034.186 8
  20717532.331    20717537.404     -466860.843 8  -1742432.610 8
  21778794.275    21778801.960   -10550436.548 8  -9453549.026 8
 90  2 23  5 39 29.0800000  0  4G 6G 9G11G13
  20659743.064    20659748.180     4400692.778 8  -6249059.625 7
  20679375.183    20679379.338    -7378746.716 8  -7137531.409 7
  20719421.829    20719427.991     -456927.665 8  -1734692.478 9
  21772226.829    21772234.277   -10584949.801 7  -9480442.441 8
 90  2 23  5 39 44.0800000  0  4G 6G 9G11G13
  20663112.792    20663116.262     4418394.279 9  -6235266.232 7
  20675369.401    20675374.648    -7399794.892 8  -7153932.577 8
  20721332.851    20721338.681     -446885.892 8  -1726867.714 9
  21765679.689    21765685.650   -10619357.589 8  -9507253.668 7
 90  2 23  5 39 59.0800000  0  4G 6G 9G11G13
  20666508.073    20666511.306     4436238.371 8  -6221361.746 8
  20671388.749    20671393.737    -7420718.988 8  -7170237.049 8
  20723264.224    20723269.813     -436735.668 7  -1718958.451 8
  21759153.266    21759159.420   -10653659.564 8  -9533982.470 8
 90  2 23  5 40 14.0800000  0  4G 6G 9G11G13
  20669930.108    20669934.489     4454224.842 9  -6207346.335 7
  20667430.680    20667434.531    -7441518.387 8  -7186444.378 8
  20725216.172    20725221.885     -426477.059 8  -1710964.717 9
  21752643.944    21752651.249   -10687855.586 7  -9560628.682 8
 90  2 23  5 40 29.0800000  0  4G 6G 9G11G13
  20673380.128    20673384.227     4472353.852 8  -6193219.836 8
  20663495.964    20663499.755    -7462193.389 8  -7202554.752 7
  20727189.006    20727193.722     -416110.411 9  -1702886.814 8
  21746157.072    21746164.628   -10721945.654 8  -9587192.365 8
 90  2 23  5 40 44.0800000  0  4G 6G 9G11G13
  20676857.940    20676862.170     4490625.317 8  -6178982.328 7
  20659585.936    20659590.306    -7482743.208 8  -7218567.595 7
  20729182.334    20729188.267     -405635.885 8  -1694724.841 9
  21739691.329    21739698.207   -10755929.574 9  -9613673.331 8
 90  2 23  5 40 59.0800000  0  4G 6G 9G11G13
  20680361.517    20680365.672     4509039.230 9  -6164633.838 7
  20655698.530    20655704.112    -7503167.713 7  -7234482.786 8
  20731196.525    20731201.898     -395053.723 8  -1686478.990 8
  21733243.252    21733251.353   -10789807.291 9  -9640071.525 8
 90  2 23  5 41 14.0800000  0  4G 6G 9G11G13
  20683893.193    20683896.650     4527595.378 9  -6150174.500 8
  20651836.708    20651839.599    -7523466.950 7  -7250300.365 7
  20733230.322    20733236.108     -384364.285 8  -1678149.573 9
  21726817.144    21726824.047   -10823578.904 8  -9666387.039 8
 90  2 23  5 41 29.0800000  0  4G 6G 9G11G13
  20687450.373    20687454.809     4546294.109 9  -6135604.090 8
  20647996.563    20648001.139    -7543640.283 8  -7266019.838 8
  20735283.374    20735290.038     -373567.608 7  -1669736.561 9
  21720411.658    21720418.122   -10857244.021 9  -9692619.580 7
 90  2 23  5 41 44.0800000  0  4G 6G 9G11G13
  20691035.390    20691040.786     4565135.185 9  -6120922.726 7
  20644183.141    20644186.471    -7563687.367 8  -7281640.945 7
  20737360.070    20737364.715     -362663.941 9  -1661240.189 8
  21714025.322    21714031.099   -10890802.784 7  -9718769.240 6
 90  2 23  5 41 59.0800000  0  4G 6G 9G11G13
  20694649.066    20694653.387     4584118.864 9  -6106130.250 7
  20640390.958    20640395.323    -7583607.809 8  -7297163.353 7
  20739454.824    20739461.082     -351653.451 9  -1652660.587 8
  21707659.405    21707665.804   -10924254.988 8  -9744835.873 8
 90  2 23  5 42 14.0800000  0  4G 6G 9G11G13
  20698288.175    20698292.347     4603245.256 9  -6091226.581 7
  20636625.672    20636629.402    -7603400.943 8  -7312586.562 7
  20741569.920    20741575.927     -340536.431 8  -1643997.965 8
  21701314.750    21701319.900   -10957600.310 8  -9770819.214 8
 90  2 23  5 42 29.0800000  0  4G 6G 9G11G13
  20701954.419    20701959.589     4622514.143 8  -6076211.876 7
  20632883.125    20632886.831    -7623067.236 8  -7327910.944 8
  20743706.172    20743711.461     -329313.160 8  -1635252.557 8
  21694989.469    21694994.606   -10990838.666 8  -9796719.207 8
 90  2 23  5 42 44.0800000  0  4G 6G 9G11G13
  20705648.410    20705652.707     4641925.824 8  -6061085.895 9
  20629165.235    20629167.694    -7642605.843 8  -7343135.821 8
  20745862.712    20745868.027     -317983.560 8  -1626424.304 8
  21688684.620    21688690.937   -11023969.650 7  -9822535.532 8
 90  2 23  5 42 59.0800000  0  4G 6G 9G11G13
  20709369.397    20709374.622     4661479.834 8  -6045849.010 7
  20625470.808    20625475.109    -7662016.853 8  -7358261.271 8
  20748038.624    20748044.084     -306548.287 8  -1617513.691 8
  21682400.547    21682405.873   -11056994.019 8  -9848268.784 8
 90  2 23  5 43 14.0800000  0  4G 6G 9G11G13
  20713118.021    20713121.537     4681176.255 9  -6030501.141 8
  20621802.532    20621806.895    -7681299.770 8  -7373286.913 7
  20750234.399    20750239.561     -295007.448 8  -1608520.831 8
  21676136.784    21676141.969   -11089911.260 9  -9873918.561 8
 90  2 23  5 43 29.0800000  0  4G 6G 9G11G13
  20716893.852    20716897.604     4701014.765 8  -6015042.577 8
  20618156.286    20618161.011    -7700454.918 9  -7388212.990 8
  20752451.437    20752456.197     -283361.770 8  -1599446.279 8
  21669892.988    21669898.834   -11122721.965 7  -9899485.337 8
 90  2 23  5 43 44.0800000  0  4G 6G 9G11G13
  20720695.196    20720699.460     4720995.419 8  -5999473.243 7
  20614536.728    20614539.280    -7719481.329 8  -7403038.744 8
  20754686.563    20754691.420     -271611.283 8  -1590290.041 9
  21663669.469    21663675.230   -11155425.473 8  -9924968.565 9
 90  2 23  5 43 59.0800000  0  4G 6G 9G11G13
  20724524.507    20724527.743     4741118.268 8  -5983793.108 7
  20610940.609    20610943.996    -7738379.044 7  -7417764.230 7
  20756943.181    20756947.811     -259756.150 8  -1581052.288 8
  21657466.717    21657472.813   -11188021.711 7  -9950368.205 9
 90  2 23  5 44 14.0800000  0  4G 6G 9G11G13
  20728381.501    20728384.735     4761383.600 8  -5968001.944 8
  20607368.453    20607372.827    -7757147.833 8  -7432389.270 7
  20759217.942    20759224.176     -247796.352 8  -1571732.946 8
  21651282.991    21651290.044   -11220510.379 7  -9975684.035 6
 90  2 23  5 44 29.0800000  0  4G 6G 9G11G13
  20732263.233    20732268.687     4781791.168 8  -5952099.961 8
  20603821.081    20603826.208    -7775786.800 8  -7446913.126 7
  20761512.023    20761518.766     -235732.231 8  -1562332.344 7
  21645120.795    21645128.839   -11252891.750 8 -10000916.238 8
 90  2 23  5 44 44.0800000  0  4G 6G 9G11G13
  20736173.980    20736178.966     4802341.090 8  -5936087.040 8
  20600299.471    20600303.016    -7794296.055 8  -7461335.901 8
  20763829.112    20763833.564     -223564.020 9  -1552850.616 9
  21638981.567    21638987.576   -11285165.612 8 -10026064.682 9
 90  2 23  5 44 59.0800000  0  4G 6G 9G11G13
  20740113.280    20740117.348     4823033.567 8  -5919963.045 7
  20596801.500    20596804.645    -7812675.081 8  -7475657.215 7
  20766165.548    20766169.746     -211291.799 9  -1543287.848 8
  21632859.325    21632865.898   -11317331.458 7 -10051128.965 8
 90  2 23  5 45 14.0800000  0  4G 6G 9G11G13
  20744077.589    20744080.866     4843868.440 9  -5903728.083 7
  20593328.478    20593333.636    -7830923.485 8  -7489876.753 7
  20768520.266    20768525.066     -198915.889 8  -1533644.262 8
  21626759.463    21626764.723   -11349389.486 9 -10076109.228 7
 90  2 23  5 45 29.0800000  0  4G 6G 9G11G13
  20748068.361    20748073.157     4864845.565 9  -5887382.278 8
  20589881.104    20589884.623    -7849041.154 8  -7503994.422 7
  20770894.964    20770900.252     -186436.749 8  -1523920.256 8
  21620678.970    21620685.381   -11381339.713 8 -10101005.494 8
 90  2 23  5 45 44.0800000  0  4G 6G 9G11G13
  20752086.946    20752092.232     4885964.948 8  -5870925.618 7
  20586458.221    20586463.522    -7867027.982 8  -7518010.116 8
  20773288.923    20773294.423     -173854.568 7  -1514115.960 8
  21614620.407    21614625.803   -11413181.828 8 -10125817.502 7
 90  2 23  5 45 59.0800000  0  4G 6G 9G11G13
  20756133.700    20756139.052     4907226.437 8  -5854358.240 7
  20583060.755    20583065.334    -7884883.748 8  -7531923.690 8
  20775701.910    20775707.882     -161169.632 8  -1504231.596 9
  21608582.415    21608586.879   -11444915.891 8 -10150545.331 7
 90  2 23  5 46 14.0800000  0  4G 6G 9G11G13
  20760206.827    20760211.942     4928630.245 8  -5837679.955 8
  20579688.155    20579692.567    -7902607.694 8  -7545734.549 8
  20778136.561    20778141.405     -148381.991 9  -1494267.195 8
  21602563.928    21602569.215   -11476541.936 9 -10175188.976 8
 90  2 23  5 46 29.0800000  0  4G 6G 9G11G13
  20764305.712    20764311.753     4950176.264 9  -5820890.854 8
  20576340.783    20576344.812    -7920199.919 8  -7559442.764 8
  20780589.188    20780594.618     -135491.878 8  -1484222.951 9
  21596566.173    21596572.164   -11508059.934 9 -10199748.435 7
 90  2 23  5 46 44.0800000  0  4G 6G 9G11G13
  20768433.243    20768438.906     4971864.288 8  -5803991.090 8
  20573017.054    20573021.288    -7937659.986 8  -7573047.989 8
  20783061.474    20783066.502     -122499.720 8  -1474099.184 8
  21590587.365    21590593.503   -11539469.896 9 -10224223.724 7
 90  2 23  5 46 59.0800000  0  4G 6G 9G11G13
  20772587.958    20772592.145     4993694.660 9  -5786980.427 7
  20569720.709    20569724.994    -7954987.553 8  -7586549.991 8
  20785553.047    20785558.665     -109405.232 8  -1463895.679 8
  21584631.021    21584637.681   -11570771.264 7 -10248614.372 9
 90  2 23  5 47 14.0800000  0  4G 6G 9G11G13
  20776769.733    20776775.063     5015667.223 9  -5769858.956 8
  20566447.847    20566451.606    -7972182.242 9  -7599948.458 7
  20788064.452    20788069.886      -96209.086 8  -1453612.969 8
  21578695.691    21578700.906   -11601964.200 9 -10272920.532 8
 90  2 23  5 47 29.0800000  0  4G 6G 9G11G13
  20780977.834    20780981.906     5037781.442 8  -5752627.100 8
  20563203.213    20563205.787    -7989244.225 8  -7613243.494 8
  20790594.636    20790600.324      -82912.011 8  -1443251.608 8
  21572779.833    21572787.276   -11633048.926 8 -10297142.371 6
 90  2 23  5 47 44.0800000  0  4G 6G 9G11G13
  20785212.476    20785217.188     5060037.928 8  -5735284.409 7
  20559979.470    20559983.654    -8006172.560 7  -7626434.405 8
  20793145.422    20793149.551      -69513.607 8  -1432811.289 8
  21566886.653    21566892.308   -11664025.037 8 -10321279.566 8
 90  2 23  5 47 59.0800000  0  4G 6G 9G11G13
  20789475.155    20789478.892     5082436.335 8  -5717831.107 9
  20556784.278    20556788.183    -8022967.494 8  -7639521.353 7
  20795713.863    20795718.521      -56014.338 8  -1422292.378 9
  21561013.403    21561017.932   -11694892.525 7 -10345332.133 7
 90  2 23  5 48 14.0800000  0  4G 6G 9G11G13
  20793763.767    20793768.643     5104976.475 9  -5700267.364 8
  20553612.986    20553616.657    -8039628.951 7  -7652504.301 8
  20798300.684    20798306.386      -42414.616 7  -1411695.182 9
  21555157.959    21555164.330   -11725651.468 8 -10369300.126 9
 90  2 23  5 48 29.0800000  0  4G 6G 9G11G13
  20798080.871    20798084.542     5127658.480 9  -5682593.091 7
  20550467.915    20550473.128    -8056156.117 8  -7665382.608 8
  20800908.162    20800913.692      -28714.461 8  -1401019.734 9
  21549326.678    21549332.592   -11756301.715 8 -10393183.413 8
 90  2 23  5 48 44.0800000  0  4G 6G 9G11G13
  20802423.244    20802428.351     5150482.081 8  -5664808.467 8
  20547350.298    20547353.209    -8072549.069 7  -7678156.335 8
  20803535.015    20803540.060      -14914.500 8  -1390266.522 8
  21543514.340    21543519.580   -11786843.548 8 -10416982.228 8
 90  2 23  5 48 59.0800000  0  4G 6G 9G11G13
  20806794.311    20806799.250     5173447.415 8  -5646913.417 7
  20544256.098    20544259.494    -8088807.303 7  -7690825.085 7
  20806178.294    20806183.094       -1014.553 9  -1379435.388 8
  21537724.589    21537729.266   -11817276.408 9 -10440696.134 7
 90  2 23  5 49 14.0800000  0  4G 6G 9G11G13
  20811190.809    20811196.656     5196554.589 9  -5628907.838 7
  20541187.011    20541191.448    -8104930.739 7  -7703388.774 6
  20808842.381    20808849.314       12985.043 8  -1368526.603 8
  21531952.897    21531958.129   -11847600.026 8 -10464324.905 6
 90  2 23  5 49 29.0800000  0  4G 6G 9G11G13
  20815615.012    20815620.105     5219803.520 8  -5610791.775 8
  20538144.894    20538148.271    -8120918.605 8  -7715846.851 7
  20811525.413    20811530.784       27084.039 9  -1357540.367 7
  21526203.703    21526208.478   -11877814.657 9 -10487868.773 7
 90  2 23  5 49 44.0800000  0  4G 6G 9G11G13
  20820066.132    20820070.480     5243194.112 9  -5592565.353 7
  20535126.163    20535132.159    -8136771.013 8  -7728199.378 8
  20814227.391    20814233.595       41282.189 8  -1346476.887 7
  21520475.316    21520480.073   -11907920.168 8 -10511327.602 7
 90  2 23  5 49 59.0800000  0  4G 6G 9G11G13
  20824544.484    20824549.101     5266726.162 9  -5574228.711 8
  20532137.047    20532141.991    -8152487.891 7  -7740446.291 7
  20816947.798    20816953.982       55579.065 8  -1335336.444 8
  21514765.893    21514771.724   -11937916.558 8 -10534701.399 7
 90  2 23  5 50 14.0800000  0  4G 6G 9G11G13
  20829049.406    20829054.220     5290399.817 8  -5555781.713 8
  20529171.959    20529177.229    -8168068.697 8  -7752587.154 7
  20819687.122    20819693.126       69974.488 8  -1324119.231 7
  21509079.056    21509084.272   -11967803.729 9 -10557990.087 7
 90  2 23  5 50 29.0800000  0  4G 6G 9G11G13
  20833580.538    20833585.846     5314215.153 8  -5537224.318 8
  20526233.335    20526237.941    -8183512.762 8  -7764621.486 7
  20822445.564    20822450.233       84468.592 8  -1312825.127 7
  21503411.029    21503418.477   -11997581.470 9 -10581193.496 7
 90  2 23  5 50 44.0800000  0  4G 6G 9G11G13
  20838140.573    20838143.639     5338171.959 9  -5518556.679 7
  20523320.532    20523324.989    -8198820.214 8  -7776549.357 7
  20825222.606    20825228.176       99060.850 9  -1301454.548 7
  21497767.468    21497772.928   -12027249.924 8 -10604311.760 7
 90  2 23  5 50 59.0800000  0  4G 6G 9G11G13
  20842725.988    20842729.560     5362269.606 9  -5499779.304 7
  20520433.287    20520438.077    -8213991.257 8  -7788370.953 8
  20828017.966    20828024.968      113750.565 8  -1290007.991 8
  21492141.432    21492146.195   -12056809.304 9 -10627345.020 7
 90  2 23  5 51 14.0800000  0  4G 6G 9G11G13
  20847337.915    20847342.876     5386508.710 9  -5480891.692 8
  20517572.046    20517576.153    -8229025.217 8  -7800085.716 7
  20830831.981    20830837.727      128537.913 8  -1278485.376 7
  21486538.276    21486543.412   -12086259.171 9 -10650292.944 7
 90  2 23  5 51 29.0800000  0  4G 6G 9G11G13
  20851977.771    20851981.741     5410889.264 9  -5461893.874 8
  20514739.365    20514742.230    -8243921.457 8  -7811693.173 7
  20833665.747    20833669.573      143422.814 8  -1266886.749 7
  21480953.759    21480957.981   -12115599.188 9 -10673155.297 7
 90  2 23  5 51 44.0800000  0  4G 6G 9G11G13
  20856643.983    20856649.438     5435410.819 9  -5442786.173 7
  20511930.228    20511935.223    -8258680.057 8  -7823193.369 8
  20836516.137    20836520.639      158404.570 9  -1255212.663 7
  21475391.276    21475397.154   -12144829.917 8 -10695932.442 8
 90  2 23  5 51 59.0800000  0  4G 6G 9G11G13
  20861337.076    20861341.168     5460073.689 9  -5423568.357 7
  20509148.517    20509151.121    -8273300.917 8  -7834586.241 7
  20839384.674    20839389.705      173483.208 8  -1243463.064 8
  21469850.169    21469857.074   -12173950.910 9 -10718624.117 7
 90  2 23  5 52 14.0800000  0  4G 6G 9G11G13
  20866058.147    20866060.734     5484877.395 9  -5404240.804 7
  20506390.369    20506395.015    -8287783.543 8  -7845871.399 7
  20842271.355    20842277.443      188658.243 8  -1231638.368 8
  21464329.000    21464335.214   -12202962.469 8 -10741230.505 8
 90  2 23  5 52 29.0800000  0  4G 6G 9G11G13
  20870804.357    20870807.939     5509821.915 9  -5384803.521 7
  20503660.878    20503666.693    -8302127.930 8  -7857048.834 8
  20845178.583    20845183.022      203929.395 8  -1219738.758 8
  21458829.962    21458836.687   -12231864.541 9 -10763751.586 6
 90  2 23  5 52 44.0800000  0  4G 6G 9G11G13
  20875576.958    20875583.184     5534907.264 9  -5365256.506 8
  20500958.528    20500961.831    -8316333.790 8  -7868118.344 7
  20848103.354    20848106.921      219296.473 8  -1207764.412 8
  21453351.076    21453357.190   -12260657.057 9 -10786187.296 7
 90  2 23  5 52 59.0800000  0  4G 6G 9G11G13
  20880377.501    20880383.117     5560133.626 8  -5345599.616 8
  20498281.991    20498285.419    -8330400.548 7  -7879079.432 8
  20851045.069    20851051.697      234759.457 9  -1195715.336 7
  21447892.975    21447897.045   -12289339.397 8 -10808537.141 7
 90  2 23  5 53 14.0800000  0  4G 6G 9G11G13
  20885204.834    20885209.918     5585500.946 9  -5325832.872 7
  20495632.137    20495635.823    -8344327.663 8  -7889931.721 7
  20854007.127    20854011.585      250318.267 8  -1183591.573 8
  21442455.403    21442461.351   -12317911.480 9 -10830801.096 7
 90  2 23  5 53 29.0800000  0  4G 6G 9G11G13
  20890059.158    20890064.653     5611009.171 9  -5305956.351 8
  20493007.925    20493011.594    -8358115.145 8  -7900675.212 8
  20856985.070    20856990.403      265972.484 8  -1171393.487 8
  21437039.283    21437045.418   -12346373.757 9 -10852979.483 7
 90  2 23  5 53 44.0800000  0  4G 6G 9G11G13
  20894939.696    20894944.907     5636657.805 9  -5285970.400 8
  20490410.534    20490414.149    -8371763.051 7  -7911309.947 8
  20859982.848    20859987.446      281721.517 8  -1159121.512 8
  21431644.453    21431650.199   -12374726.406 9 -10875072.448 7
 90  2 23  5 53 59.0800000  0  4G 6G 9G11G13
  20899847.810    20899852.035     5662447.172 9  -5265874.800 7
  20487839.773    20487844.802    -8385270.940 7  -7921835.561 8
  20862998.224    20863001.180      297565.432 8  -1146775.603 7
  21426269.636    21426274.456   -12402968.937 9 -10897079.600 7
 90  2 23  5 54 14.0800000  0  4G 6G 9G11G13
  20904782.096    20904786.350     5688376.946 9  -5245669.798 8
  20485295.826    20485301.266    -8398638.187 7  -7932251.578 7
  20866029.457    20866034.988      313503.814 9  -1134356.094 8
  21420916.123    21420921.460   -12431101.390 8 -10919000.967 7
 90  2 23  5 54 29.0800000  0  4G 6G 9G11G13
  20909743.785    20909747.446     5714447.259 9  -5225355.269 8
  20482780.035    20482783.130    -8411865.103 7  -7942558.271 7
  20869081.837    20869086.365      329536.400 9  -1121863.153 7
  21415584.218    21415588.806   -12459123.608 8 -10940836.450 7
 90  2 23  5 54 44.0800000  0  4G 6G 9G11G13
  20914730.973    20914734.750     5740658.048 9  -5204931.285 7
  20480289.397    20480294.062    -8424950.916 9  -7952754.987 7
  20872149.330    20872154.316      345663.190 8  -1109296.821 7
  21410271.865    21410276.982   -12487035.263 8 -10962585.767 7
 90  2 23  5 54 59.0800000  0  4G 6G 9G11G13
  20919744.815    20919750.224     5767009.314 9  -5184397.847 7
  20477824.765    20477830.722    -8437895.437 7  -7962841.625 8
  20875235.905    20875240.449      361883.892 8  -1096657.315 8
  21404982.519    21404988.152   -12514836.708 8 -10984249.203 6
 90  2 23  5 55 14.0800000  0  4G 6G 9G11G13
  20924786.451    20924790.570     5793500.527 9  -5163755.350 7
  20475388.576    20475394.492    -8450698.910 8  -7972818.365 7
  20878340.402    20878345.985      378197.885 9  -1083945.105 6
  21399711.499    21399717.149   -12542527.928 9 -11005826.749 7
 90  2 23  5 55 29.0800000  0  4G 6G 9G11G13
  20929853.606    20929860.355     5820131.862 9  -5143003.668 7
  20472980.752    20472984.121    -8463360.695 7  -7982684.675 6
  20881462.467    20881467.957      394605.002 9  -1071160.346 7
  21394462.727    21394469.165   -12570108.749 8 -11027318.298 7
 90  2 23  5 55 44.0800000  0  4G 6G 9G11G13
  20934948.221    20934953.614     5846903.626 9  -5122142.562 7
  20470599.042    20470601.910    -8475880.333 8  -7992440.232 8
  20884602.937    20884607.563      411105.428 8  -1058302.881 7
  21389236.937    21389241.765   -12597579.017 7 -11048723.677 7
 90  2 23  5 55 59.0800000  0  4G 6G 9G11G13
  20940070.361    20940073.529     5873815.106 9  -5101172.581 7
  20468242.032    20468246.229    -8488258.210 7  -8002085.330 7
  20887761.031    20887765.018      427698.243 8  -1045373.404 7
  21384029.243    21384035.001   -12624939.293 9 -11070043.352 7
 90  2 23  5 56 14.0800000  0  4G 6G 9G11G13
  20945217.698    20945222.523     5900866.450 9  -5080093.612 7
  20465913.268    20465919.010    -8500493.650 8  -8011619.430 7
  20890936.216    20890939.768      444383.666 9  -1032371.775 7
  21378844.422    21378849.453   -12652189.022 8 -11091276.886 7
 90  2 23  5 56 29.0800000  0  4G 6G 9G11G13
  20950391.128    20950396.679     5928057.090 8  -5058906.117 7
  20463611.933    20463616.988    -8512587.158 7  -8021042.942 8
  20894127.363    20894132.280      461160.627 9  -1019298.815 8
  21373679.401    21373684.462   -12679328.975 9 -11112424.891 8
 90  2 23  5 56 44.0800000  0  4G 6G 9G11G13
  20955591.176    20955597.928     5955386.718 9  -5037610.312 8
  20461338.877    20461343.200    -8524538.350 7  -8030355.564 8
  20897337.917    20897342.690      478028.791 8  -1006154.791 7
  21368534.223    21368541.126   -12706358.965 9 -11133487.202 7
 90  2 23  5 56 59.0800000  0  4G 6G 9G11G13
  20960819.289    20960823.715     5982855.977 9  -5016205.715 7
  20459091.260    20459096.399    -8536346.468 7  -8039556.675 7
  20900565.731    20900570.255      494988.729 9   -992939.249 7
  21363412.719    21363420.274   -12733278.225 8 -11154463.235 7
 90  2 23  5 57 14.0800000  0  4G 6G 9G11G13
  20966073.710    20966078.512     6010464.978 9  -4994692.207 7
  20456872.037    20456874.578    -8548011.095 7  -8048645.994 7
  20903809.970    20903813.768      512040.269 8   -979652.336 8
  21358312.031    21358317.290   -12760086.928 9 -11175353.115 7
 90  2 23  5 57 29.0800000  0  4G 6G 9G11G13
  20971354.122    20971357.460     6038213.065 9  -4973070.322 8
  20454678.883    20454683.104    -8559532.366 8  -8057623.610 7
  20907072.807    20907078.326      529182.717 9   -966294.588 8
  21353230.599    21353237.502   -12786785.134 8 -11196156.896 7
 90  2 23  5 57 44.0800000  0  4G 6G 9G11G13
  20976661.262    20976664.860     6066100.212 9  -4951340.082 7
  20452513.058    20452519.456    -8570910.069 8  -8066489.348 8
  20910351.762    20910356.189      546415.607 9   -952866.359 6
  21348172.425    21348176.863   -12813373.065 8 -11216874.746 7
 90  2 23  5 57 59.0800000  0  4G 6G 9G11G13
  20981993.595    20981998.169     6094126.557 8  -4929501.390 7
  20450376.246    20450381.642    -8582143.851 7  -8075242.942 7
  20913647.768    20913653.347      563739.014 9   -939367.589 8
  21343132.369    21343138.538   -12839850.410 9 -11237506.423 7
 90  2 23  5 58 14.0800000  0  4G 6G 9G11G13
  20987353.507    20987356.777     6122291.493 9  -4907554.680 7
  20448266.441    20448269.263    -8593233.685 7  -8083884.356 8
  20916961.436    20916966.780      581152.356 9   -925798.764 7
  21338114.861    21338120.058   -12866217.456 8 -11258052.159 6
 90  2 23  5 58 29.0800000  0  4G 6G 9G11G13
  20992740.053    20992743.292     6150595.538 9  -4885499.602 7
  20446181.459    20446187.336    -8604178.904 8  -8092413.115 8
  20920293.161    20920298.992      598655.830 9   -912159.689 8
  21333119.559    21333124.288   -12892473.724 8 -11278511.562 6
 90  2 23  5 58 44.0800000  0  4G 6G 9G11G13
  20998151.876    20998156.154     6179038.374 9  -4863336.357 7
  20444126.753    20444132.139    -8614979.764 9  -8100829.339 7
  20923641.654    20923645.154      616248.662 9   -898450.988 6
  21328144.849    21328149.751   -12918619.545 8 -11298884.911 8
 90  2 23  5 58 59.0800000  0  4G 6G 9G11G13
  21003590.353    21003595.603     6207620.046 9  -4841064.934 7
  20442101.773    20442104.036    -8625635.455 8  -8109132.481 7
  20927005.431    20927009.832      633931.070 8   -884672.474 8
  21323189.682    21323195.964   -12944654.542 8 -11319171.911 8
 90  2 23  5 59 14.0800000  0  4G 6G 9G11G13
  21009055.633    21009060.646     6236340.064 8  -4818685.705 6
  20440099.079    20440104.662    -8636146.071 7  -8117322.587 7
  20930387.036    20930390.476      651702.717 8   -870824.435 8
  21318256.511    21318261.633   -12970578.886 9 -11339372.683 7
 90  2 23  5 59 29.0800000  0  4G 6G 9G11G13
  21014547.517    21014553.159     6265198.575 9  -4796198.561 7
  20438127.850    20438132.896    -8646511.459 8  -8125399.485 7
  20933786.131    20933791.816      669563.258 8   -856907.136 7
  21313344.257    21313350.003   -12996392.618 8 -11359487.268 7
 90  2 23  5 59 44.0800000  0  4G 6G 9G11G13
  21020065.639    21020069.992     6294195.376 9  -4773603.665 8
  20436183.252    20436187.941    -8656731.512 9  -8133363.165 8
  20937201.992    20937206.850      687512.191 8   -842920.957 8
  21308453.864    21308457.534   -13022095.989 8 -11379515.848 7
 90  2 23  5 59 59.0800000  0  4G 6G 9G11G13
  21025609.616    21025614.614     6323330.292 8  -4750901.152 6
  20434266.384    20434269.786    -8666805.656 7  -8141213.153 7
  20940634.395    20940637.968      705549.358 8   -828866.024 8
  21303582.942    21303590.111   -13047688.605 8 -11399458.145 7
 90  2 23  6  0 14.0800000  0  4G 6G 9G11G13
  21031179.057    21031184.941     6352603.026 9  -4728091.231 8
  20432376.663    20432380.645    -8676734.160 7  -8148949.624 8
  20944083.514    20944088.137      723674.417 8   -814742.581 8
  21298734.741    21298738.896   -13073170.603 8 -11419314.211 8
 90  2 23  6  0 29.0800000  0  4G 6G 9G11G13
  21036777.360    21036781.400     6382013.699 8  -4705173.848 6
  20430515.861    20430518.991    -8686516.505 7  -8156572.226 8
  20947548.257    20947553.040      741887.106 8   -800550.877 8
  21293906.691    21293911.572   -13098542.078 9 -11439084.188 7
 90  2 23  6  0 44.0800000  0  4G 6G 9G11G13
  21042399.414    21042403.291     6411561.868 9  -4682149.302 7
  20428681.412    20428685.059    -8696152.744 8  -8164080.978 8
  20951030.486    20951037.506      760187.017 9   -786291.211 8
  21289098.481    21289105.192   -13123803.115 8 -11458768.097 7
 90  2 23  6  0 59.0800000  0  4G 6G 9G11G13
  21048048.349    21048052.871     6441247.709 9  -4659017.493 7
  20426874.890    20426879.688    -8705642.405 7  -8171475.530 7
  20954528.336    20954533.954      778574.071 9   -771963.642 7
  21284313.254    21284318.380   -13148953.488 8 -11478365.772 7
 90  2 23  6  1 14.0800000  0  4G 6G 9G11G13
  21053723.404    21053728.555     6471071.006 9  -4635778.566 7
  20425096.242    20425101.628    -8714985.276 8  -8178755.692 6
  20958044.855    20958049.451      797047.921 9   -757568.428 7
  21279548.458    21279552.404   -13173993.292 9 -11497877.286 7
 90  2 23  6  1 29.0800000  0  4G 6G 9G11G13
  21059424.854    21059428.454     6501031.820 9  -4612432.483 7
  20423347.953    20423351.552    -8724181.048 8  -8185921.207 8
  20961578.223    20961581.663      815608.420 7   -743105.691 7
  21274805.289    21274808.853   -13198922.077 9 -11517302.302 7
 90  2 23  6  1 44.0800000  0  4G 6G 9G11G13
  21065152.851    21065155.988     6531130.284 9  -4588979.156 7
  20421626.297    20421630.958    -8733229.309 8  -8192971.791 7
  20965125.613    20965131.491      834255.554 8   -728575.474 7
  21270082.232    21270087.544   -13223739.759 9 -11536640.743 7
 90  2 23  6  1 59.0800000  0  4G 6G 9G11G13
  21070905.970    21070911.339     6561366.022 9  -4565418.849 8
  20419932.346    20419937.485    -8742130.089 8  -8199907.461 7
  20968689.748    20968695.379      852988.685 8   -713978.235 8
  21265379.467    21265385.839   -13248446.930 8 -11555893.060 7
 90  2 23  6  2 14.0800000  0  4G 6G 9G11G13
  21076686.071    21076689.858     6591739.185 9  -4541751.470 7
  20418266.437    20418269.998    -8750882.939 8  -8206727.871 7
  20972271.540    20972276.413      871807.929 8   -699313.879 7
  21260700.436    21260704.954   -13273042.948 9 -11575058.774 7
 90  2 23  6  2 29.0800000  0  4G 6G 9G11G13
  21082491.846    21082497.629     6622249.092 9  -4517977.520 6
  20416629.079    20416631.636    -8759487.832 8  -8213432.975 7
  20975869.645    20975874.184      890712.639 8   -684582.926 8
  21256040.284    21256046.807   -13297528.429 8 -11594138.366 7
 90  2 23  6  2 44.0800000  0  4G 6G 9G11G13
  21088323.490    21088328.702     6652895.974 9  -4494096.844 7
  20415018.667    20415024.971    -8767944.532 7  -8220022.602 8
  20979481.885    20979487.832      909702.864 7   -669785.355 6
  21251403.262    21251406.767   -13321903.049 9 -11613131.558 7
 90  2 23  6  2 59.0800000  0  4G 6G 9G11G13
  21094181.604    21094185.558     6683679.708 9  -4470109.527 6
  20413438.738    20413441.909    -8776252.815 7  -8226496.606 7
  20983112.298    20983118.290      928778.194 9   -654921.474 8
  21246784.883    21246791.295   -13346166.958 9 -11632038.483 7
 90  2 23  6  3 14.0800000  0  4G 6G 9G11G13
  21100066.551    21100070.008     6714599.873 9  -4446015.913 8
  20411886.295    20411890.097    -8784412.714 7  -8232854.951 7
  20986758.913    20986764.244      947938.013 9   -639991.758 7
  21242188.780    21242193.387   -13370320.379 9 -11650859.325 6
 90  2 23  6  3 29.0800000  0  4G 6G 9G11G13
  21105976.309    21105978.645     6745656.520 9  -4421815.939 7
  20410360.847    20410365.424    -8792423.783 7  -8239097.353 7
  20990421.354    20990425.554      967182.409 9   -624996.102 8
  21237613.170    21237618.855   -13394362.872 8 -11669593.719 7
 90  2 23  6  3 44.0800000  0  4G 6G 9G11G13
  21111912.184    21111915.832     6776849.385 9  -4397509.819 7
  20408864.798    20408869.349    -8800286.042 7  -8245223.776 7
  20994099.072    20994103.617      986510.892 8   -609934.965 8
  21233057.642    21233065.076   -13418294.576 9 -11688241.801 8
 90  2 23  6  3 59.0800000  0  4G 6G 9G11G13
  21117872.049    21117878.157     6808178.427 8  -4373097.571 6
  20407397.084    20407402.076    -8807998.894 8  -8251233.782 7
  20997792.731    20997799.048     1005923.353 8   -594808.369 8
  21228525.086    21228532.275   -13442115.181 9 -11706803.303 7
 90  2 23  6  4 14.0800000  0  4G 6G 9G11G13
  21123861.029    21123866.131     6839643.808 8  -4348579.112 7
  20405958.280    20405962.264    -8815562.251 9  -8257127.290 7
  21001502.620    21001507.620     1025419.775 8   -579616.341 7
  21224012.830    21224020.228   -13465824.793 9 -11725278.306 7
 90  2 23  6  4 29.0800000  0  4G 6G 9G11G13
  21129875.560    21129879.989     6871245.235 9  -4323954.646 7
  20404548.522    20404550.294    -8822976.017 8  -8262904.255 7
  21005227.821    21005234.436     1044999.513 8   -564359.413 7
  21219524.170    21219528.739   -13489423.789 9 -11743667.118 6
 90  2 23  6  4 44.0800000  0  4G 6G 9G11G13
  21135914.095    21135919.314     6902982.241 9  -4299224.528 7
  20403166.080    20403169.346    -8830240.168 8  -8268564.626 6
  21008971.537    21008974.888     1064662.174 8   -549037.853 7
  21215053.856    21215057.757   -13512912.146 8 -11761969.716 8
 90  2 23  6  4 59.0800000  0  4G 6G 9G11G13
  21141979.789    21141983.057     6934854.791 9  -4274388.792 7
  20401811.370    20401815.766    -8837354.276 8  -8274108.097 8
  21012728.499    21012732.399     1084407.634 8   -533651.780 7
  21210605.643    21210610.351   -13536289.636 9 -11780185.938 7
 90  2 23  6  5 14.0800000  0  4G 6G 9G11G13
  21148070.457    21148075.275     6966862.786 9  -4249447.490 6
  20400486.690    20400490.196    -8844318.004 8  -8279534.375 8
  21016501.664    21016506.792     1104235.797 9   -518201.258 7
  21206178.737    21206183.965   -13559556.290 9 -11798315.772 7
 90  2 23  6  5 29.0800000  0  4G 6G 9G11G13
  21154186.880    21154191.146     6999006.050 9  -4224400.808 7
  20399191.225    20399193.222    -8851131.477 7  -8284843.575 7
  21020290.566    21020294.204     1124146.120 8   -502686.734 7
  21201771.876    21201776.467   -13582712.248 9 -11816359.376 7
 90  2 23  6  5 44.0800000  0  4G 6G 9G11G13
  21160329.050    21160333.554     7031284.582 9  -4199248.713 7
  20397922.258    20397927.505    -8857794.571 8  -8290035.592 7
  21024095.180    21024100.513     1144138.284 9   -487108.419 8
  21197386.802    21197390.936   -13605757.334 8 -11834316.549 7
 90  2 23  6  5 59.0800000  0  4G 6G 9G11G13
  21166496.973    21166502.209     7063697.980 9  -4173991.551 8
  20396682.867    20396685.847    -8864307.164 8  -8295110.341 7
  21027914.362    21027919.364     1164211.995 9   -471466.576 8
  21193021.505    21193026.894   -13628691.931 9 -11852187.676 7
 90  2 23  6  6 14.0800000  0  4G 6G 9G11G13
  21172689.998    21172696.232     7096246.138 9  -4148629.338 8
  20395471.303    20395476.050    -8870668.693 7  -8300067.376 6
  21031750.055    21031754.467     1184367.178 9   -455761.239 8
  21188678.365    21188683.409   -13651515.815 9 -11869972.487 7
 90  2 23  6  6 29.0800000  0  4G 6G 9G11G13
  21178909.058    21178914.533     7128928.845 8  -4123162.314 7
  20394289.540    20394295.014    -8876879.261 7  -8304906.779 8
  21035599.744    21035604.084     1204603.366 8   -439992.775 7
  21184355.237    21184360.120   -13674229.094 9 -11887671.145 7
 90  2 23  6  6 44.0800000  0  4G 6G 9G11G13
  21185155.534    21185160.725     7161746.319 8  -4097590.279 8
  20393137.052    20393141.501    -8882938.323 8  -8309628.116 8
  21039466.260    21039471.676     1224920.627 8   -424161.153 7
  21180055.166    21180060.970   -13696831.593 8 -11905283.458 7
 90  2 23  6  6 59.0800000  0  4G 6G 9G11G13
  21191425.405    21191431.235     7194698.419 9  -4071913.320 7
  20392013.491    20392016.884    -8888845.747 8  -8314231.305 8
  21043348.403    21043352.600     1245318.713 9   -408266.550 8
  21175774.430    21175780.461   -13719323.091 9 -11922809.291 8
 90  2 23  6  7 14.0800000  0  4G 6G 9G11G13
  21197720.700    21197726.107     7227784.615 9  -4046131.884 7
  20390917.866    20390921.241    -8894601.538 7  -8318716.342 7
  21047245.796    21047250.569     1265796.938 8   -392309.475 6
  21171516.380    21171521.683   -13741704.041 8 -11940248.969 7
 90  2 23  6  7 29.0800000  0  4G 6G 9G11G13
  21204042.798    21204047.761     7261004.803 8  -4020246.037 7
  20389851.680    20389854.707    -8900205.636 7  -8323083.170 7
  21051157.528    21051162.460     1286355.036 8   -376290.190 8
  21167278.673    21167283.430   -13763974.584 9 -11957602.630 8
 90  2 23  6  7 44.0800000  0  4G 6G 9G11G13
  21210389.289    21210393.227     7294358.929 9  -3994255.813 7
  20388813.304    20388818.476    -8905657.741 8  -8327331.550 6
  21055084.777    21055089.017     1306993.023 9   -360208.633 7
  21163061.511    21163065.603   -13786134.290 9 -11974869.920 7
 90  2 23  6  7 59.0800000  0  4G 6G 9G11G13
  21216763.301    21216768.107     7327847.182 9  -3968161.080 8
  20387805.564    20387810.153    -8910957.209 8  -8331461.009 7
  21059027.043    21059032.516     1327710.831 9   -344064.876 7
  21158866.199    21158871.298   -13808183.008 8 -11992050.737 7
 90  2 23  6  8 14.0800000  0  4G 6G 9G11G13
  21223160.380    21223166.382     7361468.758 9  -3941962.466 7
  20386824.775    20386828.796    -8916104.669 9  -8335472.027 7
  21062984.882    21062989.351     1348507.399 9   -327859.769 8
  21154690.141    21154695.725   -13830121.469 9 -12009145.624 7
 90  2 23  6  8 29.0800000  0  4G 6G 9G11G13
  21229584.491    21229590.049     7395223.799 9  -3915659.850 7
  20385876.531    20385878.980    -8921099.467 8  -8339364.074 8
  21066958.031    21066961.912     1369383.018 9   -311593.053 8
  21150537.637    21150541.232   -13851949.341 9 -12026154.358 6
 90  2 23  6  8 44.0800000  0  4G 6G 9G11G13
  21236033.837    21236037.539     7429112.304 9  -3889253.229 6
  20384954.520    20384958.220    -8925941.393 8  -8343136.997 8
  21070944.311    21070950.587     1390337.507 8   -295264.874 7
  21146405.235    21146408.804   -13873666.396 8 -12043076.723 7
 90  2 23  6  8 59.0800000  0  4G 6G 9G11G13
  21242507.550    21242512.172     7463134.040 9  -3862742.792 8
  20384061.144    20384064.472    -8930630.272 7  -8346790.668 7
  21074947.024    21074951.997     1411370.575 9   -278875.474 8
  21142293.334    21142298.210   -13895272.904 8 -12059912.957 7
 90  2 23  6  9 14.0800000  0  4G 6G 9G11G13
  21249006.933    21249011.490     7497288.841 8  -3836128.689 6
  20383198.584    20383202.211    -8935165.962 8  -8350324.967 6
  21078965.218    21078970.316     1432481.877 9   -262425.097 7
  21138202.395    21138206.092   -13916769.109 9 -12076663.231 7
 90  2 23  6  9 29.0800000  0  4G 6G 9G11G13
  21255531.324    21255536.602     7531576.460 9  -3809411.071 7
  20382364.950    20382369.638    -8939548.174 8  -8353739.686 7
  21082996.347    21083001.461     1453671.066 8   -245914.046 8
  21134132.586    21134139.090   -13938154.564 9 -12093327.205 7
 90  2 23  6  9 44.0800000  0  4G 6G 9G11G13
  21262081.609    21262085.802     7565996.919 9  -3782589.941 8
  20381561.217    20381564.344    -8943776.804 8  -8357034.709 7
  21087043.275    21087049.575     1474938.035 9   -229342.393 7
  21130084.548    21130087.906   -13959429.160 9 -12109904.801 7
 90  2 23  6  9 59.0800000  0  4G 6G 9G11G13
  21268656.342    21268660.425     7600549.463 9  -3755665.889 7
  20380784.894    20380789.493    -8947852.245 9  -8360210.381 7
  21091106.028    21091111.499     1496281.859 8   -212710.834 8
  21126055.909    21126063.287   -13980593.885 9 -12126396.794 7
 90  2 23  6 10 14.0800000  0  4G 6G 9G11G13
  21275257.082    21275261.649     7635234.070 9  -3728638.931 8
  20380037.688    20380044.005    -8951774.012 8  -8363266.306 7
  21095182.228    21095186.642     1517702.644 9   -196019.317 8
  21122050.357    21122054.206   -14001648.241 9 -12142802.760 7
 90  2 23  6 10 29.0800000  0  4G 6G 9G11G13
  21281881.561    21281886.393     7670050.651 9  -3701509.149 7
  20379321.176    20379324.690    -8955542.153 7  -8366202.527 7
  21099272.711    21099277.097     1539199.971 8   -179268.142 8
  21118065.205    21118070.563   -14022592.263 8 -12159122.768 7
 90  2 23  6 10 44.0800000  0  4G 6G 9G11G13
  21288533.108    21288538.042     7704999.227 9  -3674276.507 8
  20378633.946    20378637.644    -8959156.117 7  -8369018.613 7
  21103377.991    21103382.805     1560773.796 9   -162457.373 7
  21114100.515    21114105.820   -14043425.798 9 -12175356.686 7
 90  2 23  6 10 59.0800000  0  4G 6G 9G11G13
  21295207.837    21295213.351     7740079.357 9  -3646941.353 8
  20377975.004    20377978.383    -8962615.736 8  -8371714.412 7
  21107496.032    21107502.138     1582423.605 8   -145587.398 8
  21110156.804    21110161.865   -14064149.254 8 -12191504.801 7
 90  2 23  6 11 14.0800000  0  4G 6G 9G11G13
  21301908.825    21301912.762     7775291.100 9  -3619503.645 7
  20377345.822    20377350.275    -8965921.131 8  -8374290.033 6
  21111631.535    21111636.562     1604149.328 8   -128658.254 7
  21106233.603    21106240.000   -14084762.434 9 -12207567.025 7
 90  2 23  6 11 29.0800000  0  4G 6G 9G11G13
  21308635.565    21308638.735     7810634.329 9  -3591963.476 7
  20376745.916    20376750.675    -8969071.763 8  -8376745.087 7
  21115780.285    21115784.551     1625950.733 9   -111670.158 7
  21102333.072    21102337.669   -14105265.241 8 -12223543.222 7
 90  2 23  6 11 44.0800000  0  4G 6G 9G11G13
  21315385.926    21315389.930     7846108.542 9  -3564321.225 7
  20376175.398    20376180.326    -8972067.892 8  -8379079.738 7
  21119943.689    21119948.188     1647827.288 9    -94623.480 8
  21098452.124    21098457.148   -14125658.136 8 -12239433.784 7
 90  2 23  6 11 59.0800000  0  4G 6G 9G11G13
  21322160.955    21322166.232     7881713.737 9  -3536576.936 7
  20375634.984    20375639.704    -8974909.307 8  -8381293.816 7
  21124120.026    21124125.771     1669778.951 9    -77518.284 8
  21094592.620    21094598.026   -14145941.011 9 -12255238.596 7
 90  2 23  6 12 14.0800000  0  4G 6G 9G11G13
  21328960.580    21328964.723     7917449.811 8  -3508730.650 7
  20375123.665    20375128.719    -8977595.425 7  -8383386.890 6
  21128312.048    21128316.148     1691805.310 9    -60354.894 8
  21090753.299    21090759.980   -14166113.604 8 -12270957.505 6
 90  2 23  6 12 29.0800000  0  4G 6G 9G11G13
  21335785.880    21335791.197     7953316.517 9  -3480782.599 7
  20374641.719    20374646.928    -8980126.212 7  -8385358.933 7
  21132518.582    21132522.464     1713906.078 9    -43133.512 7
  21086934.185    21086940.109   -14186176.161 8 -12286590.650 8
 90  2 23  6 12 44.0800000  0  4G 6G 9G11G13
  21342636.572    21342640.445     7989313.539 9  -3452732.976 7
  20374191.041    20374194.639    -8982502.101 9  -8387210.269 7
  21136736.557    21136742.502     1736080.910 8    -25854.430 8
  21083138.488    21083144.653   -14206128.816 8 -12302138.169 6
 90  2 23  6 12 59.0800000  0  4G 6G 9G11G13
  21349511.755    21349515.115     8025440.924 9  -3424581.776 8
  20373768.399    20373771.283    -8984722.451 8  -8388940.412 7
  21140970.361    21140977.337     1758329.794 8     -8517.628 8
  21079362.629    21079368.855   -14225971.270 8 -12317599.807 6
 90  2 23  6 13 14.0800000  0  4G 6G 9G11G13
  21356411.510    21356415.198     8061698.414 9  -3396329.200 7
  20373374.013    20373379.027    -8986787.023 7  -8390549.178 7
  21145218.734    21145222.674     1780652.557 9      8876.729 7
  21075608.060    21075614.430   -14245703.510 9 -12332975.567 7
 90  2 23  6 13 29.0800000  0  4G 6G 9G11G13
  21363335.475    21363340.001     8098085.899 9  -3367975.318 7
  20373011.821    20373014.776    -8988695.793 8  -8392036.536 7
  21149481.385    21149485.727     1803048.802 8     26328.333 8
  21071874.802    21071878.186   -14265325.843 9 -12348265.675 5
 90  2 23  6 13 44.0800000  0  4G 6G 9G11G13
  21370284.641    21370288.663     8134603.157 8  -3339520.329 7
  20372679.400    20372682.496    -8990448.540 7  -8393402.293 7
  21153756.371    21153762.776     1825518.237 9     43836.983 7
  21068159.858    21068166.309   -14284838.414 8 -12363470.272 7
 90  2 23  6 13 59.0800000  0  4G 6G 9G11G13
  21377257.064    21377261.905     8171249.869 9  -3310964.459 7
  20372375.926    20372380.510    -8992045.181 8  -8394646.437 6
  21158046.468    21158051.495     1848060.462 9     61402.364 8
  21064467.999    21064473.566   -14304241.190 9 -12378589.305 6
 90  2 23  6 14 14.0800000  0  4G 6G 9G11G13
  21384255.523    21384260.888     8208025.885 8  -3282307.840 7
  20372100.079    20372105.165    -8993485.808 7  -8395768.994 7
  21162349.213    21162355.118     1870675.197 8     79024.232 8
  21060797.309    21060802.337   -14323534.203 9 -12393622.818 7
 90  2 23  6 14 29.0800000  0  4G 6G 9G11G13
  21391279.379    21391282.458     8244930.844 9  -3253550.744 7
  20371856.352    20371858.855    -8994769.999 7  -8396769.669 7
  21166667.356    21166672.586     1893362.053 9     96702.310 8
  21057145.947    21057151.306   -14342717.613 8 -12408570.922 8
 90  2 23  6 14 44.0800000  0  4G 6G 9G11G13
  21398327.416    21398329.113     8281964.750 9  -3224693.171 8
  20371641.884    20371644.020    -8995897.912 7  -8397648.557 7
  21170998.093    21171002.992     1916120.857 9    114436.437 8
  21053517.629    21053521.061   -14361791.291 9 -12423433.504 7
 90  2 23  6 14 59.0800000  0  4G 6G 9G11G13
  21405398.922    21405402.951     8319127.550 9  -3195735.144 7
  20371457.428    20371459.734    -8996868.867 8  -8398405.154 6
  21175343.679    21175346.616     1938951.590 9    132226.632 7
  21049907.125    21049912.723   -14380754.864 8 -12438210.311 7
 90  2 23  6 15 14.0800000  0  4G 6G 9G11G13
  21412493.962    21412497.897     8356418.912 9  -3166676.964 7
  20371301.900    20371305.796    -8997683.091 6  -8399039.607 7
  21179701.057    21179706.903     1961853.812 9    150072.508 7
  21046320.415    21046326.011   -14399608.842 9 -12452901.695 7
 90  2 23  6 15 29.0800000  0  4G 6G 9G11G13
  21419615.200    21419618.796     8393838.267 9  -3137519.033 7
  20371177.315    20371181.629    -8998340.807 8  -8399552.124 7
  21184072.288    21184078.609     1984826.775 9    167973.515 8
  21042753.959    21042760.201   -14418353.717 8 -12467508.088 7
 90  2 23  6 15 44.0800000  0  4G 6G 9G11G13
  21426759.904    21426764.845     8431385.869 9  -3108261.176 7
  20371082.566    20371085.054    -8998841.480 8  -8399942.245 7
  21188457.168    21188462.171     2007870.805 9    185929.903 7
  21039207.798    21039212.570   -14436988.841 9 -12482028.956 7
 90  2 23  6 15 59.0800000  0  4G 6G 9G11G13
  21433928.741    21433933.888     8469061.185 9  -3078903.802 7
  20371015.879    20371020.045    -8999185.175 8  -8400210.060 7
  21192855.986    21192860.103     2030985.204 9    203941.118 7
  21035681.698    21035686.585   -14455514.583 9 -12496464.583 7
 90  2 23  6 16 14.0800000  0  4G 6G 9G11G13
  21441123.608    21441126.778     8506864.186 9  -3049446.937 7
  20370980.468    20370983.761    -8999371.627 7  -8400355.346 7
  21197266.766    21197272.511     2054169.872 8    222007.091 7
  21032177.867    21032182.985   -14473930.779 9 -12510814.858 6
 90  2 23  6 16 29.0800000  0  4G 6G 9G11G13
  21448340.764    21448344.984     8544794.606 9  -3019890.774 8
  20370975.245    20370978.740    -8999400.697 8  -8400377.988 8
  21201693.144    21201697.816     2077424.420 9    240127.521 8
  21028693.262    21028700.389   -14492237.886 8 -12525080.124 7
 90  2 23  6 16 44.0800000  0  4G 6G 9G11G13
  21455583.184    21455586.405     8582852.225 8  -2990235.498 7
  20370997.935    20371003.990    -8999272.335 7  -8400277.970 7
  21206130.741    21206137.559     2100748.731 9    258302.312 8
  21025230.646    21025235.647   -14510436.010 8 -12539260.495 6
 90  2 23  6 16 59.0800000  0  4G 6G 9G11G13
  21462849.305    21462854.804     8621036.991 9  -2960481.144 7
  20371055.096    20371058.139    -8998986.284 7  -8400055.082 7
  21210584.021    21210587.286     2124142.536 9    276531.249 8
  21021789.552    21021793.601   -14528524.864 9 -12553355.671 6
 90  2 23  6 17 14.0800000  0  3G 6G11G13
  21470140.690    21470143.493     8659348.452 9  -2930628.064 7
  21215048.057    21215052.857     2147605.361 8    294813.969 7
  21018367.098    21018371.938   -14546504.413 7 -12567365.720 7
 90  2 23  6 17 29.0800000  0  3G 6G11G13
  21477454.770    21477458.411     8697786.825 9  -2900676.109 8
  21219525.688    21219531.408     2171137.298 8    313150.541 8
  21014966.159    21014972.969   -14564374.657 8 -12581290.568 7
 90  2 23  6 17 44.0800000  0  4G 6G12G11G13
  21484792.961    21484797.976     8736351.654 9  -2870625.598 8
                  20371772.323   -35360102.735 1
  21224017.062    21224021.934     2194738.007 8    331540.708 8
  21011587.254    21011591.329   -14582135.855 8 -12595130.421 7
 90  2 23  6 17 59.0800000  0  4G 6G12G11G13
  21492155.328    21492159.776     8775042.692 9  -2840476.751 9
                  20370407.037   -35456098.610 1
  21228520.479    21228526.292     2218406.984 8    349984.064 8
  21008227.707    21008231.627   -14599788.231 8 -12608885.513 7
 90  2 23  6 18 14.0800000  0  4G 6G12G11G13
  21499541.970    21499547.994     8813859.638 9  -2810229.804 8
                  20371537.399   -35541422.093 1
  21233038.375    21233043.937     2242143.937 7    368480.390 7
  21004888.654    21004893.471   -14617331.669 8 -12622555.723 7
 90  2 23  6 18 29.0800000  0  4G 6G12G11G13
  21506953.023    21506958.404     8852802.429 9  -2779884.784 8
                  20388533.608   -35541422.296 1
  21237567.209    21237572.767     2265948.710 7    387029.557 7
  21001570.606    21001576.782   -14634766.079 7 -12636140.964 8
 90  2 23  6 18 44.0800000  0  4G 6G12G11G13
  21514386.722    21514391.791     8891870.652 9  -2749442.015 8
                  20409542.848   -35541282.906 1
  21242110.723    21242114.876     2289820.850 8    405631.238 7
  20998274.201    20998279.582   -14652091.860 8 -12649641.557 7
 90  2 23  6 18 59.0800000  0  4G 6G12G11G13
  21521845.305    21521850.237     8931064.232 9  -2718901.581 8
                  20430401.966   -35541003.922 1
  21246665.824    21246671.012     2313760.131 8    424285.215 7
  20994997.390    20995002.395   -14669308.960 7 -12663057.467 7
 90  2 23  6 19 14.0800000  0  4G 6G12G11G13
  21529327.150    21529332.445     8970382.696 8  -2688263.833 8
                  20450936.742   -35540585.345 1
  21251235.581    21251238.677     2337766.199 9    442991.232 8
  20991743.146    20991746.428   -14686417.396 8 -12676388.719 6
 90  2 23  6 19 29.0800000  0  4G 6G12G11G13
  21536833.835    21536838.031     9009826.108 9  -2657528.722 8
                  20471761.175   -35540027.173 1
  21255816.413    21255820.254     2361838.952 8    461749.233 8
  20988507.198    20988512.655   -14703417.419 8 -12689635.484 7
 90  2 23  6 19 44.0800000  0  4G 6G12G11G13
  21544364.005    21544368.186     9049393.885 8  -2626696.693 8
                  20492466.202   -35539329.407 1
  21260408.547    21260414.149     2385977.800 8    480558.715 8
  20985293.456    20985299.118   -14720309.370 8 -12702798.013 8
 90  2 23  6 19 59.0800000  0  4G 6G12G11G13
  21551916.347    21551920.288     9089085.886 9  -2595767.879 7
                  20513197.339   -35538492.048 1
  21265014.675    21265019.677     2410182.375 8    499419.432 8
  20982098.726    20982103.662   -14737093.026 8 -12715876.178 7
 90  2 23  6 20 14.0800000  0  4G 6G12G11G13
  21559492.685    21559498.172     9128901.758 9  -2564742.535 8
                  20533662.316   -35537515.095 1
  21269632.682    21269637.671     2434452.473 7    518331.190 8
  20978926.578    20978930.603   -14753768.495 7 -12728870.045 8
 90  2 23  6 20 29.0800000  0  4G 6G12G11G13
  21567093.746    21567097.490     9168841.481 9  -2533620.691 9
                  20554358.767   -35536398.549 1
  21274262.995    21274269.669     2458787.933 8    537293.884 8
  20975773.287    20975778.901   -14770335.767 7 -12741779.610 8
 90  2 23  6 20 44.0800000  0  4G 6G12G11G13
  21574717.291    21574721.680     9208905.225 9  -2502402.203 7
                  20574788.843   -35535142.408 1
  21278907.217    21278912.472     2483189.021 8    556307.717 7
  20972640.633    20972645.541   -14786794.682 7 -12754604.715 7
 90  2 23  6 20 59.0800000  0  4G 6G12G11G13
  21582365.075    21582369.839     9249092.476 9  -2471087.472 8
                  20595597.121   -35533746.673 1
  21283562.509    21283567.357     2507655.084 9    575372.173 9
  20969530.031    20969536.694   -14803145.503 8 -12767345.602 8
 90  2 23  6 21 14.0800000  0  4G 6G12G11G13
  21590035.375    21590041.532     9289402.803 9  -2439676.847 7
                  20616724.913   -35532211.345 1
  21288230.315    21288236.360     2532185.669 9    594486.915 8
  20966439.538    20966444.482   -14819388.402 9 -12780002.402 7
 90  2 23  6 21 29.0800000  0  4G 6G12G11G13
  21597729.252    21597733.504     9329835.969 9  -2408170.486 9
                  20637058.927   -35530536.422 1
  21292910.879    21292916.150     2556780.509 8    613651.733 8
  20963369.399    20963374.593   -14835523.458 8 -12792575.168 7
 90  2 23  6 21 44.0800000  0  4G 6G12G11G13
  21605447.321    21605451.655     9370392.057 9  -2376568.359 8
                  20657360.592   -35528721.907 1
  21297603.977    21297607.207     2581439.689 8    632866.672 8
  20960318.921    20960324.795   -14851550.583 8 -12805063.821 8
 90  2 23  6 21 59.0800000  0  4G 6G12G11G13
  21613188.064    21613191.982     9411070.870 9  -2344870.596 8
                  23830122.880   -36887075.298 9
  21302308.272    21302314.517     2606162.820 9    652131.446 7
  20957290.050    20957294.675   -14867469.585 8 -12817468.237 8
 90  2 23  6 22 14.0800000  0  4G 6G12G11G13
  21620952.486    21620956.574     9451872.013 9  -2313077.527 7
                  22023629.749   -36927663.719 9
  21307025.134    21307030.396     2630949.491 9    671445.736 7
  20954279.936    20954286.099   -14883280.774 9 -12829788.635 7
 90  2 23  6 22 29.0800000  0  4G 6G12G11G13
  21628739.921    21628745.196     9492795.342 9  -2281189.233 8
                  22015971.398   -36967968.574 3
  21311753.521    21311759.155     2655799.542 8    690809.418 7
  20951292.975    20951296.562   -14898984.313 8 -12842025.150 7
 90  2 23  6 22 44.0800000  0  3G 6G11G13
  21636551.097    21636556.232     9533840.168 9  -2249206.255 8
  21316495.326    21316498.833     2680712.226 8    710221.892 7
  20948324.645    20948328.738   -14914580.545 9 -12854178.051 8
 90  2 23  6 22 59.0800000  0  4G 6G12G11G13
  21644383.284    21644388.418     9575006.675 9  -2217128.470 8
                  22000546.245   -37162613.796 9
  21321247.122    21321252.748     2705687.742 9    729683.333 7
  20945377.914    20945382.171   -14930069.283 8 -12866247.200 7
 90  2 23  6 23 14.0800000  0  4G 6G12G11G13
  21652240.590    21652244.716     9616294.688 9  -2184956.015 8
  21992912.769    21992918.628   -37202891.547 9  47257480.151 7
  21326012.827    21326017.752     2730725.827 8    749193.522 7
  20942449.895    20942456.013   -14945450.598 8 -12878232.628 7
 90  2 23  6 23 29.0800000  0  4G 6G12G11G13
  21660120.827    21660125.446     9657703.784 9  -2152689.188 8
  21985264.133    21985268.809   -37243090.511 9  47226156.277 8
  21330788.234    21330792.486     2755826.183 9    768752.239 7
  20939544.135    20939548.883   -14960724.492 8 -12890134.343 6
 90  2 23  6 23 44.0800000  0  4G 6G12G11G13
  21668023.736    21668027.133     9699233.437 9  -2120328.439 7
  21977629.138    21977632.608   -37283210.888 9  47194893.645 8
  21335576.891    21335582.831     2780988.083 9    788358.914 8
  20936657.552    20936662.840   -14975891.528 9 -12901952.809 7
 90  2 23  6 23 59.0800000  0  4G 6G12G11G13
  21675948.525    21675954.024     9740883.738 9  -2087873.667 8
  21970009.497    21970013.804   -37323251.936 9  47163692.838 9
  21340376.595    21340381.519     2806211.659 9    808013.647 9
  20933791.729    20933795.507   -14990951.416 9 -12913687.775 7
 90  2 23  6 24 14.0800000  0  4G 6G12G11G13
  21683897.431    21683902.874     9782654.346 9  -2055325.163 8
  21962404.190    21962409.223   -37363213.509 9  47132553.957 8
  21345187.603    21345194.659     2831496.454 8    827716.073 8
  20930946.313    20930951.408   -15005904.354 9 -12925339.411 6
 90  2 23  6 24 29.0800000  0  4G 6G12G11G13
  21691870.034    21691874.603     9824545.038 9  -2022683.079 8
  21954814.866    21954820.540   -37403095.119 9  47101477.399 8
  21350009.858    21350016.986     2856842.252 9    847466.052 8
  20928120.273    20928126.352   -15020750.442 9 -12936907.785 7
 90  2 23  6 24 44.0800000  0  4G 6G12G11G13
  21699863.070    21699868.519     9866555.290 9  -1989947.825 7
  21947239.784    21947246.334   -37442896.656 9  47070463.225 8
  21354846.222    21354851.661     2882248.577 8    867263.188 6
  20925315.825    20925321.439   -15035490.053 8 -12948393.196 6
 90  2 23  6 24 59.0800000  0  4G 6G12G11G13
  21707880.703    21707885.838     9908685.444 9  -1957119.160 7
  21939682.027    21939688.126   -37482617.278 9  47039512.099 8
  21359692.116    21359697.240     2907715.678 9    887107.673 8
  20922531.002    20922537.113   -15050122.605 9 -12959795.170 7
 90  2 23  6 25 14.0800000  0  4G 6G12G11G13
  21715921.268    21715925.408     9950935.047 9  -1924197.402 8
  21932139.837    21932145.150   -37522256.745 9  47008624.225 9
  21364549.915    21364554.281     2933243.002 8    906999.101 8
  20919767.314    20919772.370   -15064648.260 9 -12971113.858 7
 90  2 23  6 25 29.0800000  0  4G 6G12G11G13
  21723983.274    21723988.437     9993303.904 9  -1891182.721 9
  21924611.639    21924616.336   -37561814.469 9  46977800.032 8
  21369418.961    21369423.441     2958830.540 9    926937.440 8
  20917023.638    20917029.065   -15079067.130 9 -12982349.336 7
 90  2 23  6 25 44.0800000  0  4G 6G12G11G13
  21732068.841    21732073.303    10035791.735 9  -1858075.342 8
  21917099.732    21917105.677   -37601290.346 9  46947039.624 8
  21374299.340    21374304.521     2984477.874 9    946922.383 9
  20914299.074    20914304.820   -15093379.638 8 -12993501.929 7
 90  2 23  6 25 59.0800000  0  4G 6G12G11G13
  21740176.157    21740180.204    10078398.269 9  -1824875.459 8
  21909602.899    21909607.975   -37640683.943 9  46916343.319 8
  21379190.765    21379196.033     3010184.600 9    966953.591 8
  20911596.183    20911602.408   -15107585.713 8 -13004571.587 7
 90  2 23  6 26 14.0800000  0  4G 6G12G11G13
  21748306.261    21748312.312    10121122.914 9  -1791583.551 8
  21902122.279    21902127.584   -37679995.216 9  46885711.163 7
  21384094.153    21384099.736     3035950.217 9    987030.681 8
  20908913.792    20908919.721   -15121685.661 8 -13015558.552 6
 90  2 23  6 26 29.0800000  0  4G 6G12G11G13
  21756459.360    21756463.071    10163965.093 9  -1758200.030 8
  21894657.517    21894662.454   -37719224.197 9  46855143.138 7
  21389008.531    21389013.412     3061774.001 8   1007153.119 8
  20906250.909    20906255.035   -15135680.109 9 -13026463.282 7
 90  2 23  6 26 44.0800000  0  4G 6G12G11G13
  21764633.414    21764639.543    10206924.841 9  -1724724.925 8
  21887209.235    21887213.292   -37758370.091 9  46824639.843 8
  21393932.753    21393939.066     3087656.168 8   1027321.036 8
  20903608.545    20903613.032   -15149568.443 9 -13037285.371 6
 90  2 23  6 26 59.0800000  0  4G 6G12G11G13
  21772831.744    21772836.557    10250001.881 9  -1691158.416 7
  21879774.934    21879779.445   -37797432.683 9  46794201.471 7
  21398869.940    21398875.036     3113596.343 8   1047534.168 8
  20900985.384    20900990.414   -15163351.117 9 -13048025.110 7
 90  2 23  6 27 14.0800000  0  4G 6G12G11G13
  21781050.951    21781055.871    10293196.329 9  -1657500.412 8
  21872356.773    21872362.844   -37836411.243 9  46763828.583 7
  21403816.542    21403822.968     3139594.637 9   1067792.578 8
  20898383.433    20898386.574   -15177027.743 9 -13058682.208 7
 90  2 23  6 27 29.0800000  0  4G 6G12G11G13
  21789293.182    21789297.916    10336507.840 9  -1623751.204 8
  21864956.742    21864961.604   -37875305.531 9  46733521.344 9
  21408776.079    21408780.560     3165650.595 8   1088095.914 8
  20895799.861    20895804.971   -15190598.494 8 -13069256.816 7
 90  2 23  6 27 44.0800000  0  4G 6G12G11G13
  21797556.912    21797561.904    10379935.887 9  -1589911.171 8
  21857571.142    21857575.868   -37914115.376 9  46703279.925 8
  21413744.031    21413749.956     3191763.750 9   1108443.834 8
  20893237.715    20893243.718   -15204063.937 9 -13079749.365 7
 90  2 23  6 27 59.0800000  0  4G 6G12G11G13
  21805842.428    21805847.692    10423480.188 9  -1555980.568 8
  21850201.522    21850207.321   -37952840.381 9  46673104.602 8
  21418724.087    21418729.927     3217933.796 8   1128836.076 8
  20890695.211    20890700.213   -15217424.148 9 -13090159.905 7
 90  2 23  6 28 14.0800000  0  4G 6G12G11G13
  21814151.225    21814155.666    10467140.924 9  -1521959.221 8
  21842848.375    21842853.741   -37991479.805 9  46642995.969 8
  21423715.620    21423720.501     3244160.841 9   1149272.741 7
  20888172.221    20888177.635   -15230678.816 8 -13100488.209 7
 90  2 23  6 28 29.0800000  0  4G 6G12G11G13
  21822481.672    21822485.719    10510917.733 9  -1487847.424 8
  21835512.213    21835517.998   -38030033.257 9  46612954.333 8
  21428716.883    21428721.335     3270444.715 8   1169753.671 7
  20885669.969    20885675.132   -15243827.917 8 -13110734.262 7
 90  2 23  6 28 44.0800000  0  4G 6G12G11G13
  21830834.463    21830839.412    10554810.404 9  -1453645.366 8
  21828191.519    21828196.213   -38068500.528 8  46582979.849 8
  21433730.252    21433733.888     3296785.020 9   1190278.592 8
  20883188.380    20883193.729   -15256871.541 9 -13120898.115 7
 90  2 23  6 28 59.0800000  0  4G 6G12G11G13
  21839208.545    21839213.888    10598818.455 9  -1419353.392 8
  21820887.993    21820893.717   -38106881.234 8  46553072.815 8
  21438752.606    21438757.817     3323181.338 8   1210847.142 8
  20880726.834    20880729.618   -15269809.836 9 -13130979.893 7
 90  2 23  6 29 14.0800000  0  4G 6G12G11G13
  21847604.908    21847609.234    10642941.644 9  -1384971.694 8
  21813601.753    21813607.258   -38145175.117 9  46523233.440 8
  21443786.380    21443791.461     3349633.450 8   1231459.179 8
  20878285.167    20878289.482   -15282643.175 8 -13140979.887 6
 90  2 23  6 29 29.0800000  0  4G 6G12G11G13
  21856023.413    21856028.341    10687179.577 9  -1350500.604 8
  21806331.145    21806336.482   -38183382.006 9  46493461.852 8
  21448830.055    21448835.352     3376140.817 9   1252114.273 7
  20875862.385    20875866.539   -15295371.959 9 -13150898.401 8
 90  2 23  6 29 44.0800000  0  4G 6G12G11G13
  21864462.810    21864468.181    10731532.123 8  -1315940.185 8
  21799077.172    21799082.394   -38221501.376 9  46463758.456 8
  21453885.350    21453889.888     3402703.549 8   1272812.505 7
  20873460.558    20873465.289   -15307995.909 8 -13160735.251 7
 90  2 23  6 29 59.0800000  0  4G 6G12G11G13
  21872924.744    21872930.122    10775999.629 9  -1281290.202 9
  21791839.532    21791845.374   -38259532.307 9  46434123.970 8
  21458950.174    21458954.526     3429321.842 9   1293554.015 8
  20871077.180    20871084.082   -15320514.325 8 -13170489.847 7
 90  2 23  6 30 14.0800000  0  4G 6G12G11G13
  21881410.181    21881413.720    10820581.085 9  -1246551.413 8
  21784619.565    21784626.744   -38297475.040 9  46404558.216 8
  21464026.360    21464030.497     3455994.714 9   1314338.079 7
  20868715.004    20868720.167   -15332928.425 9 -13180163.152 7
 90  2 23  6 30 29.0800000  0  4G 6G12G11G13
  21889914.220    21889918.768    10865275.766 8  -1211724.404 8
  21777416.757    21777422.338   -38335329.654 9  46375061.121 9
  21469113.021    21469116.557     3482721.403 9   1335164.065 7
  20866373.513    20866379.126   -15345238.658 9 -13189755.553 6
 90  2 23  6 30 44.0800000  0  4G 6G12G11G13
  21898440.846    21898446.152    10910084.320 9  -1176808.672 7
  21770229.640    21770234.859   -38373094.870 9  46345633.702 8
  21474209.125    21474212.561     3509502.563 9   1356032.505 8
  20864049.979    20864055.342   -15357444.004 9 -13199266.188 7
 90  2 23  6 30 59.0800000  0  4G 6G12G11G13
  21906989.079    21906994.693    10955006.414 9  -1141804.449 8
  21763060.141    21763065.417   -38410770.418 9  46316276.151 9
  21479315.331    21479319.111     3536337.813 8   1376943.085 8
  20861747.980    20861752.174   -15369544.815 8 -13208695.392 7
 90  2 23  6 31 14.0800000  0  4G 6G12G11G13
  21915560.013    21915564.024    11000041.505 9  -1106712.182 8
  21755908.639    21755913.912   -38448356.194 9  46286988.543 8
  21484431.783    21484436.622     3563226.731 9   1397895.492 8
  20859464.448    20859470.176   -15381541.405 8 -13218043.367 7
 90  2 23  6 31 29.0800000  0  4G 6G12G11G13
  21924150.958    21924155.521    11045189.476 8  -1071531.964 8
  21748772.720    21748779.034   -38485851.729 9  46257771.249 8
  21489558.338    21489563.519     3590169.254 9   1418889.658 7
  20857200.537    20857207.478   -15393433.714 9 -13227310.101 7
 90  2 23  6 31 44.0800000  0  4G 6G12G11G13
  21932764.069    21932769.054    11090449.448 9  -1036264.473 8
  21741655.163    21741660.429   -38523257.212 9  46228624.119 8
  21494696.139    21494700.405     3617164.342 9   1439924.803 7
  20854958.265    20854963.968   -15405222.593 9 -13236496.218 7
 90  2 23  6 31 59.0800000  0  4G 6G12G11G13
  21941397.906    21941403.141    11135821.874 9  -1000909.362 8
  21734554.023    21734559.421   -38560571.625 9  46199547.975 8
  21499841.610    21499846.405     3644212.490 9   1461001.264 9
  20852735.869    20852739.568   -15416907.171 8 -13245601.075 7
 90  2 23  6 32 14.0800000  0  4G 6G12G11G13
  21950053.437    21950058.751    11181306.225 9   -965467.023 8
  21727470.236    21727476.099   -38597794.827 9  46170542.884 7
  21504999.473    21505003.639     3671313.119 9   1482118.644 8
  20850531.355    20850535.860   -15428488.074 9 -13254625.160 6
 90  2 23  6 32 29.0800000  0  4G 6G12G11G13
  21958728.964    21958734.192    11226901.804 9   -929938.027 8
  21720405.258    21720410.259   -38634926.797 9  46141608.894 8
  21510166.465    21510172.691     3698465.677 8   1503276.479 8
  20848347.393    20848352.109   -15439965.835 8 -13263568.847 7
 90  2 23  6 32 44.0800000  0  4G 6G12G11G13
  21967427.186    21967432.729    11272608.884 9   -894322.133 8
  21713356.725    21713362.742   -38671966.577 9  46112746.736 9
  21515343.445    21515349.042     3725670.537 8   1524475.071 7
  20846183.668    20846187.626   -15451340.013 8 -13272431.849 7
 90  2 23  6 32 59.0800000  0  4G 6G12G11G13
  21976145.941    21976150.676    11318427.021 9   -858619.705 7
  21706325.271    21706331.384   -38708914.180 9  46083956.407 9
  21520529.554    21520534.893     3752927.047 8   1545713.917 8
  20844037.736    20844042.867   -15462611.089 9 -13281214.485 6
 90  2 23  6 33 14.0800000  0  4G 6G12G11G13
  21984886.089    21984891.181    11364355.938 9   -822830.955 8
  21699311.878    21699317.093   -38745769.017 9  46055238.372 8
  21525727.483    21525731.691     3780235.062 9   1566992.883 7
  20841912.951    20841918.550   -15473778.911 8 -13289916.674 7
 90  2 23  6 33 29.0800000  0  4G 6G12G11G13
  21993647.507    21993652.549    11410395.265 9   -786956.169 8
  21692317.104    21692321.941   -38782530.727 9  46026592.900 9
  21530932.737    21530939.064     3807594.266 9   1588311.737 8
  20839806.490    20839813.678   -15484843.600 8 -13298538.512 7
 90  2 23  6 33 44.0800000  0  4G 6G12G11G13
  22002430.189    22002434.394    11456544.646 9   -750995.637 7
  21685339.052    21685344.837   -38819199.196 9  45998020.078 9
  21536149.211    21536153.791     3835004.371 9   1609670.267 7
  20837719.141    20837725.463   -15495805.374 9 -13307080.129 6
 90  2 23  6 33 59.0800000  0  4G 6G12G11G13
  22011232.531    22011237.387    11502804.001 9   -714949.409 7
  21678379.526    21678384.062   -38855773.850 9  45969520.358 8
  21541373.583    21541379.694     3862465.360 8   1631068.430 8
  20835654.367    20835659.219   -15506664.066 8 -13315541.442 7
 90  2 23  6 34 14.0800000  0  4G 6G12G11G13
  22020055.758    22020061.308    11549173.172 9   -678817.598 8
  21671436.219    21671441.603   -38892254.330 9  45941094.027 8
  21546609.116    21546615.471     3889976.885 9   1652505.989 8
  20833607.588    20833613.001   -15517419.793 8 -13323922.512 7
 90  2 23  6 34 29.0800000  0  4G 6G12G11G13
  22028900.349    22028906.371    11595651.742 9   -642600.544 8
  21664513.357    21664518.394   -38928640.215 9  45912741.390 8
  21551855.352    21551860.291     3917538.674 8   1673982.700 7
  20831580.816    20831585.986   -15528072.606 8 -13332223.418 7
 90  2 23  6 34 44.0800000  0  4G 6G12G11G13
  22037766.074    22037771.144    11642238.911 8   -606298.874 8
  21657607.287    21657612.366   -38964931.787 9  45884462.261 9
  21557109.258    21557113.997     3945149.890 9   1695497.936 7
  20829573.247    20829576.510   -15538623.508 9 -13340444.873 6
 90  2 23  6 34 59.0800000  0  4G 6G12G11G13
  22046651.696    22046655.943    11688934.766 8   -569912.516 7
  21650719.346    21650724.486   -39001128.288 9  45856257.192 8
  21562373.210    21562378.248     3972810.672 9   1717051.788 7
  20827583.389    20827589.117   -15549072.199 9 -13348586.706 7
 90  2 23  6 35 14.0800000  0  4G 6G12G11G13
  22055557.794    22055563.287    11735739.249 9   -533441.509 8
  21643849.682    21643854.890   -39037229.131 9  45828126.699 7
  21567645.947    21567650.857     4000520.926 8   1738644.198 7
  20825615.718    20825620.645   -15559418.597 8 -13356648.825 7
 90  2 23  6 35 29.0800000  0  4G 6G12G11G13
  22064485.893    22064490.198    11782651.617 9   -496886.435 8
  21636997.657    21637002.447   -39073234.288 9  45800070.741 8
  21572928.357    21572932.851     4028279.950 8   1760274.604 8
  20823666.505    20823670.803   -15569662.949 8 -13364631.434 7
 90  2 23  6 35 44.0800000  0  4G 6G12G11G13
  22073433.724    22073438.201    11829671.892 9   -460247.279 8
  21630164.717    21630169.554   -39109143.165 9  45772089.821 9
  21578219.409    21578224.090     4056087.918 9   1781943.150 7
  20821736.013    20821741.212   -15579805.325 8 -13372534.566 7
 90  2 23  6 35 59.0800000  0  4G 6G12G11G13
  22082400.888    22082405.622    11876799.830 9   -423524.232 7
  21623350.404    21623354.204   -39144955.345 9  45744184.237 8
  21583519.964    21583524.974     4083944.522 9   1803649.588 8
  20819824.845    20819830.176   -15589845.639 8 -13380358.183 7
 90  2 23  6 36 14.0800000  0  4G 6G12G11G13
  22091390.301    22091394.771    11924035.066 9   -386717.572 7
  21616553.327    21616558.303   -39180670.565 9  45716354.196 9
  21588830.047    21588835.472     4111849.570 9   1825393.771 7
  20817934.858    20817939.203   -15599784.057 9 -13388102.394 6
 90  2 23  6 36 29.0800000  0  4G 6G12G11G13
  22100399.083    22100403.287    11971377.919 9   -349827.057 8
  21609776.343    21609780.110   -39216287.768 9  45688600.529 8
  21594149.919    21594155.888     4139803.226 8   1847175.845 8
  20816062.483    20816066.715   -15609620.324 8 -13395766.990 6
 90  2 23  6 36 44.0800000  0  4G 6G12G11G13
  22109428.025    22109433.017    12018827.846 9   -312853.110 7
  21603016.688    21603021.020   -39251806.990 9  45660923.243 8
  21599480.122    21599483.257     4167804.975 8   1868995.402 7
  20814211.195    20814215.818   -15619354.797 9 -13403352.295 8
 90  2 23  6 36 59.0800000  0  4G 6G12G11G13
  22118479.319    22118484.433    12066385.180 9   -275795.455 7
  21596276.003    21596281.716   -39287227.071 9  45633323.193 8
  21604816.449    21604821.888     4195855.351 8   1890852.834 8
  20812376.768    20812383.308   -15628986.884 8 -13410857.810 7
 90  2 23  6 37 14.0800000  0  4G 6G12G11G13
  22127547.333    22127553.742    12114048.756 9   -238655.028 7
  21589554.632    21589559.455   -39322548.627 9  45605799.909 8
  21610163.393    21610168.117     4223953.058 8   1912747.144 8
  20810562.724    20810566.831   -15638517.697 8 -13418284.407 7
 90  2 23  6 37 29.0800000  0  4G 6G12G11G13
  22136637.455    22136643.370    12161818.532 9   -201431.848 7
  21582851.953    21582856.875   -39357770.901 9  45578353.993 8
  21615518.980    21615524.176     4252098.071 8   1934678.335 7
  20808770.011    20808773.299   -15647946.986 8 -13425631.897 7
 90  2 23  6 37 44.0800000  0  4G 6G12G11G13
  22145749.005    22145754.283    12209693.789 9   -164126.477 7
  21576167.546    21576174.547   -39392894.071 9  45550985.300 8
  21620883.554    21620888.020     4280289.840 9   1956645.945 8
  20806993.585    20806998.487   -15657275.244 8 -13432900.663 7
 90  2 23  6 37 59.0800000  0  4G 6G12G11G13
  22154878.871    22154884.213    12257675.292 9   -126738.309 7
  21569503.469    21569508.109   -39427916.808 9  45523694.883 8
  21626258.573    21626261.909     4308529.162 9   1978650.612 7
  20805237.869    20805241.841   -15666501.763 8 -13440090.138 7
 90  2 23  6 38 14.0800000  0  4G 6G12G11G13
  22164030.543    22164033.775    12305761.829 9    -89268.303 8
  21562857.855    21562863.986   -39462839.537 9  45496482.391 8
  21631640.918    21631645.928     4336814.908 9   2000691.440 8
  20803500.075    20803507.699   -15675627.418 8 -13447201.048 8
 90  2 23  6 38 29.0800000  0  4G 6G12G11G13
  22173200.875    22173204.672    12353952.956 9    -51716.786 8
  21556231.093    21556236.662   -39497662.033 9  45469347.979 8
  21637032.021    21637035.929     4365146.549 8   2022768.046 7
  20801783.312    20801789.165   -15684652.562 8 -13454233.621 7
 90  2 23  6 38 44.0800000  0  4G 6G12G11G13
  22182391.090    22182395.230    12402248.356 9    -14084.027 7
  21549624.034    21549629.157   -39532384.029 9  45442291.896 7
  21642432.768    21642437.020     4393523.755 9   2044880.154 7
  20800085.043    20800091.615   -15693577.311 8 -13461187.957 7
 90  2 23  6 38 59.0800000  0  4G 6G12G11G13
  22191601.681    22191606.143    12450647.688 9     23629.718 8
  21543036.154    21543040.064   -39567005.046 9  45415314.495 8
  21647841.671    21647845.980     4421946.352 9   2067027.636 7
  20798406.196    20798411.015   -15702401.772 8 -13468064.139 7
 90  2 23  6 39 14.0800000  0  4G 6G12G11G13
  22200831.775    22200835.651    12499150.777 8     61424.319 8
  21536467.626    21536471.726   -39601524.802 9  45388415.996 8
  21653256.899    21653262.482     4450414.168 9   2089210.356 7
  20796747.027    20796751.310   -15711125.901 9 -13474862.153 7
 90  2 23  6 39 29.0800000  0  4G 6G12G11G13
  22210080.572    22210086.108    12547757.402 9     99299.593 8
  21529918.234    21529920.799   -39635942.886 9  45361596.724 8
  21658684.719    21658688.899     4478927.107 8   2111428.218 8
  20795104.772    20795110.246   -15719749.909 8 -13481582.161 7
 90  2 23  6 39 44.0800000  0  4G 6G12G11G13
  22219350.561    22219353.964    12596467.217 9    137255.282 7
  21523388.041    21523392.860   -39670258.880 9  45334856.992 7
  21664117.147    21664122.271     4507484.836 9   2133680.996 7
  20793482.968    20793488.063   -15728273.949 8 -13488224.242 6
 90  2 23  6 39 59.0800000  0  4G 6G12G11G13
  22228638.850    22228643.685    12645279.567 9    175290.843 7
  21516877.287    21516882.685   -39704472.778 9  45308196.834 7
  21669560.879    21669566.246     4536086.858 9   2155968.283 8
  20791879.985    20791887.283   -15736698.256 9 -13494788.641 7
 90  2 23  6 40 14.0800000  0  4G 6G12G11G13
  22237946.865    22237950.691    12694194.089 9    213406.050 7
  21510386.058    21510390.794   -39738584.329 9  45281616.432 8
  21675012.108    21675016.289     4564732.775 9   2178289.777 8
  20790294.740    20790302.726   -15745023.244 8 -13501275.630 8
 90  2 23  6 40 29.0800000  0  4G 6G12G11G13
  22247274.627    22247279.690    12743210.781 9    251600.862 8
  21503912.998    21503919.072   -39772592.930 9  45255116.239 8
  21680471.123    21680476.547     4593422.538 9   2200645.434 8
  20788729.898    20788735.623   -15753248.869 9 -13507685.203 7
 90  2 23  6 40 44.0800000  0  4G 6G12G11G13
  22256621.234    22256625.160    12792329.342 9    289875.041 8
  21497462.589    21497467.318   -39806498.182 9  45228696.573 7
  21685938.751    21685944.820     4622155.995 9   2223035.140 8
  20787184.509    20787189.718   -15761375.154 8 -13514017.358 7
 90  2 23  6 40 59.0800000  0  4G 6G12G11G13
  22265987.731    22265993.037    12841549.357 9    328228.267 7
  21491030.068    21491034.228   -39840299.813 9  45202357.651 8
  21691413.991    21691419.960     4650932.662 9   2245458.530 7
  20785657.471    20785661.600   -15769402.347 8 -13520272.294 7
 90  2 23  6 41 14.0800000  0  4G 6G12G11G13
  22275373.202    22275376.748    12890870.468 9    366660.291 8
  21484618.373    21484621.195   -39873997.448 9  45176099.764 8
  21696899.506    21696904.230     4679752.348 9   2267915.420 8
  20784148.603    20784153.093   -15777330.615 8 -13526450.178 7
 90  2 23  6 41 29.0800000  0  4G 6G12G11G13
  22284776.895    22284782.538    12940292.651 9    405171.055 8
  21478224.324    21478229.472   -39907590.566 9  45149923.331 7
  21702392.433    21702396.384     4708615.064 9   2290405.854 7
  20782657.263    20782662.787   -15785159.946 9 -13532550.935 8
 90  2 23  6 41 44.0800000  0  4G 6G12G11G13
  22294202.052    22294206.049    12989815.327 9    443760.135 7
  21471851.633    21471857.195   -39941078.958 9  45123828.489 8
  21707891.999    21707897.424     4737520.408 9   2312929.500 8
  20781186.232    20781191.820   -15792890.642 8 -13538574.841 7
 90  2 23  6 41 59.0800000  0  4G 6G12G11G13
  22303644.738    22303649.444    13039438.253 8    482427.340 8
  21465500.276    21465503.628   -39974462.266 9  45097815.532 8
  21713401.010    21713405.877     4766468.181 9   2335486.214 8
  20779733.087    20779738.779   -15800523.047 8 -13544522.159 8
 90  2 23  6 42 14.0800000  0  4G 6G12G11G13
  22313106.048    22313111.476    13089161.271 9    521172.520 8
  21459167.453    21459172.773   -40007740.070 9  45071884.791 8
  21718917.747    21718922.871     4795458.186 9   2358075.828 8
  20778299.985    20778304.304   -15808056.937 8 -13550392.706 6
 90  2 23  6 42 29.0800000  0  4G 6G12G11G13
  22322587.906    22322593.126    13138983.849 9    559995.302 8
  21452855.286    21452859.872   -40040912.120 9  45046036.453 8
  21724442.240    21724447.679     4824490.004 9   2380698.011 8
  20776884.198    20776892.423   -15815492.362 8 -13556186.551 8
 90  2 23  6 42 44.0800000  0  4G 6G12G11G13
  22332087.420    22332092.512    13188905.837 8    598895.522 7
  21446561.867    21446566.685   -40073978.100 9  45020270.773 8
  21729975.004    21729979.499     4853563.424 9   2403352.628 8
  20775489.299    20775495.066   -15822829.557 8 -13561903.827 7
 90  2 23  6 42 59.0800000  0  4G 6G12G11G13
  22341606.804    22341611.946    13238926.660 8    637872.758 9
  21440290.491    21440295.299   -40106937.683 9  44994587.983 7
  21735515.294    21735520.032     4882678.140 9   2426039.414 9
  20774112.300    20774118.851   -15830068.873 8 -13567544.849 7
 90  2 23  6 43 14.0800000  0  4G 6G12G11G13
  22351143.451    22351148.364    13289046.096 8    676926.839 8
  21434038.895    21434042.998   -40139790.466 9  44968988.434 8
  21741064.141    21741068.550     4911833.878 8   2448758.173 8
  20772753.002    20772758.136   -15837210.526 7 -13573109.770 7
 90  2 23  6 43 29.0800000  0  4G 6G12G11G13
  22360699.967    22360704.515    13339263.769 8    716057.471 8
  21427807.546    21427812.214   -40172536.159 9  44943472.321 7
  21746620.000    21746623.737     4941030.224 8   2471508.562 8
  20771412.388    20771417.604   -15844254.740 9 -13578598.760 8
 90  2 23  6 43 44.0800000  0  4G 6G12G11G13
  22370273.797    22370279.768    13389579.350 8    755264.389 7
  21421597.252    21421600.436   -40205174.274 9  44918040.039 7
  21752183.642    21752188.581     4970267.162 9   2494290.588 8
  20770090.369    20770096.705   -15851201.618 8 -13584011.897 8
 90  2 23  6 43 59.0800000  0  4G 6G12G11G13
  22379867.402    22379871.585    13439992.529 8    794547.377 7
  21415406.316    21415411.893   -40237704.596 9  44892691.725 8
  21757755.156    21757758.849     4999544.419 9   2517104.034 9
  20768787.259    20768791.996   -15858051.131 8 -13589349.152 6
 90  2 23  6 44 14.0800000  0  4G 6G12G11G13
  22389479.308    22389484.400    13490503.281 9    833906.381 8
  21409237.015    21409240.854   -40270126.738 9  44867427.727 6
  21763332.164    21763337.918     5028861.797 8   2539948.743 8
  20767502.458    20767508.566   -15864803.361 8 -13594610.623 6
 90  2 23  6 44 29.0800000  0  4G 6G12G11G13
  22399110.439    22399113.349    13541110.900 8    873340.864 8
  21403086.001    21403091.571   -40302440.411 9  44842248.259 8
  21768919.445    21768924.126     5058218.905 9   2562824.405 8
  20766235.519    20766240.951   -15871458.532 8 -13599796.485 7
 90  2 23  6 44 44.0800000  0  4G 6G12G11G13
  22408758.140    22408764.448    13591815.051 9    912850.553 7
  21396958.255    21396963.595   -40334645.504 9  44817153.395 8
  21774514.368    21774518.562     5087615.250 8   2585730.656 7
  20764988.119    20764993.171   -15878017.222 8 -13604907.132 7
 90  2 23  6 44 59.0800000  0  4G 6G12G11G13
  22418425.688    22418430.057    13642615.513 7    952435.311 7
  21390851.170    21390855.552   -40366741.349 9  44792143.658 7
  21780115.043    21780119.223     5117050.981 9   2608667.569 8
  20763758.816    20763764.133   -15884479.144 8 -13609942.387 7
 90  2 23  6 45 14.0800000  0  4G 6G12G11G13
  22428111.015    22428115.405    13693511.930 9    992094.839 8
  21384764.212    21384768.329   -40398727.800 9  44767219.150 8
  21785723.788    21785727.825     5146525.607 9   2631634.810 8
  20762546.978    20762552.896   -15890844.777 8 -13614902.610 7
 90  2 23  6 45 29.0800000  0  4G 6G12G11G13
  22437814.522    22437819.320    13744503.891 9   1031828.820 7
  21378698.352    21378703.246   -40430604.423 9  44742380.238 8
  21791340.404    21791343.582     5176038.994 9   2654632.245 8
  20761355.319    20761359.298   -15897114.123 8 -13619787.810 7
 90  2 23  6 45 44.0800000  0  4G 6G12G11G13
  22447536.494    22447540.091    13795591.232 9   1071637.115 8
  21372653.552    21372657.236   -40462370.830 9  44717627.203 8
  21796963.315    21796968.783     5205590.808 8   2677659.631 8
  20760179.347    20760184.728   -15903287.247 8 -13624598.025 8
 90  2 23  6 45 59.0800000  0  4G 6G12G11G13
  22457275.381    22457279.607    13846773.647 9   1111519.506 8
  21366629.099    21366633.607   -40494026.749 9  44692960.256 7
  21802594.841    21802599.179     5235180.797 8   2700716.759 8
  20759023.339    20759027.293   -15909364.298 8 -13629333.368 6
 90  2 23  6 46 14.0800000  0  4G 6G12G11G13
  22467033.606    22467039.306    13898050.859 8   1151475.748 8
  21360625.921    21360632.224   -40525571.768 9  44668379.733 8
  21808232.978    21808237.129     5264808.792 9   2723803.508 8
  20757885.279    20757889.083   -15915345.370 9 -13633993.933 7
 90  2 23  6 46 29.0800000  0  4G 6G12G11G13
  22476809.124    22476814.480    13949422.454 9   1191505.540 7
  21354644.933    21354649.912   -40557005.458 9  44643885.973 8
  21813878.612    21813881.691     5294474.632 8   2746919.742 8
  20756765.238    20756769.707   -15921230.701 9 -13638579.914 7
 90  2 23  6 46 44.0800000  0  4G 6G12G11G13
  22486602.292    22486608.006    14000888.176 9   1231608.675 7
  21348684.667    21348690.645   -40588327.481 9  44619479.212 8
  21819530.543    21819535.496     5324178.150 8   2770065.340 8
  20755663.552    20755667.874   -15927020.416 8 -13643091.365 7
 90  2 23  6 46 59.0800000  0  4G 6G12G11G13
  22496414.656    22496419.948    14052447.608 9   1271784.823 8
  21342745.762    21342751.114   -40619537.689 9  44595159.578 7
  21825190.429    21825193.322     5353918.848 8   2793239.889 8
  20754578.353    20754583.312   -15932714.759 8 -13647528.511 7
 90  2 23  6 47 14.0800000  0  4G 6G12G11G13
  22506243.841    22506248.417    14104100.438 8   1312033.763 8
  21336827.531    21336832.714   -40650635.586 9  44570927.455 8
  21830855.295    21830860.506     5383696.588 8   2816443.327 8
  20753513.206    20753519.181   -15938314.000 8 -13651891.537 8
 90  2 23  6 47 29.0800000  0  4G 6G12G11G13
  22516089.896    22516094.944    14155846.296 9   1352355.189 8
  21330932.251    21330935.846   -40681620.990 9  44546782.964 8
  21836529.119    21836534.387     5413511.199 8   2839675.478 8
  20752466.317    20752471.301   -15943818.240 9 -13656180.551 7
 90  2 23  6 47 44.0800000  0  4G 6G12G11G13
  22525954.109    22525960.360    14207685.176 9   1392749.095 8
  21325056.034    21325060.388   -40712493.432 9  44522726.527 7
  21842210.269    21842215.250     5443362.722 9   2862936.398 8
  20751436.921    20751441.801   -15949227.239 8 -13660395.347 7
 90  2 23  6 47 59.0800000  0  4G 6G12G11G13
  22535836.509    22535842.975    14259616.450 9   1433214.980 8
  21319202.892    21319208.333   -40743252.553 9  44498758.385 7
  21847897.887    21847901.580     5473250.610 9   2886225.656 9
  20750425.618    20750431.053   -15954541.408 8 -13664536.254 7
 90  2 23  6 48 14.0800000  0  4G 6G12G11G13
  22545735.981    22545741.373    14311639.754 9   1473752.606 7
  21313371.706    21313376.708   -40773898.098 9  44474878.750 8
  21853592.344    21853596.567     5503174.376 8   2909542.871 7
  20749431.795    20749437.466   -15959761.131 8 -13668603.572 6
 90  2 23  6 48 29.0800000  0  4G 6G12G11G13
  22555653.524    22555659.875    14363754.856 8   1514361.745 8
  21307562.479    21307568.052   -40804429.792 9  44451087.835 7
  21859291.839    21859298.680     5533133.881 8   2932887.930 8
  20748456.896    20748462.377   -15964886.414 9 -13672597.286 7
 90  2 23  6 48 44.0800000  0  4G 6G12G11G13
  22565588.411    22565593.653    14415961.131 9   1555041.938 8
  21301773.527    21301778.453   -40834847.393 9  44427385.809 7
  21865000.634    21865006.545     5563128.671 8   2956260.483 8
  20747500.186    20747503.511   -15969917.453 8 -13676517.559 7
 90  2 23  6 48 59.0800000  0  4G 6G12G11G13
  22575540.969    22575546.991    14468258.426 9   1595793.069 9
  21296006.997    21296012.564   -40865150.420 9  44403773.082 8
  21870714.752    21870720.292     5593158.723 9   2979660.516 8
  20746560.084    20746564.792   -15974854.532 8 -13680364.622 7
 90  2 23  6 49 14.0800000  0  4G 6G12G11G13
  22585509.668    22585514.295    14520646.445 9   1636614.879 8
  21290262.071    21290266.983   -40895338.374 9  44380250.001 8
  21876435.596    21876440.835     5623223.917 8   3003087.944 8
  20745639.269    20745645.165   -15979697.716 9 -13684138.540 7
 90  2 23  6 49 29.0800000  0  4G 6G12G11G13
  22595495.445    22595500.902    14573124.833 8   1677507.104 8
  21284539.725    21284544.104   -40925411.046 9  44356816.752 8
  21882163.852    21882169.219     5653323.936 9   3026542.493 8
  20744734.960    20744740.023   -15984447.122 8 -13687839.349 7
 90  2 23  6 49 44.0800000  0  4G 6G12G11G13
  22605499.023    22605504.830    14625693.362 9   1718469.580 8
  21278840.170    21278843.558   -40955368.062 9  44333473.635 8
  21887898.575    21887904.644     5683458.509 9   3050023.964 7
  20743849.690    20743853.426   -15989103.128 8 -13691467.411 7
 90  2 23  6 49 59.0800000  0  4G 6G12G11G13
  22615519.636    22615526.016    14678351.531 9   1759501.886 8
  21273159.800    21273165.660   -40985209.307 9  44310220.729 8
  21893639.738    21893643.675     5713627.399 9   3073532.187 8
  20742980.993    20742985.015   -15993665.867 9 -13695022.774 7
 90  2 23  6 50 14.0800000  0  4G 6G12G11G13
  22625557.920    22625562.311    14731099.122 8   1800603.886 7
  21267504.314    21267509.672   -41014934.288 9  44287058.405 7
  21899386.567    21899391.277     5743830.456 9   3097067.035 9
  20742130.741    20742134.015   -15998135.330 8 -13698505.464 7
 90  2 23  6 50 29.0800000  0  4G 6G12G11G13
  22635612.847    22635616.293    14783935.811 8   1841775.317 7
  21261870.484    21261875.163   -41044542.761 9  44263986.872 8
  21905140.322    21905146.620     5774067.537 9   3120628.378 7
  20741298.250    20741302.451   -16002511.469 9 -13701915.447 8
 90  2 23  6 50 44.0800000  0  4G 6G12G11G13
  22645681.210    22645689.113    14836861.199 7   1883015.837 7
  21256258.501    21256261.885   -41074034.396 9  44241006.396 7
  21910900.802    21910906.957     5804338.249 9   3144215.941 8
  20740482.540    20740487.832   -16006794.412 8 -13705252.789 6
 90  2 23  6 50 59.0800000  0  4G 6G12G11G13
  22655770.857    22655777.316    14889874.882 8   1924325.171 8
  21250668.043    21250673.309   -41103408.924 9  44218117.155 7
  21916667.435    21916672.488     5834642.215 9   3167829.431 8
  20739684.799    20739689.419   -16010984.741 8 -13708517.976 6
 90  2 23  6 51 14.0800000  0  4G 6G12G11G13
  22665876.910    22665881.451    14942976.657 9   1965703.158 7
  21245101.452    21245105.982   -41132665.765 8  44195319.625 8
  21922440.049    21922446.505     5864979.370 8   3191468.761 7
  20738904.791    20738909.990   -16015082.304 9 -13711710.882 7
 90  2 23  6 51 29.0800000  0  4G 6G12G11G13
  22675996.879    22676003.509    14996166.136 8   2007149.479 9
  21239555.174    21239560.329   -41161804.712 8  44172613.956 8
  21928220.734    21928224.485     5895349.469 9   3215133.754 8
  20738143.324    20738148.329   -16019087.444 8 -13714831.746 7
 90  2 23  6 51 44.0800000  0  4G 6G12G11G13
  22686135.342    22686141.421    15049442.893 9   2048663.805 7
  21234032.595    21234038.047   -41190825.478 9  44150000.374 8
  21934005.368    21934010.464     5925752.148 9   3238824.158 8
  20737398.448    20737404.119   -16023000.645 9 -13717880.997 7
 90  2 23  6 51 59.0800000  0  4G 6G12G11G13
  22696290.247    22696296.655    15102806.599 8   2090245.878 9
  21228532.489    21228538.395   -41219727.774 9  44127479.111 8
  21939797.414    21939801.766     5956187.275 9   3262539.826 8
  20736672.021    20736676.597   -16026821.986 9 -13720858.646 7
 90  2 23  6 52 14.0800000  0  4G 6G12G11G13
  22706462.644    22706467.193    15156257.016 9   2131895.543 7
  21223054.944    21223060.249   -41248511.208 8  44105050.476 8
  21945594.011    21945600.137     5986654.635 9   3286280.622 7
  20735962.067    20735965.934   -16030551.408 8 -13723764.681 7
 90  2 23  6 52 29.0800000  0  4G 6G12G11G13
  22716650.403    22716655.831    15209793.648 8   2173612.358 7
  21217600.294    21217606.605   -41277175.447 9  44082714.712 7
  21951398.363    21951404.546     6017153.954 8   3310046.321 7
  20735269.577    20735275.899   -16034189.307 9 -13726599.399 8
 90  2 23  6 52 44.0800000  0  4G 6G12G11G13
  22726854.860    22726858.729    15263416.229 9   2215396.178 8
  21212168.600    21212173.920   -41305720.176 9  44060472.079 8
  21957210.156    21957213.807     6047685.079 9   3333836.787 8
  20734594.097    20734600.298   -16037735.702 9 -13729362.809 7
 90  2 23  6 52 59.0800000  0  4G 6G12G11G13
  22737074.171    22737079.334    15317124.353 9   2257246.641 7
  21206758.874    21206765.234   -41334145.195 9  44038322.707 7
  21963024.754    21963030.880     6078247.648 9   3357651.778 8
  20733936.601    20733941.452   -16041190.784 9 -13732055.081 8
 90  2 23  6 53 14.0800000  0  4G 6G12G11G13
  22747312.026    22747316.659    15370917.768 9   2299163.565 8
  21201373.098    21201379.265   -41362449.995 8  44016267.038 8
  21968846.505    21968851.831     6108841.641 8   3381491.245 7
  20733296.032    20733301.703   -16044554.492 8 -13734676.136 7
 90  2 23  6 53 29.0800000  0  4G 6G12G11G13
  22757563.353    22757568.981    15424796.008 8   2341146.575 8
  21196010.442    21196015.200   -41390634.479 9  43994305.111 7
  21974674.039    21974679.435     6139466.597 9   3405354.848 8
  20732674.079    20732678.884   -16047827.183 7 -13737226.272 7
 90  2 23  6 53 44.0800000  0  4G 6G12G11G13
  22767832.008    22767837.136    15478758.926 9   2383195.578 8
  21190671.174    21190674.720   -41418698.162 9  43972437.314 8
  21980508.182    21980512.019     6170122.378 9   3429242.466 7
  20732067.806    20732074.228   -16051009.019 9 -13739705.630 7
 90  2 23  6 53 59.0800000  0  4G 6G12G11G13
  22778115.567    22778122.340    15532805.981 8   2425310.142 8
  21185352.473    21185357.857   -41446640.663 9  43950663.941 8
  21986347.420    21986352.674     6200808.767 8   3453153.926 8
  20731480.642    20731484.535   -16054100.234 9 -13742114.357 7
 90  2 23  6 54 14.0800000  0  4G 6G12G11G13
  22788416.869    22788423.441    15586936.909 8   2467490.060 8
  21180058.472    21180063.781   -41474461.740 9  43928985.194 8
  21992191.982    21992198.136     6231525.483 8   3477089.030 7
  20730909.444    20730913.649   -16057101.191 9 -13744452.755 6
 90  2 23  6 54 29.0800000  0  4G 6G12G11G13
  22798734.769    22798740.383    15641151.346 8   2509735.057 8
  21174787.538    21174793.026   -41502161.125 8  43907401.260 8
  21998042.924    21998049.022     6262272.235 8   3501047.531 7
  20730355.997    20730360.330   -16060011.781 8 -13746720.753 7
 90  2 23  6 54 44.0800000  0  4G 6G12G11G13
  22809066.972    22809072.407    15695449.004 9   2552044.896 8
  21169539.811    21169544.529   -41529738.426 9  43885912.463 8
  22003900.392    22003905.646     6293048.966 8   3525029.391 8
  20729817.710    20729824.597   -16062832.039 8 -13748918.348 7
 90  2 23  6 54 59.0800000  0  4G 6G12G11G13
  22819416.883    22819420.400    15749829.364 9   2594419.157 9
  21164315.209    21164320.493   -41557193.461 9  43864518.934 8
  22009762.983    22009767.764     6323855.197 9   3549034.238 8
  20729299.320    20729305.413   -16065562.535 9 -13751045.983 7
 90  2 23  6 55 14.0800000  0  4G 6G12G11G13
  22829780.294    22829785.092    15804292.233 9   2636857.749 8
  21159114.308    21159118.887   -41584525.762 9  43843221.054 8
  22015630.124    22015636.178     6354690.909 9   3573062.056 8
  20728797.826    20728801.150   -16068203.326 9 -13753103.749 8
 90  2 23  6 55 29.0800000  0  4G 6G12G11G13
  22840158.379    22840165.230    15858837.049 9   2679360.158 8
  21153936.556    21153941.689   -41611735.177 9  43822018.908 8
  22021503.246    22021507.783     6385555.688 8   3597112.530 8
  20728311.070    20728315.282   -16070754.681 8 -13755091.804 6
 90  2 23  6 55 44.0800000  0  4G 6G12G11G13
  22850554.300    22850559.356    15913463.763 8   2721926.409 9
  21148782.031    21148787.432   -41638821.322 9  43800912.832 8
  22027381.004    22027387.030     6416449.496 8   3621185.629 8
  20727842.230    20727846.616   -16073216.562 9 -13757010.155 7
 90  2 23  6 55 59.0800000  0  4G 6G12G11G13
  22860965.346    22860971.146    15968171.930 9   2764556.116 8
  21143651.752    21143657.061   -41665783.833 9  43779903.101 8
  22033266.260    22033271.513     6447372.215 9   3645281.251 9
  20727390.989    20727397.165   -16075589.088 9 -13758858.859 8
 90  2 23  6 56 14.0800000  0  4G 6G12G11G13
  22871392.240    22871397.031    16022961.089 8   2807248.944 8
  21138543.911    21138548.551   -41692622.476 9  43758989.869 8
  22039155.466    22039160.147     6478323.391 9   3669399.041 8
  20726957.668    20726962.287   -16077872.652 9 -13760638.265 7
 90  2 23  6 56 29.0800000  0  4G 6G12G11G13
  22881832.420    22881838.492    16077830.835 9   2850004.557 8
  21133460.370    21133465.432   -41719336.971 9  43738173.396 7
  22045052.055    22045057.237     6509302.766 8   3693538.812 9
  20726538.509    20726543.729   -16080067.668 9 -13762348.654 7
 90  2 23  6 56 44.0800000  0  4G 6G12G11G13
  22892287.488    22892294.705    16132780.749 9   2892822.646 8
  21128399.821    21128405.187   -41745926.998 9  43717453.887 7
  22050952.336    22050956.659     6540310.012 8   3717700.297 7
  20726137.319    20726142.231   -16082174.198 8 -13763990.108 6
 90  2 23  6 56 59.0800000  0  4G 6G12G11G13
  22902761.209    22902765.893    16187810.588 9   2935703.024 8
  21123364.212    21123369.324   -41772392.343 9  43696831.554 8
  22056858.226    22056862.707     6571344.934 9   3741883.354 9
  20725753.056    20725759.206   -16084192.353 8 -13765562.681 5
 90  2 23  6 57 14.0800000  0  4G 6G12G11G13
  22913247.815    22913254.316    16242920.045 8   2978645.412 8
  21118351.258    21118356.374   -41798732.559 9  43676306.725 8
  22062768.523    22062773.476     6602407.507 8   3766087.962 8
  20725386.662    20725390.791   -16086122.299 8 -13767066.538 7
 90  2 23  6 57 29.0800000  0  4G 6G12G11G13
  22923750.719    22923756.905    16298108.642 9   3021649.477 8
  21113363.661    21113367.968   -41824947.321 9  43655879.643 8
  22068684.802    22068691.429     6633497.393 9   3790313.835 8
  20725035.990    20725040.785   -16087964.261 9 -13768501.835 7
 90  2 23  6 57 44.0800000  0  4G 6G12G11G13
  22934266.308    22934272.230    16353376.151 9   3064715.050 8
  21108399.255    21108404.506   -41851036.398 9  43635550.502 8
  22074606.547    22074612.315     6664614.394 8   3814560.843 8
  20724702.997    20724707.005   -16089718.306 8 -13769868.615 7
 90  2 23  6 57 59.0800000  0  4G 6G12G11G13
  22944798.968    22944804.196    16408722.452 9   3107842.013 9
  21103458.030    21103463.417   -41876999.163 9  43615319.781 7
  22080532.241    22080537.580     6695758.514 9   3838828.982 8
  20724384.224    20724389.444   -16091384.601 9 -13771167.024 7
 90  2 23  6 58 14.0800000  0  4G 6G12G11G13
  22955346.632    22955351.423    16464146.897 8   3151029.867 8
  21098541.527    21098547.308   -41902835.577 9  43595187.511 8
  22086464.460    22086470.014     6726929.210 7   3863117.835 8
  20724084.343    20724089.255   -16092963.283 8 -13772397.155 7
 90  2 23  6 58 29.0800000  0  4G 6G12G11G13
  22965907.331    22965914.712    16519649.053 9   3194278.281 7
  21093649.898    21093653.425   -41928545.489 9  43575153.810 8
  22092400.514    22092405.781     6758126.290 9   3887427.248 8
  20723800.066    20723807.017   -16094454.830 8 -13773559.396 7
 90  2 23  6 58 44.0800000  0  4G 6G12G11G13
  22976484.013    22976490.071    16575228.794 9   3237587.119 8
  21088781.431    21088786.028   -41954128.351 9  43555219.119 9
  22098342.234    22098348.131     6789349.779 8   3911757.231 7
  20723533.697    20723536.488   -16095859.123 9 -13774653.640 7
 90  2 23  6 58 59.0800000  0  4G 6G12G11G13
  22987076.471    22987079.853    16630885.639 9   3280956.074 8
  21083937.061    21083941.562   -41979583.991 9  43535383.566 8
  22104289.535    22104295.432     6820599.189 8   3936107.406 9
  20723283.676    20723287.622   -16097176.571 8 -13775680.226 7
 90  2 23  6 59 14.0800000  0  4G 6G12G11G13
  22997682.530    22997686.513    16686619.285 8   3324384.858 8
  21079117.622    21079121.897   -42004912.168 9  43515647.330 8
  22110240.928    22110246.382     6851874.326 9   3960477.651 8
  20723048.665    20723054.093   -16098407.238 9 -13776639.201 7
 90  2 23  6 59 29.0800000  0  4G 6G12G11G13
  23008302.283    23008305.858    16742429.307 9   3367873.141 9
  21074321.674    21074326.403   -42030112.597 9  43496010.639 8
  22116197.015    22116201.481     6883175.063 9   3984867.827 8
  20722830.343    20722836.389   -16099551.475 9 -13777530.795 8
 90  2 23  6 59 44.0800000  0  4G 6G12G11G13
  23018935.359    23018941.380    16798315.195 9   3411420.567 8
  21069549.494    21069555.186   -42055185.006 9  43476473.707 8
  22122158.539    22122163.793     6914501.092 8   4009277.703 8
  20722629.738    20722633.474   -16100609.462 8 -13778355.185 7
 90  2 23  6 59 59.0800000  0  4G 6G12G11G13
  23029585.991    23029590.431    16854277.039 9   3455027.162 9
  21064804.416    21064808.741   -42080128.706 9  43457037.068 8
  22128124.757    22128129.610     6945852.477 9   4033707.353 8
  20722443.576    20722450.678   -16101581.139 8 -13779112.342 7
 90  2 23  7  0 14.0800000  0  4G 6G12G11G13
  23040248.829    23040252.804    16910314.040 8   3498692.349 8
  21060081.488    21060087.165   -42104943.686 9  43437700.727 7
  22134095.697    22134099.719     6977228.787 8   4058156.423 8
  20722276.470    20722281.733   -16102466.747 9 -13779802.432 7
 90  2 23  7  0 29.0800000  0  4G 6G12G11G13
  23050925.876    23050932.455    16966426.020 7   3542415.931 8
  21055383.752    21055388.424   -42129629.704 9  43418464.879 7
  22140071.101    22140074.465     7008629.676 9   4082624.656 7
  20722124.638    20722128.975   -16103266.577 8 -13780425.661 8
 90  2 23  7  0 44.0800000  0  4G 6G12G11G13
  23061617.461    23061624.556    17022612.439 8   3586197.528 7
  21050710.724    21050715.646   -42154186.455 9  43399329.759 8
  22146050.340    22146055.236     7040054.987 8   4107111.896 8
  20721987.306    20721993.682   -16103980.846 9 -13780982.225 8
 90  2 23  7  0 59.0800000  0  4G 6G12G11G13
  23072323.606    23072330.214    17078873.225 8   3630037.059 8
  21046062.984    21046067.803   -42178613.401 9  43380295.776 8
  22152034.902    22152039.898     7071504.625 9   4131618.111 8
  20721868.003    20721873.005   -16104609.665 9 -13781472.213 8
 90  2 23  7  1 14.0800000  0  4G 6G12G11G13
  23083044.281    23083050.568    17135207.978 8   3673934.249 7
  21041439.108    21041444.009   -42202910.246 9  43361363.175 7
  22158023.127    22158029.339     7102978.462 8   4156143.165 8
  20721765.872    20721769.339   -16105152.978 8 -13781895.574 7
 90  2 23  7  1 29.0800000  0  4G 6G12G11G13
  23093777.914    23093783.900    17191616.450 8   3717888.858 8
  21036840.549    21036845.153   -42227076.813 9  43342532.077 7
  22164017.420    22164023.360     7134476.252 9   4180686.897 8
  20721677.316    20721683.720   -16105610.945 8 -13782252.432 6
 90  2 23  7  1 44.0800000  0  4G 6G12G11G13
  23104526.657    23104532.593    17248097.952 9   3761900.410 8
  21032266.662    21032270.926   -42251113.108 9  43323802.509 8
  22170015.604    22170021.458     7165997.662 8   4205249.027 8
  20721607.877    20721611.973   -16105984.115 9 -13782543.213 7
 90  2 23  7  1 59.0800000  0  4G 6G12G11G13
  23115288.236    23115295.825    17304652.225 8   3805968.622 8
  21027717.705    21027722.030   -42275018.671 8  43305174.807 7
  22176019.112    22176024.565     7197542.445 9   4229829.381 9
  20721552.064    20721557.291   -16106272.828 9 -13782768.184 6
 90  2 23  7  2 14.0800000  0  4G 6G12G11G13
  23126063.766    23126068.858    17361278.772 9   3850093.189 8
  21023194.265    21023198.501   -42298793.224 8  43286649.173 8
  22182027.227    22182031.879     7229110.348 8   4254427.743 8
  20721512.449    20721518.209   -16106477.217 8 -13782927.445 7
 90  2 23  7  2 29.0800000  0  4G 6G12G11G13
  23136853.484    23136860.951    17417977.320 8   3894273.835 8
  21018694.457    21018699.119   -42322436.453 9  43268225.881 8
  22188039.348    22188043.514     7260700.990 8   4279043.816 9
  20721490.799    20721495.726   -16106597.353 9 -13783021.054 7
 90  2 23  7  2 44.0800000  0  4G 6G12G11G13
  23147658.090    23147662.838    17474747.376 9   3938510.216 9
  21014220.814    21014225.081   -42345948.060 9  43249905.163 7
  22194054.303    22194058.783     7292314.183 9   4303677.476 8
  20721483.347    20721489.050   -16106633.718 9 -13783049.377 7
 90  2 23  7  2 59.0800000  0  4G 6G12G11G13
  23158472.047    23158479.543    17531588.821 8   3982802.221 7
  21009771.388    21009776.014   -42369327.751 9  43231687.226 8
  22200074.638    22200079.519     7323949.922 8   4328328.695 8
  20721492.158    20721497.035   -16106586.082 9 -13783012.252 8
 90  2 23  7  3 14.0800000  0  4G 6G12G11G13
  23169304.063    23169310.628    17588501.161 8   4027149.477 8
  21005346.718    21005352.241   -42392575.412 8  43213572.173 8
  22206097.377    22206102.788     7355608.048 8   4352997.357 8
  20721516.566    20721523.146   -16106454.692 9 -13782909.872 6
 90  2 23  7  3 29.0800000  0  4G 6G12G11G13
  23180147.118    23180152.353    17645484.192 8   4071551.815 8
  21000948.709    21000953.517   -42415690.408 9  43195560.477 7
  22212125.582    22212132.653     7387288.441 8   4377683.387 7
  20721558.317    20721562.363   -16106239.895 8 -13782742.481 8
 90  2 23  7  3 44.0800000  0  4G 6G12G11G13
  23191005.341    23191008.465    17702537.462 9   4116008.894 8
  20996574.550    20996579.837   -42438672.727 9  43177652.169 8
  22218159.082    22218163.977     7418990.688 9   4402386.423 8
  20721615.321    20721620.165   -16105941.779 9 -13782510.182 7
 90  2 23  7  3 59.0800000  0  4G 6G12G11G13
  23201875.269    23201881.376    17759661.055 8   4160520.750 7
  20992226.144    20992232.823   -42461521.649 8  43159847.829 8
  22224196.216    22224201.569     7450715.032 8   4427106.678 8
  20721687.572    20721691.336   -16105560.231 9 -13782212.853 7
 90  2 23  7  4 14.0800000  0  4G 6G12G11G13
  23212757.631    23212762.365    17816854.089 8   4205086.698 7
  20987905.079    20987909.705   -42484237.274 8  43142147.354 8
  22230238.644    22230242.008     7482460.899 9   4451843.708 8
  20721775.122    20721781.205   -16105095.836 8 -13781850.998 7
 90  2 23  7  4 29.0800000  0  4G 6G12G11G13
  23223654.789    23223660.525    17874116.056 9   4249706.419 9
  20983608.018    20983612.293   -42506819.446 9  43124550.853 8
  22236282.618    22236288.272     7514227.950 9   4476597.253 8
  20721880.921    20721883.240   -16104548.915 8 -13781424.820 8
 90  2 23  7  4 44.0800000  0  4G 6G12G11G13
  23234563.695    23234569.632    17931446.606 7   4294379.514 8
  20979334.846    20979340.237   -42529267.893 8  43107058.559 7
  22242332.058    22242337.769     7546015.968 9   4501367.145 8
  20722000.771    20722004.564   -16103919.704 9 -13780934.520 7
 90  2 23  7  4 59.0800000  0  4G 6G12G11G13
  23245488.757    23245492.110    17988845.393 8   4339105.828 7
  20975088.228    20975093.823   -42551582.368 8  43089670.662 8
  22248385.304    22248390.214     7577824.713 9   4526153.168 8
  20722135.707    20722139.092   -16103208.293 9 -13780380.175 7
 90  2 23  7  5 14.0800000  0  4G 6G12G11G13
  23256422.425    23256428.926    18046312.183 8   4383885.107 7
  20970868.197    20970872.833   -42573762.429 9  43072387.485 7
  22254441.040    22254446.866     7609654.119 9   4550955.302 8
  20722285.742    20722292.834   -16102414.893 8 -13779761.948 6
 90  2 23  7  5 29.0800000  0  4G 6G12G11G13
  23267371.003    23267376.667    18103846.529 9   4428717.028 9
  20966672.327    20966677.303   -42595807.770 9  43055209.318 8
  22260502.070    22260507.467     7641504.020 9   4575773.402 9
  20722452.026    20722455.605   -16101539.660 9 -13779079.932 7
 90  2 23  7  5 44.0800000  0  4G 6G12G11G13
  23278331.458    23278337.330    18161448.068 9   4473601.311 7
  20962503.931    20962508.059   -42617718.225 8  43038136.237 8
  22266567.594    22266572.776     7673374.087 8   4600607.227 8
  20722634.655    20722639.571   -16100582.686 8 -13778334.236 8
 90  2 23  7  5 59.0800000  0  4G 6G12G11G13
  23289306.730    23289313.868    18219116.399 9   4518537.644 8
  20958360.482    20958365.749   -42639493.596 8  43021168.423 7
  22272635.350    22272640.889     7705263.999 9   4625456.496 8
  20722832.089    20722836.322   -16099544.312 8 -13777525.102 7
 90  2 23  7  6 14.0800000  0  4G 6G12G11G13
  23300292.562    23300298.992    18276851.422 8   4563525.936 8
  20954242.723    20954248.357   -42661133.168 9  43004306.423 7
  22278707.913    22278712.565     7737173.912 9   4650321.356 8
  20723046.183    20723049.676   -16098424.378 9 -13776652.439 7
 90  2 23  7  6 29.0800000  0  4G 6G12G11G13
  23311291.337    23311297.652    18334652.538 8   4608565.726 7
  20950150.169    20950154.791   -42682637.013 9  42987550.160 7
  22284782.537    22284788.935     7769103.272 8   4675201.380 9
  20723274.054    20723277.711   -16097223.479 9 -13775716.653 6
 90  2 23  7  6 44.0800000  0  4G 6G12G11G13
  23322303.806    23322309.835    18392519.219 8   4653656.631 8
  20946083.922    20946087.803   -42704004.997 8  42970899.799 7
  22290863.686    22290868.711     7801052.043 9   4700096.517 8
  20723517.950    20723523.077   -16095941.830 9 -13774717.967 7
 90  2 23  7  6 59.0800000  0  4G 6G12G11G13
  23333326.727    23333334.152    18450451.401 8   4698798.542 9
  20942043.128    20942048.651   -42725236.727 8  42954355.599 8
  22296947.125    22296952.407     7833019.997 9   4725006.599 8
  20723777.390    20723780.217   -16094579.649 9 -13773656.520 7
 90  2 23  7  7 14.0800000  0  4G 6G12G11G13
  23344364.066    23344370.202    18508448.505 8   4743991.043 9
  20938028.584    20938033.724   -42746331.783 9  42937917.898 7
  22303033.454    22303037.763     7865006.876 8   4749931.441 8
  20724051.601    20724056.410   -16093136.943 9 -13772532.336 7
 90  2 23  7  7 29.0800000  0  4G 6G12G11G13
  23355411.592    23355418.050    18566510.244 8   4789233.930 8
  20934041.631    20934045.613   -42767290.082 8  42921586.755 8
  22309124.019    22309128.156     7897012.670 9   4774871.022 8
  20724341.637    20724347.677   -16091613.837 9 -13771345.496 8
 90  2 23  7  7 44.0800000  0  4G 6G12G11G13
  23366474.558    23366480.515    18624636.211 7   4834526.837 8
  20930078.486    20930082.929   -42788111.521 8  42905362.268 7
  22315218.676    22315223.113     7929036.959 9   4799825.000 8
  20724646.699    20724651.633   -16090010.769 9 -13770096.359 7
 90  2 23  7  7 59.0800000  0  4G 6G12G11G13
  23377547.869    23377553.999    18682826.042 8   4879869.538 7
  20926143.129    20926148.205   -42808795.616 9  42889244.776 8
  22321316.194    22321321.176     7961079.596 8   4824793.283 8
  20724967.039    20724970.141   -16088327.921 9 -13768785.021 6
 90  2 23  7  8 14.0800000  0  4G 6G12G11G13
  23388631.083    23388637.827    18741079.433 8   4925261.744 8
  20922234.262    20922238.340   -42829342.154 9  42873234.499 8
  22327416.261    22327422.229     7993140.262 9   4849775.631 8
  20725301.512    20725307.269   -16086565.447 8 -13767411.674 6
 90  2 23  7  8 29.0800000  0  4G 6G12G11G13
  23399730.881    23399735.200    18799395.912 8   4970703.115 8
  20918349.717    20918354.722   -42849750.836 9  42857331.631 7
  22333520.047    22333526.230     8025218.934 9   4874771.978 8
  20725652.646    20725656.535   -16084723.537 8 -13765976.404 8
 90  2 23  7  8 44.0800000  0  4G 6G12G11G13
  23410838.234    23410844.692    18857775.358 8   5016193.545 8
  20914492.607    20914496.731   -42870021.303 9  42841536.464 7
  22339628.097    22339634.252     8057315.394 9   4899782.200 8
  20726018.771    20726023.079   -16082802.268 8 -13764479.302 8
 90  2 23  7  8 59.0800000  0  4G 6G12G11G13
  23421959.717    23421966.676    18916217.135 8   5061732.571 8
  20910661.092    20910666.014   -42890153.409 9  42825849.113 8
  22345739.983    22345745.579     8089429.482 9   4924806.167 7
  20726399.289    20726403.650   -16080801.718 8 -13762920.431 8
 90  2 23  7  9 14.0800000  0  4G 6G12G11G13
  23433092.333    23433099.786    18974720.850 8   5107319.856 9
  20906857.719    20906859.765   -42910146.931 9  42810269.751 8
  22351854.930    22351860.341     8121560.967 9   4949843.683 8
  20726794.913    20726799.010   -16078722.355 9 -13761300.155 7
 90  2 23  7  9 29.0800000  0  4G 6G12G11G13
  23444238.607    23444244.157    19033286.420 8   5152955.304 8
  20903079.842    20903082.446   -42930001.429 9  42794798.710 7
  22357971.594    22357977.835     8153709.773 9   4974894.705 8
  20727204.582    20727209.551   -16076564.249 9 -13759618.500 6
 90  2 23  7  9 44.0800000  0  4G 6G12G11G13
  23455394.711    23455400.798    19091913.354 8   5198638.612 7
  20899327.757    20899331.849   -42949716.583 9  42779436.249 8
  22364093.897    22364097.948     8185875.702 8   4999959.045 8
  20727630.201    20727634.921   -16074327.671 8 -13757875.720 7
 90  2 23  7  9 59.0800000  0  4G 6G12G11G13
  23466561.025    23466569.716    19150601.202 7   5244369.344 8
  20895601.869    20895607.306   -42969292.346 9  42764182.417 7
  22370217.000    22370222.125     8218058.476 9   5025036.533 8
  20728070.535    20728076.116   -16072012.787 9 -13756071.903 7
 90  2 23  7 10 14.0800000  0  4G 6G12G11G13
  23477741.756    23477747.785    19209349.400 8   5290147.119 9
  20891902.960    20891908.276   -42988728.605 9  42749037.275 8
  22376345.055    22376350.251     8250257.760 9   5050126.880 7
  20728526.222    20728531.485   -16069620.152 9 -13754207.499 7
 90  2 23  7 10 29.0800000  0  4G 6G12G11G13
  23488931.538    23488937.616    19268157.761 8   5335971.806 7
  20888231.504    20888235.568   -43008025.086 9  42734001.050 8
  22382475.657    22382479.780     8282473.532 9   5075230.071 8
  20728997.230    20729001.810   -16067149.755 8 -13752282.511 7
 90  2 23  7 10 44.0800000  0  4G 6G12G11G13
  23500134.197    23500141.277    19327025.843 8   5381842.989 7
  20884585.347    20884590.666   -43027181.571 9  42719073.930 8
  22388607.832    22388613.701     8314705.428 8   5100345.833 7
  20729482.476    20729487.178   -16064601.809 9 -13750297.098 7
 90  2 23  7 10 59.0800000  0  4G 6G12G11G13
  23511348.139    23511355.528    19385953.319 9   5427760.455 8
  20880966.534    20880971.811   -43046197.641 9  42704256.221 9
  22394745.102    22394750.327     8346953.385 8   5125474.099 9
  20729980.229    20729985.098   -16061976.412 9 -13748251.321 8
 90  2 23  7 11 14.0800000  0  4G 6G12G11G13
  23522571.826    23522579.279    19444939.777 8   5473723.914 8
  20877376.197    20877379.205   -43065073.075 9  42689548.079 8
  22400885.291    22400890.015     8379217.152 9   5150614.675 8
  20730495.009    20730500.358   -16059273.765 8 -13746145.363 6
 90  2 23  7 11 29.0800000  0  4G 6G12G11G13
  23533809.400    23533815.335    19503984.894 8   5519733.070 8
  20873810.408    20873813.241   -43083807.598 9  42674949.761 8
  22407027.884    22407032.522     8411496.658 9   5175767.540 8
  20731024.392    20731028.596   -16056493.983 9 -13743979.297 6
 90  2 23  7 11 44.0800000  0  4G 6G12G11G13
  23545056.289    23545061.488    19563088.251 9   5565787.605 8
  20870271.304    20870277.654   -43102401.011 9  42660461.386 7
  22413172.881    22413177.161     8443791.541 8   5200932.380 8
  20731566.481    20731573.386   -16053637.357 8 -13741753.339 7
 90  2 23  7 11 59.0800000  0  4G 6G12G11G13
  23556314.182    23556320.912    19622249.479 8   5611887.195 7
  20866760.905    20866766.418   -43120853.071 8  42646083.149 8
  22419320.997    22419325.792     8476101.636 8   5226109.067 8
  20732126.475    20732132.232   -16050704.122 9 -13739467.716 8
 90  2 23  7 12 14.0800000  0  4G 6G12G11G13
  23567583.300    23567588.635    19681468.365 9   5658031.797 8
  20863275.658    20863281.625   -43139163.433 8  42631815.340 8
  22425472.089    22425477.157     8508426.830 8   5251297.516 7
  20732700.063    20732704.578   -16047694.394 8 -13737122.470 6
 90  2 23  7 12 29.0800000  0  4G 6G12G11G13
  23578863.158    23578868.994    19740744.506 8   5704220.958 7
  20859819.205    20859824.052   -43157331.762 9  42617658.209 7
  22431626.044    22431631.841     8540766.933 8   5276497.604 8
  20733286.747    20733291.452   -16044608.454 8 -13734717.838 8
 90  2 23  7 12 44.0800000  0  4G 6G12G11G13
  23590154.362    23590159.254    19800077.359 9   5750454.312 8
  20856388.744    20856393.484   -43175358.043 8  42603611.761 7
  22437783.346    22437788.800     8573121.729 9   5301709.120 8
  20733888.305    20733892.234   -16041446.647 9 -13732254.090 7
 90  2 23  7 12 59.0800000  0  4G 6G12G11G13
  23601455.176    23601460.683    19859466.595 8   5796731.624 7
  20852986.469    20852990.011   -43193242.035 8  42589676.185 7
  22443943.740    22443948.320     8605491.099 8   5326931.991 8
  20734503.937    20734509.447   -16038208.963 9 -13729731.213 7
 90  2 23  7 13 14.0800000  0  4G 6G12G11G13
  23612767.351    23612773.802    19918911.901 8   5843052.602 7
  20849610.179    20849614.819   -43210983.419 9  42575851.734 7
  22450105.307    22450111.891     8637874.893 8   5352166.111 8
  20735134.682    20735139.602   -16034895.623 9 -13727149.382 7
 90  2 23  7 13 29.0800000  0  4G 6G12G11G13
  23624089.649    23624096.000    19978412.903 8   5889416.980 7
  20846260.394    20846266.218   -43228581.919 9  42562138.598 8
  22456270.107    22456276.620     8670272.810 8   5377411.231 8
  20735778.485    20735783.111   -16031506.850 8 -13724508.775 7
 90  2 23  7 13 44.0800000  0  4G 6G12G11G13
  23635422.823    23635428.845    20037969.220 8   5935824.469 8
  20842937.864    20842943.269   -43246037.458 8  42548536.897 8
  22462437.483    22462444.211     8702684.705 9   5402667.257 8
  20736437.956    20736443.731   -16028042.926 9 -13721809.609 6
 90  2 23  7 13 59.0800000  0  4G 6G12G11G13
  23646765.591    23646773.194    20097580.274 8   5982274.607 8
  20839643.845    20839649.232   -43263349.818 8  42535046.745 7
  22468608.294    22468614.549     8735110.359 9   5427933.992 9
  20737112.124    20737115.973   -16024503.960 8 -13719051.968 7
 90  2 23  7 14 14.0800000  0  4G 6G12G11G13
  23658121.594    23658127.767    20157245.850 8   6028767.228 8
  20836377.747    20836382.641   -43280518.794 8  42521668.335 8
  22474782.138    22474787.248     8767549.618 9   5453211.317 8
  20737800.138    20737804.339   -16020890.116 9 -13716235.978 7
 90  2 23  7 14 29.0800000  0  4G 6G12G11G13
  23669485.483    23669491.404    20216965.480 9   6075301.978 8
  20833137.856    20833142.736   -43297543.985 9  42508401.961 7
  22480956.698    22480962.938     8800002.335 8   5478499.142 9
  20738501.060    20738506.823   -16017201.874 9 -13713362.009 7
 90  2 23  7 14 44.0800000  0  4G 6G12G11G13
  23680859.595    23680866.075    20276738.896 8   6121878.612 7
  20829925.117    20829929.360   -43314425.241 9  42495247.726 7
  22487134.577    22487141.046     8832468.235 9   5503797.240 8
  20739217.249    20739222.230   -16013439.200 9 -13710430.065 7
 90  2 23  7 14 59.0800000  0  4G 6G12G11G13
  23692243.759    23692249.831    20336565.579 8   6168496.817 8
  20826740.245    20826745.658   -43331162.468 8  42482205.725 8
  22493315.436    22493321.544     8864947.186 7   5529105.505 8
  20739947.419    20739951.977   -16009602.433 8 -13707440.377 7
 90  2 23  7 15 14.0800000  0  4G 6G12G11G13
  23703638.341    23703645.493    20396445.360 8   6215156.340 7
  20823583.630    20823587.701   -43347755.265 9  42469276.270 8
  22499498.374    22499504.986     8897439.203 8   5554423.945 8
  20740691.367    20740696.971   -16005691.846 8 -13704393.158 8
 90  2 23  7 15 29.0800000  0  4G 6G12G11G13
  23715044.813    23715049.046    20456377.665 8   6261856.799 9
  20820452.353    20820457.848   -43364203.451 9  42456459.504 7
  22505683.550    22505690.135     8929943.780 9   5579752.171 9
  20741449.111    20741454.013   -16001707.840 9 -13701288.733 7
 90  2 23  7 15 44.0800000  0  4G 6G12G11G13
  23726457.975    23726464.061    20516362.125 8   6308597.907 7
  20817349.959    20817356.230   -43380506.876 9  42443755.551 7
  22511872.233    22511878.084     8962460.780 9   5605090.087 8
  20742221.364    20742226.309   -15997650.387 8 -13698127.076 7
 90  2 23  7 15 59.0800000  0  4G 6G12G11G13
  23737882.684    23737889.980    20576398.456 7   6355379.397 7
  20814274.506    20814280.945   -43396665.277 9  42431164.593 8
  22518063.327    22518067.425     8994990.095 8   5630437.594 9
  20743007.897    20743011.855   -15993519.538 9 -13694908.238 7
 90  2 23  7 16 14.0800000  0  4G 6G12G11G13
  23749317.697    23749323.568    20636486.128 8   6402200.917 8
  20811227.696    20811233.549   -43412678.472 9  42418686.775 8
  22524253.866    22524259.735     9027531.368 9   5655794.421 9
  20743808.167    20743812.139   -15989315.877 8 -13691632.658 7
 90  2 23  7 16 29.0800000  0  4G 6G12G11G13
  23760760.428    23760767.581    20696624.980 7   6449062.337 7
  20808208.969    20808213.820   -43428546.100 9  42406322.393 6
  22530448.920    22530455.429     9060084.642 8   5681160.591 8
  20744621.387    20744626.962   -15985039.327 9 -13688300.269 7
 90  2 23  7 16 44.0800000  0  4G 6G12G11G13
  23772215.466    23772221.710    20756814.519 8   6495963.227 8
  20805216.802    20805221.964   -43444268.000 9  42394071.565 7
  22536645.627    22536651.223     9092649.675 8   5706535.944 8
  20745449.875    20745453.375   -15980689.921 9 -13684911.112 8
 90  2 23  7 16 59.0800000  0  4G 6G12G11G13
  23783678.918    23783684.775    20817054.350 8   6542903.306 8
  20802253.333    20802257.590   -43459843.904 8  42381934.497 6
  22542845.260    22542850.169     9125226.347 9   5731920.354 7
  20746290.440    20746294.383   -15976267.926 9 -13681465.398 6
 90  2 23  7 17 14.0800000  0  3G12G11G13
  20799316.725    20799321.472   -43475273.729 9  42369911.257 8
  22549045.747    22549051.941     9157814.426 8   5757313.651 8
  20747146.438    20747150.509   -15971773.759 9 -13677963.454 8
 90  2 23  7 17 29.0800000  0  3G12G11G13
  20796408.271    20796413.787   -43490557.302 8  42358001.977 7
  22555250.649    22555255.727     9190413.790 9   5782715.741 8
  20748014.583    20748019.113   -15967207.603 9 -13674405.394 7
 90  2 23  7 17 44.0800000  0  4G 3G12G11G13
                  23818767.888   -56950747.915 1
  20793528.238    20793532.538   -43505694.261 8  42346206.958 7
  22561456.768    22561461.574     9223024.399 9   5808126.599 8
  20748897.132    20748901.275   -15962569.357 9 -13670791.199 8
 90  2 23  7 17 59.0800000  0  4G 3G12G11G13
                  23830331.104   -57055756.351 1
  20790675.157    20790679.772   -43520684.362 8  42334526.352 8
  22567663.459    22567668.329     9255645.970 8   5833546.001 8
  20749794.357    20749797.631   -15957859.498 8 -13667121.163 7
 90  2 23  7 18 14.0800000  0  4G 3G12G11G13
                  23843089.137   -57136795.681 1
  20787850.380    20787855.023   -43535527.561 8  42322960.234 8
  22573874.335    22573878.361     9288278.249 9   5858973.744 8
  20750703.678    20750707.796   -15953078.293 8 -13663395.548 7
 90  2 23  7 18 29.0800000  0  4G 3G12G11G13
                  23874291.347   -57075449.518 1
  20785054.245    20785057.951   -43550223.481 8  42311508.863 7
  22580086.206    22580089.745     9320921.266 9   5884409.844 8
  20751627.715    20751632.227   -15948225.723 9 -13659614.323 7
 90  2 23  7 18 44.0800000  0  4G 3G12G11G13
                  23907530.713   -57014017.406 1
  20782285.699    20782290.114   -43564772.123 8  42300172.266 7
  22586299.636    22586303.734     9353574.578 9   5909853.962 8
  20752563.376    20752568.470   -15943302.307 8 -13655777.885 7
 90  2 23  7 18 59.0800000  0  4G 3G12G11G13
                  23940846.118   -56952499.344 1
  20779544.741    20779550.465   -43579173.226 8  42288950.619 7
  22592514.290    22592519.626     9386238.145 8   5935306.095 8
  20753513.742    20753520.343   -15938308.071 8 -13651886.259 7
 90  2 23  7 19 14.0800000  0  4G 3G12G11G13
                  23973854.609   -56890895.333 1
  20776833.142    20776837.768   -43593426.470 9  42277844.214 7
  22598731.784    22598737.521     9418911.812 9   5960766.087 8
  20754477.660    20754483.026   -15933242.947 9 -13647939.415 8
 90  2 23  7 19 29.0800000  0  4G 3G12G11G13
                  24006675.049   -56829205.371 1
  20774149.053    20774153.392   -43607531.634 8  42266853.179 7
  22604951.225    22604958.134     9451595.287 8   5986233.717 8
  20755455.045    20755461.071   -15928107.506 9 -13643937.761 7
 90  2 23  7 19 44.0800000  0  4G 3G12G11G13
                  24039980.159   -56767429.459 1
  20771493.525    20771499.152   -43621488.536 8  42255977.663 8
  22611173.012    22611177.267     9484288.459 8   6011708.900 8
  20756445.842    20756450.716   -15922901.934 8 -13639881.466 7
 90  2 23  7 19 59.0800000  0  4G 3G12G11G13
                  24073448.547   -56705567.598 1
  20768865.785    20768869.895   -43635297.188 8  42245217.684 8
  22617396.373    22617401.551     9516991.073 8   6037191.449 8
  20757449.754    20757453.976   -15917626.663 9 -13635770.872 7
 90  2 23  7 20 14.0800000  0  4G 3G12G11G13
                  24106434.863   -56643619.787 1
  20766265.590    20766270.430   -43648957.460 9  42234573.322 7
  22623621.386    22623627.337     9549702.941 9   6062681.207 8
  20758466.901    20758470.927   -15912282.058 9 -13631606.233 8
 90  2 23  7 20 29.0800000  0  4G 3G12G11G13
                  24139554.812   -56581586.026 1
  20763694.643    20763699.841   -43662468.868 9  42224044.960 8
  22629848.353    22629852.956     9582424.080 8   6088178.192 8
  20759497.589    20759501.596   -15906867.649 9 -13627387.221 7
 90  2 23  7 20 44.0800000  0  4G 3G12G11G13
                  24172486.101   -56519466.315 1
  20761151.742    20761157.154   -43675831.306 8  42213632.661 7
  22636075.284    22636081.629     9615154.318 8   6113682.264 7
  20760540.382    20760545.488   -15901383.899 8 -13623114.171 7
 90  2 23  7 20 59.0800000  0  4G 3G12G11G13
                  24205755.824   -56457260.655 1
  20758637.016    20758642.056   -43689044.609 8  42203336.584 8
  22642305.106    22642310.524     9647893.330 8   6139193.178 8
  20761597.259    20761602.565   -15895831.026 9 -13618787.252 7
 90  2 23  7 21 14.0800000  0  4G 3G12G11G13
                  24238983.729   -56394969.044 1
  20756151.681    20756156.521   -43702108.545 9  42193156.886 7
  22648536.237    22648542.370     9680641.157 8   6164710.960 8
  20762666.911    20762670.406   -15890209.152 8 -13614406.560 7
 90  2 23  7 21 29.0800000  0  4G 3G12G11G13
                  24272315.282   -56332591.484 1
  20753694.235    20753699.261   -43715023.073 8  42183093.622 7
  22654770.834    22654775.948     9713397.512 9   6190235.375 7
  20763749.912    20763754.049   -15884518.667 9 -13609972.415 8
 90  2 23  7 21 44.0800000  0  4G 3G12G11G13
                  24305517.445   -56270127.974 1
  20751264.734    20751269.932   -43727787.794 8  42173147.082 8
  22661005.435    22661010.595     9746162.180 8   6215766.265 8
  20764845.875    20764850.437   -15878759.563 9 -13605484.787 8
 90  2 23  7 21 59.0800000  0  4G 3G12G11G13
                  24073727.856   -56207578.515 1
  20748864.353    20748869.594   -43740402.690 8  42163317.298 7
  22667242.572    22667247.604     9778935.026 8   6241303.546 8
  20765953.757    20765959.592   -15872932.029 9 -13600943.857 7
 90  2 23  7 22 14.0800000  0  4G 3G12G11G13
                  24226469.597   -56144943.105 1
  20746492.233    20746497.416   -43752867.479 8  42153604.479 8
  22673481.162    22673487.106     9811715.903 9   6266847.070 8
  20767076.603    20767080.779   -15867036.648 9 -13596350.048 6
 90  2 23  7 22 29.0800000  0  4G 3G12G11G13
                  24350131.800   -56082257.294 1
  20744148.516    20744153.799   -43765182.025 9  42144008.727 7
  22679720.671    22679725.059     9844504.585 9   6292396.686 8
  20768212.173    20768217.812   -15861073.492 8 -13591703.416 8
 90  2 23  7 22 44.0800000  0  3G12G11G13
  20741833.775    20741839.287   -43777346.226 8  42134530.147 6
  22685960.491    22685966.446     9877300.950 8   6317952.265 8
  20769358.858    20769364.182   -15855042.654 9 -13587004.072 7
 90  2 23  7 22 59.0800000  0  2G12G13
  20739547.422    20739553.211   -43789359.805 8  42125168.902 6
  20770519.557    20770523.661   -15848944.439 4 -13582252.217 4
 90  2 23  7 23 14.0800000  0  4G 3G12G11G13
                  23211747.125   -58774058.771 9
  20737290.257    20737295.853   -43801222.335 9  42115925.383 6
  22698446.771    22698452.625     9942916.224 7   6369081.043 8
  20771692.657    20771698.148   -15842779.178 9 -13577448.120 7
 90  2 23  7 23 29.0800000  0  4G 3G12G11G13
  23206223.299    23206228.415   -58803226.020 8  74763090.178 8
  20735062.387    20735066.596   -43812933.768 8  42106799.583 8
  22704691.220    22704696.981     9975734.893 8   6394654.013 8
  20772878.141    20772882.673   -15836547.034 8 -13572591.890 8
 90  2 23  7 23 44.0800000  0  4G 3G12G11G13
  23200684.941    23200689.097   -58832333.336 9  74740409.224 8
  20732862.821    20732867.788   -43824494.192 9  42097791.472 8
  22710937.927    22710944.439    10008560.486 7   6420232.367 8
  20774077.499    20774081.981   -15830248.133 9 -13567683.668 7
 90  2 23  7 23 59.0800000  0  4G 3G12G11G13
  23195157.808    23195162.344   -58861380.646 9  74717774.960 8
  20730689.827    20730695.309   -43835903.461 8  42088901.129 7
  22717185.334    22717191.668    10041392.915 8   6445816.083 7
  20775288.546    20775293.010   -15823882.531 9 -13562723.450 7
 90  2 23  7 24 14.0800000  0  4G 3G12G11G13
  23189640.684    23189646.415   -58890368.081 9  74695187.373 7
  20728549.330    20728553.424   -43847161.246 9  42080128.820 8
  22723435.385    22723441.193    10074232.068 7   6471405.030 8
  20776511.721    20776518.267   -15817450.542 9 -13557711.497 7
 90  2 23  7 24 29.0800000  0  4G 3G12G11G13
  23184136.897    23184141.454   -58919296.018 8  74672646.133 8
  20726435.877    20726440.071   -43858267.493 9  42071474.606 8
  22729686.188    22729691.391    10107077.674 8   6496998.991 8
  20777749.409    20777753.862   -15810952.481 9 -13552648.079 7
 90  2 23  7 24 44.0800000  0  4G 3G12G11G13
  23178642.718    23178647.039   -58948163.946 8  74650151.661 7
  20724350.412    20724355.078   -43869221.901 8  42062938.704 8
  22735938.393    22735942.823    10139929.827 8   6522598.062 8
  20778999.146    20779002.042   -15804388.403 9 -13547533.201 7
 90  2 23  7 24 59.0800000  0  4G 3G12G11G13
  23173160.802    23173165.231   -58976972.054 8  74627703.803 8
  20722295.455    20722298.618   -43880024.289 8  42054521.247 7
  22742189.446    22742195.965    10172788.384 9   6548202.118 8
  20780259.964    20780265.037   -15797758.519 9 -13542367.045 8
 90  2 23  7 25 14.0800000  0  4G 3G12G11G13
  23167689.003    23167695.599   -59005720.661 9  74605302.294 8
  20720267.899    20720273.810   -43890674.621 9  42046222.302 8
  22748443.350    22748450.409    10205653.134 9   6573811.017 8
  20781534.534    20781538.226   -15791063.036 8 -13537149.788 8
 90  2 23  7 25 29.0800000  0  4G 3G12G11G13
  23162230.346    23162235.219   -59034409.750 9  74582947.178 7
  20718269.993    20718274.788   -43901172.725 9  42038041.952 8
  22754698.788    22754704.854    10238523.800 8   6599424.506 8
  20782820.619    20782825.054   -15784302.500 9 -13531881.849 8
 90  2 23  7 25 44.0800000  0  4G 3G12G11G13
  23156782.679    23156787.616   -59063039.265 9  74560638.479 8
  20716300.604    20716307.674   -43911518.336 9  42029980.444 8
  22760955.415    22760960.485    10271400.217 8   6625042.488 8
  20784119.086    20784124.287   -15777476.806 8 -13526563.133 8
 90  2 23  7 25 59.0800000  0  4G 3G12G11G13
  23151345.895    23151350.238   -59091609.130 9  74538376.248 8
  20714361.380    20714368.006   -43921711.289 8  42022037.883 8
  22767212.327    22767218.010    10304282.357 9   6650664.921 9
  20785430.480    20785435.487   -15770585.999 8 -13521193.649 7
 90  2 23  7 26 14.0800000  0  4G 3G12G11G13
  23145920.522    23145925.000   -59120119.456 9  74516160.425 8
  20712450.029    20712456.384   -43931751.555 9  42014214.299 7
  22773471.282    22773476.095    10337169.951 9   6676291.608 8
  20786754.384    20786757.761   -15763630.646 9 -13515773.904 6
 90  2 23  7 26 29.0800000  0  4G 3G12G11G13
  23140506.238    23140512.126   -59148570.481 8  74493990.801 7
  20710568.642    20710574.611   -43941638.797 9  42006509.953 7
  22779730.366    22779736.764    10370062.929 7   6701922.483 8
  20788089.632    20788094.984   -15756610.753 8 -13510303.859 8
 90  2 23  7 26 44.0800000  0  4G 3G12G11G13
  23135103.674    23135109.419   -59176962.057 8  74471867.508 8
  20708717.992    20708722.229   -43951373.041 8  41998924.830 7
  22785990.055    22785996.714    10402961.038 9   6727557.366 8
  20789438.285    20789442.523   -15749526.548 9 -13504783.707 7
 90  2 23  7 26 59.0800000  0  4G 3G12G11G13
  23129712.507    23129718.252   -59205294.303 8  74449790.465 8
  20706894.987    20706899.267   -43960953.983 8  41991459.165 8
  22792251.739    22792257.411    10435864.174 8   6753196.168 8
  20790799.561    20790803.224   -15742378.293 8 -13499213.636 8
 90  2 23  7 27 14.0800000  0  4G 3G12G11G13
  23124331.771    23124337.166   -59233567.149 8  74427759.694 8
  20705102.088    20705104.636   -43970381.402 9  41984113.112 7
  22798514.383    22798520.233    10468772.321 9   6778838.857 8
  20792170.836    20792177.153   -15735166.233 9 -13493593.845 6
 90  2 23  7 27 29.0800000  0  4G 3G12G11G13
  23118962.426    23118968.672   -59261780.689 8  74405775.153 9
  20703336.319    20703340.799   -43979655.223 9  41976886.776 8
  22804778.224    22804783.220    10501685.330 9   6804485.352 7
  20793554.460    20793558.992   -15727890.699 8 -13487924.587 8
 90  2 23  7 27 44.0800000  0  4G 3G12G11G13
  23113605.350    23113609.686   -59289934.977 8  74383836.754 8
  20701601.001    20701606.468   -43988775.302 8  41969780.208 7
  22811041.894    22811047.040    10534603.027 8   6830135.491 8
  20794952.110    20794957.626   -15720551.657 8 -13482205.838 8
 90  2 23  7 27 59.0800000  0  4G 3G12G11G13
  23108259.257    23108264.451   -59318030.123 7  74361944.450 7
  20699893.971    20699898.952   -43997741.591 9  41962793.490 7
  22817306.355    22817311.386    10567525.114 8   6855789.051 7
  20796360.989    20796366.187   -15713149.480 8 -13476437.922 7
 90  2 23  7 28 14.0800000  0  4G 3G12G11G13
  23102923.145    23102928.167   -59346066.280 7  74340098.107 8
  20698217.449    20698221.657   -44006553.885 9  41955926.773 8
  22823573.130    22823577.367    10600451.556 8   6881446.015 7
  20797781.109    20797785.297   -15705684.311 9 -13470620.909 7
 90  2 23  7 28 29.0800000  0  4G 3G12G11G13
  23097600.347    23097605.391   -59374043.184 8  74318297.927 8
  20696570.017    20696574.498   -44015212.145 9  41949180.074 8
  22829838.882    22829843.888    10633382.230 8   6907106.262 8
  20799214.629    20799217.923   -15698156.458 8 -13464755.023 7
 90  2 23  7 28 44.0800000  0  4G 3G12G11G13
  23092288.060    23092292.417   -59401961.170 8  74296543.671 7
  20694951.304    20694955.556   -44023716.071 9  41942553.632 7
  22836105.804    22836110.878    10666316.798 8   6932769.540 8
  20800658.065    20800661.817   -15690566.140 9 -13458840.495 7
 90  2 23  7 28 59.0800000  0  4G 3G12G11G13
  23086986.375    23086991.583   -59429820.331 8  74274835.252 7
  20693361.839    20693367.693   -44032065.685 8  41936047.443 7
  22842372.693    22842378.916    10699255.161 9   6958435.789 8
  20802114.934    20802118.772   -15682913.413 9 -13452877.341 8
 90  2 23  7 29 14.0800000  0  4G 3G12G11G13
  23081693.991    23081701.439   -59457620.571 8  74253172.741 8
  20691803.769    20691807.276   -44040260.744 9  41929661.682 6
  22848642.806    22848647.813    10732197.243 9   6984104.927 8
  20803582.281    20803588.111   -15675198.447 9 -13446865.682 7
 90  2 23  7 29 29.0800000  0  4G 3G12G11G13
  23076416.454    23076422.650   -59485361.963 8  74231556.073 8
  20690273.544    20690277.509   -44048301.143 8  41923396.429 7
  22854911.055    22854917.560    10765142.845 9   7009776.827 8
  20805062.588    20805065.479   -15667421.604 9 -13440805.784 7
 90  2 23  7 29 44.0800000  0  4G 3G12G11G13
  23071148.474    23071153.626   -59513044.595 8  74209985.214 8
  20688773.125    20688777.162   -44056186.749 8  41917251.804 8
  22861181.318    22861187.594    10798091.946 8   7035451.443 8
  20806554.579    20806559.043   -15659583.122 9 -13434697.886 7
 90  2 23  7 29 59.0800000  0  4G 3G12G11G13
  23065890.562    23065897.774   -59540668.431 8  74188460.154 8
  20687300.909    20687305.518   -44063917.372 8  41911227.951 7
  22867452.300    22867458.433    10831044.408 9   7061128.664 8
  20808057.523    20808061.290   -15651683.088 9 -13428542.010 7
 90  2 23  7 30 14.0800000  0  4G 3G12G11G13
  23060647.159    23060651.380   -59568233.506 9  74166980.900 8
  20685859.144    20685864.640   -44071492.760 9  41905325.050 8
  22873725.067    22873729.186    10864000.072 9   7086808.393 8
  20809573.446    20809576.844   -15643721.833 9 -13422338.425 7
 90  2 23  7 30 29.0800000  0  4G 3G12G11G13
  23055412.714    23055418.745   -59595739.902 9  74145547.362 8
  20684448.315    20684452.409   -44078912.862 8  41899543.151 8
  22879994.962    22880001.342    10896958.759 9   7112490.475 9
  20811097.923    20811102.176   -15635699.521 9 -13416087.278 8
 90  2 23  7 30 44.0800000  0  4G 3G12G11G13
  23050189.987    23050194.702   -59623187.687 8  74124159.485 8
  20683065.675    20683070.627   -44086177.572 8  41893882.336 7
  22886268.412    22886272.363    10929920.339 9   7138174.812 8
  20812635.964    20812641.716   -15627616.173 9 -13409788.562 8
 90  2 23  7 30 59.0800000  0  4G 3G12G11G13
  23044978.207    23044983.402   -59650577.064 8  74102817.136 8
  20681712.097    20681717.435   -44093286.933 9  41888342.569 7
  22892540.761    22892545.874    10962884.625 9   7163861.256 8
  20814187.431    20814191.044   -15619472.186 9 -13403442.601 8
 90  2 23  7 31 14.0800000  0  4G 3G12G11G13
  23039776.594    23039782.955   -59677907.760 7  74081520.526 9
  20680388.840    20680395.410   -44100240.580 8  41882924.148 8
  22898815.270    22898820.316    10995851.572 9   7189549.767 8
  20815748.257    20815752.928   -15611267.609 9 -13397049.411 8
 90  2 23  7 31 29.0800000  0  4G 3G12G11G13
  23034587.766    23034592.395   -59705180.035 8  74060269.409 8
  20679094.960    20679101.286   -44107038.374 8  41877627.162 8
  22905088.742    22905094.235    11028821.242 8   7215240.408 8
  20817321.152    20817324.271   -15603002.602 9 -13390609.146 7
 90  2 23  7 31 44.0800000  0  4G 3G12G11G13
  23029408.368    23029413.047   -59732393.829 9  74039063.873 7
  20677833.118    20677836.325   -44113680.258 8  41872451.666 7
  22911363.315    22911369.456    11061793.285 8   7240932.899 8
  20818905.522    20818909.486   -15594677.471 9 -13384122.026 7
 90  2 23  7 31 59.0800000  0  4G 3G12G11G13
  23024241.262    23024246.857   -59759549.343 8  74017903.750 8
  20676597.806    20676601.442   -44120166.247 9  41867397.639 7
  22917636.830    22917642.670    11094767.384 9   7266627.005 9
  20820501.080    20820506.138   -15586292.780 9 -13377588.499 7
 90  2 23  7 32 14.0800000  0  4G 3G12G11G13
  23019083.578    23019089.044   -59786646.649 8  73996788.978 7
  20675393.144    20675398.125   -44126496.137 9  41862465.259 7
  22923913.135    22923917.980    11127743.479 8   7292322.643 9
  20822107.183    20822112.273   -15577848.477 9 -13371008.530 7
 90  2 23  7 32 29.0800000  0  4G 3G12G11G13
  23013939.988    23013943.465   -59813685.903 9  73975719.451 8
  20674217.958    20674221.737   -44132670.026 9  41857654.436 7
  22930188.116    22930193.692    11160721.441 9   7318019.743 9
  20823726.454    20823729.033   -15569344.799 9 -13364382.278 7
 90  2 23  7 32 44.0800000  0  4G 3G12G11G13
  23008803.253    23008809.048   -59840666.955 9  73954695.265 8
  20673073.166    20673077.174   -44138687.515 9  41852965.485 8
  22936464.894    22936469.435    11193701.153 9   7343718.206 9
  20825355.473    20825360.267   -15560781.827 9 -13357709.838 6
 90  2 23  7 32 59.0800000  0  4G 3G12G11G13
  23003680.977    23003687.087   -59867589.761 9  73933716.487 8
  20671958.065    20671962.030   -44144548.526 8  41848398.469 8
  22942740.773    22942745.239    11226682.609 9   7369418.048 8
  20826996.631    20827000.558   -15552159.801 9 -13350991.359 8
 90  2 23  7 33 14.0800000  0  4G 3G12G11G13
  22998567.852    22998574.534   -59894454.528 8  73912782.916 8
  20670872.355    20670878.566   -44150252.974 8  41843953.434 7
  22949016.574    22949021.541    11259665.608 9   7395119.047 8
  20828647.904    20828651.460   -15543478.856 8 -13344226.994 7
 90  2 23  7 33 29.0800000  0  4G 3G12G11G13
  22993466.410    22993473.665   -59921261.361 9  73891894.487 8
  20669816.537    20669821.832   -44155800.739 8  41839630.502 7
  22955293.533    22955299.033    11292649.864 9   7420821.056 8
  20830311.115    20830314.928   -15534739.388 8 -13337417.020 8
 90  2 23  7 33 44.0800000  0  4G 3G12G11G13
  22988377.361    22988381.918   -59948010.465 8  73871051.054 7
  20668790.139    20668797.122   -44161191.916 8  41835429.582 7
  22961570.067    22961575.703    11325635.411 9   7446524.047 8
  20831985.598    20831990.799   -15525941.468 9 -13330561.497 7
 90  2 23  7 33 59.0800000  0  4G 3G12G11G13
  22983298.284    22983303.385   -59974701.681 8  73850252.714 8
  20667794.290    20667800.258   -44166426.358 8  41831350.808 8
  22967847.192    22967853.668    11358622.189 8   7472228.021 8
  20833670.491    20833674.472   -15517085.469 9 -13323660.707 8
 90  2 23  7 34 14.0800000  0  4G 3G12G11G13
  22978230.398    22978234.755   -60001334.820 9  73829499.632 7
  20666827.475    20666832.814   -44171503.707 9  41827394.439 6
  22974123.271    22974130.531    11391610.159 8   7497932.903 8
  20835367.486    20835370.616   -15508171.453 9 -13316714.709 8
 90  2 23  7 34 29.0800000  0  4G 3G12G11G13
  22973173.651    22973178.129   -60027910.265 9  73808791.512 8
  20665891.941    20665897.451   -44176423.944 8  41823560.486 7
  22980402.449    22980408.807    11424599.163 8   7523638.617 9
  20837074.591    20837077.792   -15499199.700 9 -13309723.744 7
 90  2 23  7 34 44.0800000  0  4G 3G12G11G13
  22968126.884    22968131.821   -60054427.984 9  73788128.375 8
  20664985.840    20664988.932   -44181186.899 9  41819849.078 7
  22986678.546    22986685.889    11457588.985 8   7549344.955 8
  20838792.538    20838795.940   -15490170.515 8 -13302688.019 7
 90  2 23  7 34 59.0800000  0  4G 3G12G11G13
  22963092.961    22963097.046   -60080888.019 9  73767510.173 8
  20664109.774    20664114.239   -44185792.575 8  41816260.240 7
  22992957.617    22992964.004    11490579.323 8   7575051.703 8
  20840521.629    20840526.343   -15481083.975 9 -13295607.595 7
 90  2 23  7 35 14.0800000  0  4G 3G12G11G13
  22958068.145    22958072.988   -60107290.637 8  73746936.729 8
  20663262.669    20663268.251   -44190240.836 8  41812794.062 8
  22999236.158    22999241.933    11523570.078 8   7600758.762 8
  20842261.036    20842266.602   -15471940.109 8 -13288482.494 8
 90  2 23  7 35 29.0800000  0  4G 3G12G11G13
  22953054.540    22953060.465   -60133635.562 8  73726408.237 8
  20662446.845    20662451.969   -44194531.565 9  41809450.638 7
  23005513.439    23005519.662    11556561.296 8   7626466.191 8
  20844012.671    20844016.874   -15462739.187 9 -13281312.931 7
 90  2 23  7 35 44.0800000  0  4G 3G12G11G13
  22948052.011    22948057.262   -60159923.233 9  73705924.356 7
  20661657.851    20661664.821   -44198664.787 9  41806229.946 8
  23011791.036    23011797.680    11589552.685 9   7652173.748 8
  20845773.864    20845779.427   -15453481.647 8 -13274099.278 7
 90  2 23  7 35 59.0800000  0  4G 3G12G11G13
  22943060.528    22943065.394   -60186153.628 8  73685485.110 8
  20660902.397    20660907.092   -44202640.437 8  41803132.024 8
  23018069.347    23018075.223    11622544.079 8   7677881.321 8
  20847546.255    20847550.744   -15444167.718 9 -13266841.661 8
 90  2 23  7 36 14.0800000  0  4G 3G12G11G13
  22938080.422    22938084.371   -60212326.636 8  73665090.572 8
  20660176.749    20660182.017   -44206458.461 9  41800156.957 7
  23024347.277    23024353.954    11655535.477 8   7703588.877 8
  20849329.613    20849334.807   -15434797.610 9 -13259540.281 7
 90  2 23  7 36 29.0800000  0  4G 3G12G11G13
  22933109.888    22933116.985   -60238442.322 9  73644740.700 8
  20659479.763    20659484.644   -44210118.547 9  41797304.918 7
  23030624.855    23030633.020    11688526.710 9   7729296.313 8
  20851121.961    20851127.637   -15425371.223 9 -13252195.044 7
 90  2 23  7 36 44.0800000  0  4G 3G12G11G13
  22928150.043    22928157.140   -60264501.030 8  73624435.238 8
  20658813.470    20658819.495   -44213620.867 8  41794575.847 8
  23036903.668    23036910.298    11721517.721 8   7755003.578 8
  20852927.173    20852932.277   -15415888.903 9 -13244806.209 7
 90  2 23  7 36 59.0800000  0  4G 3G12G11G13
  22923202.732    22923208.048   -60290502.546 9  73604174.338 8
  20658177.755    20658181.906   -44216965.029 8  41791970.002 8
  23043182.659    23043186.460    11754508.435 8   7780710.625 8
  20854742.222    20854747.434   -15406350.820 9 -13237373.941 6
 90  2 23  7 37 14.0800000  0  4G 3G12G11G13
  22918266.290    22918271.348   -60316446.953 8  73583957.924 8
  20657571.918    20657576.857   -44220151.252 8  41789487.237 8
  23049458.811    23049464.701    11787498.627 8   7806417.256 8
  20856567.864    20856571.902   -15396757.286 9 -13229898.464 7
 90  2 23  7 37 29.0800000  0  4G 3G12G11G13
  22913340.179    22913345.924   -60342334.296 8  73563785.985 8
  20656994.886    20656999.681   -44223179.280 9  41787127.724 7
  23055738.214    23055743.091    11820488.132 8   7832123.348 8
  20858405.018    20858408.488   -15387108.746 9 -13222380.132 8
 90  2 23  7 37 44.0800000  0  4G 3G12G11G13
  22908424.821    22908431.868   -60368164.861 8  73543658.289 7
  20656449.691    20656454.272   -44226049.143 9  41784891.468 8
  23062016.086    23062020.369    11853476.785 8   7857828.764 7
  20860250.632    20860255.088   -15377405.174 9 -13214818.899 7
 90  2 23  7 37 59.0800000  0  4G 3G12G11G13
  22903519.838    22903525.554   -60393938.713 8  73523574.774 9
  20655932.686    20655937.882   -44228760.767 8  41782778.518 7
  23068292.906    23068298.399    11886464.578 8   7883533.530 8
  20862108.148    20862112.032   -15367646.770 9 -13207214.947 8
 90  2 23  7 38 14.0800000  0  4G 3G12G11G13
  22898626.087    22898631.717   -60419655.798 7  73503535.505 9
  20655446.331    20655452.343   -44231314.046 9  41780788.944 7
  23074570.327    23074575.974    11919451.444 8   7909237.577 8
  20863975.068    20863980.548   -15357833.508 9 -13199568.243 8
 90  2 23  7 38 29.0800000  0  4G 3G12G11G13
  22893743.247    22893749.371   -60445316.067 9  73483540.513 8
  20654989.667    20654996.308   -44233708.908 9  41778922.813 7
  23080845.401    23080852.998    11952437.297 9   7934940.827 8
  20865852.008    20865857.062   -15347965.858 9 -13191879.169 7
 90  2 23  7 38 44.0800000  0  4G 3G12G11G13
  22888870.766    22888877.027   -60470919.822 9  73463589.565 9
  20654564.799    20654569.866   -44235945.226 8  41777180.222 7
  23087121.663    23087128.966    11985421.939 8   7960643.137 7
  20867740.632    20867745.070   -15338043.828 9 -13184147.715 7
 90  2 23  7 38 59.0800000  0  4G 3G12G11G13
  22884010.241    22884015.013   -60496466.784 9  73443682.851 8
  20654170.409    20654174.532   -44238022.878 8  41775561.275 8
  23093399.260    23093404.645    12018405.382 9   7986344.511 8
  20869639.415    20869644.058   -15328067.764 9 -13176374.157 8
 90  2 23  7 39 14.0800000  0  4G 3G12G11G13
  22879159.597    22879164.755   -60521957.248 9  73423820.173 9
  20653805.081    20653809.590   -44239941.856 9  41774065.957 8
  23099677.185    23099681.952    12051387.298 9   8012044.704 8
  20871548.208    20871553.015   -15318037.843 8 -13168558.635 7
 90  2 23  7 39 29.0800000  0  4G 3G12G11G13
  22874319.935    22874324.378   -60547391.340 9  73404001.414 8
  20653470.046    20653474.555   -44241702.085 8  41772694.344 7
  23105951.680    23105957.431    12084367.612 9   8037743.645 7
  20873467.568    20873470.701   -15307954.314 9 -13160701.336 8
 90  2 23  7 39 44.0800000  0  4G 3G12G11G13
  22869490.153    22869493.780   -60572769.066 8  73384226.586 8
  20653165.117    20653170.484   -44243303.475 9  41771446.514 7
  23112227.903    23112233.460    12117346.425 9   8063441.413 8
  20875395.588    20875400.045   -15297817.354 9 -13152802.411 7
 90  2 23  7 39 59.0800000  0  4G 3G12G11G13
  22864671.726    22864676.355   -60598090.511 9  73364495.608 8
  20652891.668    20652895.433   -44244746.054 8  41770322.411 8
  23118503.307    23118509.701    12150323.382 9   8089137.722 8
  20877334.913    20877340.876   -15287627.065 9 -13144861.925 8
 90  2 23  7 40 14.0800000  0  4G 3G12G11G13
  22859863.594    22859868.638   -60623355.811 8  73344808.387 8
  20652646.409    20652651.976   -44246029.870 9  41769322.042 7
  23124777.698    23124782.872    12183298.440 9   8114832.547 8
  20879285.653    20879288.311   -15277383.781 9 -13136880.144 7
 90  2 23  7 40 29.0800000  0  4G 3G12G11G13
  22855066.766    22855070.880   -60648564.985 9  73325164.881 8
  20652433.416    20652438.197   -44247154.735 9  41768445.519 7
  23131052.039    23131058.480    12216271.337 9   8140525.715 7
  20881242.743    20881248.348   -15267087.809 8 -13128857.305 7
 90  2 23  7 40 44.0800000  0  4G 3G12G11G13
  22850280.413    22850284.999   -60673718.053 9  73305565.105 8
  20652249.830    20652252.635   -44248120.582 8  41767692.913 7
  23137326.516    23137333.003    12249242.023 8   8166217.146 7
  20883212.285    20883217.822   -15256739.342 9 -13120793.571 7
 90  2 23  7 40 59.0800000  0  4G 3G12G11G13
  22845504.870    22845508.298   -60698815.016 9  73286009.035 8
  20652095.377    20652099.757   -44248927.173 8  41767064.383 8
  23143601.032    23143606.128    12282210.580 8   8191906.924 8
  20885191.092    20885195.456   -15246338.403 9 -13112688.947 8
 90  2 23  7 41 14.0800000  0  4G 3G12G11G13
  22840738.250    22840743.007   -60723856.216 9  73266496.431 8
  20651971.845    20651978.071   -44249574.584 8  41766559.903 8
  23149872.998    23149878.563    12315176.693 8   8217594.817 8
  20887181.240    20887185.772   -15235885.411 9 -13104543.740 7
 90  2 23  7 41 29.0800000  0  4G 3G12G11G13
  22835984.729    22835990.059   -60748841.425 8  73247027.446 8
  20651878.650    20651883.459   -44250062.863 9  41766179.420 6
  23156145.958    23156151.927    12348140.311 8   8243280.740 8
  20889180.209    20889184.712   -15225380.230 9 -13096357.890 7
 90  2 23  7 41 44.0800000  0  4G 3G12G11G13
  22831239.593    22831245.446   -60773770.795 8  73227601.979 8
  20651816.705    20651820.556   -44250391.970 8  41765922.975 8
  23162419.334    23162424.072    12381101.355 9   8268964.654 8
  20891188.815    20891193.852   -15214823.385 9 -13088131.773 7
 90  2 23  7 41 59.0800000  0  4G 3G12G11G13
  22826506.728    22826512.029   -60798644.498 8  73208219.884 8
  20651784.881    20651789.877   -44250561.732 8  41765790.680 8
  23168692.666    23168696.481    12414059.824 9   8294646.586 7
  20893207.442    20893211.426   -15204214.941 9 -13079865.454 7
 90  2 23  7 42 14.0800000  0  4G 3G12G11G13
  22821783.493    22821789.853   -60823462.374 8  73188881.292 9
  20651782.435    20651788.131   -44250571.904 8  41765782.755 8
  23174962.067    23174967.159    12447015.670 9   8320326.454 7
  20895234.747    20895240.631   -15193554.840 9 -13071558.883 7
 90  2 23  7 42 29.0800000  0  4G 3G12G11G13
  22817072.241    22817077.765   -60848224.662 8  73169586.011 8
  20651810.938    20651816.377   -44250422.569 9  41765899.125 9
  23181232.455    23181238.152    12479968.723 9   8346004.145 8
  20897274.440    20897278.428   -15182843.513 9 -13063212.400 7
 90  2 23  7 42 44.0800000  0  4G 3G12G11G13
  22812370.047    22812376.565   -60872931.426 8  73150334.004 8
  20651869.563    20651874.702   -44250113.848 8  41766139.675 7
  23187502.357    23187509.273    12512918.803 9   8371679.530 7
  20899322.718    20899327.701   -15172081.203 9 -13054826.177 7
 90  2 23  7 42 59.0800000  0  4G 3G12G11G13
  22807679.351    22807685.454   -60897582.795 8  73131125.157 8
  20651958.180    20651962.188   -44249645.704 8  41766504.463 8
  23193772.351    23193777.279    12545865.777 8   8397352.489 8
  20901380.609    20901385.141   -15161268.192 9 -13046400.458 7
 90  2 23  7 43 14.0800000  0  4G 3G12G11G13
  22802997.562    22803003.250   -60922178.905 8  73111959.378 8
  20652076.932    20652082.900   -44249018.126 8  41766993.472 8
  23200041.656    23200047.467    12578809.430 9   8423022.846 8
  20903447.479    20903453.149   -15150404.621 9 -13037935.334 8
 90  2 23  7 43 29.0800000  0  4G 3G12G11G13
  22798329.360    22798334.819   -60946719.683 8  73092836.706 7
  20652227.165    20652233.118   -44248231.170 8  41767606.691 7
  23206310.727    23206315.344    12611749.685 9   8448690.584 8
  20905523.331    20905529.151   -15139490.689 9 -13029430.984 8
 90  2 23  7 43 44.0800000  0  4G 3G12G11G13
  22793669.479    22793674.652   -60971205.222 8  73073757.101 8
  20652408.476    20652412.556   -44247284.744 8  41768344.169 8
  23212577.678    23212583.024    12644686.476 9   8474355.622 7
  20907610.738    20907616.286   -15128526.506 9 -13020887.456 7
 90  2 23  7 43 59.0800000  0  4G 3G12G11G13
  22789020.358    22789025.831   -60995635.679 8  73054720.393 7
  20652617.691    20652622.872   -44246178.616 9  41769206.074 7
  23218844.102    23218849.556    12677619.813 8   8500017.956 9
  20909706.756    20909711.828   -15117512.296 9 -13012304.943 8
 90  2 23  7 44 14.0800000  0  4G 3G12G11G13
  22784382.577    22784387.306   -61020011.056 8  73035726.612 7
  20652859.645    20652864.011   -44244912.795 9  41770192.420 7
  23225110.910    23225115.894    12710549.555 9   8525677.496 8
  20911812.189    20911817.870   -15106448.302 9 -13003683.649 7
 90  2 23  7 44 29.0800000  0  4G 3G12G11G13
  22779753.839    22779760.300   -61044331.285 9  73016775.796 8
  20653130.475    20653135.027   -44243487.177 8  41771303.288 7
  23231376.837    23231382.015    12743475.820 8   8551334.298 8
  20913927.413    20913931.884   -15095334.526 9 -12995023.563 7
 90  2 23  7 44 44.0800000  0  4G 3G12G11G13
  22775137.100    22775141.436   -61068596.678 8  72997867.715 8
  20653431.755    20653437.151   -44241901.962 8  41772538.525 8
  23237640.289    23237647.409    12776398.156 9   8576988.059 8
  20916051.141    20916053.530   -15084171.471 9 -12986325.077 7
 90  2 23  7 44 59.0800000  0  4G 3G12G11G13
  22770529.054    22770534.549   -61092807.527 9  72979002.128 7
  20653763.514    20653769.153   -44240157.052 8  41773898.186 8
  23243906.416    23243911.458    12809316.482 9   8602638.693 9
  20918185.160    20918189.442   -15072959.167 9 -12977588.214 7
 90  2 23  7 45 14.0800000  0  4G 3G12G11G13
  22765933.006    22765938.393   -61116963.250 8  72960179.505 8
  20654127.082    20654131.347   -44238252.355 8  41775382.369 7
  23250168.734    23250174.256    12842230.875 8   8628286.261 8
  20920328.359    20920332.175   -15061697.825 9 -12968813.136 7
 90  2 23  7 45 29.0800000  0  4G 3G12G11G13
  22761346.445    22761351.889   -61141064.428 8  72941399.378 8
  20654519.297    20654524.965   -44236187.819 8  41776991.088 7
  23256432.490    23256437.496    12875141.203 9   8653930.672 8
  20922479.911    20922484.536   -15050387.766 9 -12960000.095 9
 90  2 23  7 45 44.0800000  0  4G 3G12G11G13
  22756770.222    22756775.910   -61165111.029 9  72922661.777 7
  20654943.837    20654946.542   -44233963.432 8  41778724.367 8
  23262694.414    23262700.462    12908047.380 8   8679571.845 8
  20924640.802    20924645.453   -15039028.906 9 -12951149.042 7
 90  2 23  7 45 59.0800000  0  4G 3G12G11G13
  22752205.697    22752209.203   -61189102.743 9  72903966.953 8
  20655396.365    20655401.489   -44231579.017 9  41780582.354 9
  23268955.852    23268961.474    12940949.514 9   8705209.865 9
  20926812.984    20926816.690   -15027621.251 9 -12942259.958 8
 90  2 23  7 46 14.0800000  0  4G 3G12G11G13
  22747650.559    22747654.301   -61213040.328 9  72885314.296 7
  20655880.288    20655886.084   -44229035.107 8  41782564.618 7
  23275214.392    23275220.196    12973847.012 9   8730844.254 9
  20928991.398    20928995.887   -15016165.911 9 -12933333.719 7
 90  2 23  7 46 29.0800000  0  4G 3G12G11G13
  22743104.886    22743108.392   -61236923.457 9  72866704.089 8
  20656394.803    20656400.471   -44226331.384 9  41784671.424 7
  23281474.313    23281481.158    13006740.037 8   8756475.176 9
  20931181.495    20931185.791   -15004662.444 9 -12924369.980 8
 90  2 23  7 46 44.0800000  0  4G 3G12G11G13
  22738570.818    22738575.175   -61260752.406 8  72848136.100 7
  20656939.926    20656945.222   -44223467.829 7  41786902.758 8
  23287733.089    23287738.028    13039628.358 8   8782102.423 8
  20933379.691    20933382.756   -14993111.188 8 -12915368.997 6
 90  2 23  7 46 59.0800000  0  4G 3G12G11G13
  22734046.359    22734050.645   -61284527.187 9  72829610.309 8
  20657514.297    20657519.936   -44220444.378 8  41789258.674 8
  23293990.016    23293996.028    13072512.047 8   8807726.064 8
  20935586.812    20935590.765   -14981512.417 9 -12906330.995 8
 90  2 23  7 47 14.0800000  0  4G 3G12G11G13
  22729533.218    22729537.490   -61308247.811 9  72811126.713 8
  20658121.150    20658125.673   -44217260.942 9  41791739.268 8
  23300247.419    23300253.287    13105390.991 9   8833346.023 9
  20937803.159    20937808.872   -14969866.083 9 -12897255.923 6
 90  2 23  7 47 29.0800000  0  4G 3G12G11G13
  22725028.155    22725033.893   -61331914.369 9  72792685.249 8
  20658757.237    20658762.919   -44213917.700 9  41794344.401 7
  23306501.673    23306508.104    13138264.995 9   8858962.105 8
  20940027.362    20940031.197   -14958172.635 9 -12888144.157 7
 90  2 23  7 47 44.0800000  0  4G 3G12G11G13
  22720535.985    22720540.499   -61355526.713 8  72774286.040 8
  20659423.544    20659429.183   -44210414.419 8  41797074.213 8
  23312757.320    23312762.991    13171134.125 9   8884574.407 9
  20942262.612    20942266.632   -14946432.032 9 -12878995.614 8
 90  2 23  7 47 59.0800000  0  4G 3G12G11G13
  22716052.936    22716056.363   -61379085.172 8  72755928.825 8
  20660121.303    20660126.642   -44206751.132 9  41799928.731 6
  23319010.115    23319017.815    13203998.188 8   8910182.767 9
  20944505.252    20944509.552   -14934644.383 9 -12869810.444 8
 90  2 23  7 48 14.0800000  0  4G 3G12G11G13
  22711581.034    22711583.596   -61402589.804 8  72737613.528 7
  20660850.042    20660853.492   -44202927.944 8  41802907.835 7
  23325263.264    23325270.549    13236857.117 8   8935787.103 8
  20946756.389    20946762.266   -14922810.028 9 -12860588.857 6
 90  2 23  7 48 29.0800000  0  4G 3G12G11G13
  22707117.532    22707121.167   -61426040.849 9  72719339.989 7
  20661607.528    20661610.448   -44198944.970 9  41806011.438 8
  23331515.601    23331521.444    13269710.747 8   8961387.320 9
  20949018.221    20949023.061   -14910929.144 9 -12851331.031 7
 90  2 23  7 48 44.0800000  0  4G 3G12G11G13
  22702665.571    22702669.749   -61449438.344 8  72701108.206 8
  20662394.419    20662399.829   -44194802.165 8  41809239.598 7
  23337767.960    23337773.578    13302558.990 8   8986983.345 8
  20951287.813    20951293.204   -14899002.094 9 -12842037.219 7
 90  2 23  7 48 59.0800000  0  4G 3G12G11G13
  22698221.837    22698227.203   -61472782.176 8  72682918.212 8
  20663214.665    20663218.258   -44190499.396 9  41812592.402 7
  23344015.886    23344022.498    13335401.689 8   9012575.059 9
  20953565.740    20953569.925   -14887028.999 9 -12832707.541 7
 90  2 23  7 49 14.0800000  0  4G 3G12G11G13
  22693790.072    22693794.630   -61496072.512 8  72664769.925 7
  20664062.871    20664067.938   -44186036.606 8  41816069.894 7
  23350264.427    23350271.985    13368238.967 7   9038162.525 8
  20955854.123    20955858.294   -14875010.080 9 -12823342.150 7
 90  2 23  7 49 29.0800000  0  4G 3G12G11G13
  22689367.702    22689372.782   -61519309.465 9  72646663.229 7
  20664942.528    20664947.724   -44181413.856 8  41819672.026 7
  23356512.390    23356519.274    13401070.744 8   9063745.718 9
  20958149.217    20958153.474   -14862945.456 9 -12813941.139 8
 90  2 23  7 49 44.0800000  0  4G 3G12G11G13
  22684956.543    22684961.387   -61542492.928 8  72628598.218 8
  20665853.122    20665858.790   -44176631.391 9  41823398.613 8
  23362759.200    23362766.109    13433896.754 8   9089324.416 8
  20960454.421    20960457.014   -14850835.127 9 -12804504.521 8
 90  2 23  7 49 59.0800000  0  4G 3G12G11G13
  22680555.408    22680561.167   -61565623.276 9  72610574.568 7
  20666793.265    20666798.475   -44171689.088 9  41827249.761 8
  23369001.427    23369011.059    13466716.923 8   9114898.569 8
  20962766.658    20962771.494   -14838679.511 9 -12795032.602 7
 90  2 23  7 50 14.0800000  0  4G 3G12G11G13
  22676164.031    22676168.532   -61588700.699 8  72592592.187 7
  20667763.543    20667768.953   -44166586.965 9  41831225.430 7
  23375248.581    23375255.137    13499531.318 8   9140468.212 8
  20965088.503    20965091.626   -14826478.713 9 -12785525.486 7
 90  2 23  7 50 29.0800000  0  4G 3G12G11G13
  22671782.142    22671786.413   -61611725.161 8  72574651.045 8
  20668764.986    20668769.509   -44161325.024 8  41835325.641 8
  23381492.204    23381498.770    13532339.961 8   9166033.386 8
  20967419.048    20967422.235   -14814232.966 9 -12775983.343 8
 90  2 23  7 50 44.0800000  0  4G 3G12G11G13
  22667412.086    22667415.119   -61634696.478 8  72556751.349 8
  20669796.994    20669801.574   -44155903.448 8  41839550.247 7
  23387734.607    23387740.025    13565142.478 9   9191593.779 8
  20969757.188    20969763.069   -14801942.750 8 -12766406.555 7
 90  2 23  7 50 59.0800000  0  4G 3G12G11G13
  22663049.692    22663055.037   -61657614.756 9  72538892.957 7
  20670858.335    20670865.148   -44150322.104 9  41843899.338 7
  23393975.507    23393981.101    13597938.854 8   9217149.377 9
  20972104.643    20972109.995   -14789607.973 9 -12756795.027 8
 90  2 23  7 51 14.0800000  0  4G 3G12G11G13
  22658698.539    22658703.304   -61680480.286 9  72521075.683 7
  20671952.387    20671957.655   -44144580.968 9  41848372.954 7
  23400215.145    23400220.602    13630729.043 9   9242700.170 8
  20974461.110    20974464.608   -14777228.633 9 -12747148.791 7
 90  2 23  7 51 29.0800000  0  4G 3G12G11G13
  22654357.631    22654361.279   -61703293.049 8  72503299.517 7
  20673075.430    20673080.297   -44138680.109 9  41852971.021 6
  23406453.595    23406460.251    13663513.097 9   9268246.179 8
  20976825.278    20976828.773   -14764805.172 9 -12737468.174 8
 90  2 23  7 51 44.0800000  0  4G 3G12G11G13
  22650025.351    22650031.347   -61726053.148 9  72485564.386 7
  20674229.610    20674232.387   -44132619.509 9  41857693.569 8
  23412690.997    23412696.955    13696290.853 8   9293787.279 8
  20979197.016    20979201.956   -14752337.657 9 -12727753.229 8
 90  2 23  7 51 59.0800000  0  4G 3G12G11G13
  22645705.399    22645710.300   -61748760.584 8  72467870.285 7
  20675411.992    20675415.843   -44126399.149 8  41862540.600 7
  23418928.485    23418934.024    13729062.152 8   9319323.352 8
  20981576.982    20981581.904   -14739826.119 9 -12718003.971 8
 90  2 23  7 52 14.0800000  0  4G 3G12G11G13
  22641393.975    22641398.890   -61771415.798 9  72450216.892 7
  20676626.786    20676630.178   -44120019.134 8  41867512.031 8
  23425163.232    23425168.389    13761826.902 8   9344854.310 8
  20983967.060    20983971.521   -14727271.027 9 -12708220.792 6
 90  2 23  7 52 29.0800000  0  4G 3G12G11G13
  22637092.009    22637097.354   -61794018.509 8  72432604.399 8
  20677870.684    20677874.935   -44113479.490 9  41872607.853 6
  23431396.363    23431402.167    13794585.000 9   9370380.101 8
  20986364.426    20986369.144   -14714672.714 9 -12698403.939 7
 90  2 23  7 52 44.0800000  0  4G 3G12G11G13
  22632802.765    22632808.438   -61816568.914 8  72415032.668 7
  20679145.433    20679149.541   -44106780.193 9  41877828.069 8
  23437628.921    23437633.838    13827336.444 8   9395900.703 8
  20988769.454    20988775.636   -14702031.232 9 -12688553.424 8
 90  2 23  7 52 59.0800000  0  4G 3G12G11G13
  22628521.032    22628525.210   -61839067.086 9  72397501.644 8
  20680451.290    20680455.655   -44099921.367 8  41883172.605 7
  23443858.589    23443864.440    13860081.168 9   9421416.067 7
  20991183.669    20991188.491   -14689346.708 9 -12678669.370 8
 90  2 23  7 53 14.0800000  0  4G 3G12G11G13
  22624249.810    22624253.917   -61861512.738 9  72380011.539 8
  20681785.751    20681791.676   -44092902.781 8  41888641.623 7
  23450088.021    23450094.902    13892819.304 9   9446926.283 8
  20993605.318    20993610.758   -14676619.072 9 -12668751.734 7
 90  2 23  7 53 29.0800000  0  4G 3G12G11G13
  22619987.617    22619992.410   -61883906.378 8  72362561.959 8
  20683151.119    20683157.403   -44085724.700 8  41894234.936 7
  23456318.612    23456323.797    13925550.611 9   9472431.209 8
  20996034.954    20996040.477   -14663848.661 9 -12658800.761 7
 90  2 23  7 53 44.0800000  0  4G 3G12G11G13
  22615736.077    22615742.623   -61906248.174 8  72345152.781 9
  20684547.954    20684552.749   -44078387.198 8  41899952.472 8
  23462545.185    23462549.684    13958274.934 9   9497930.674 8
  20998472.729    20998478.320   -14651035.749 9 -12648816.680 7
 90  2 23  7 53 59.0800000  0  4G 3G12G11G13
  22611494.474    22611498.903   -61928537.977 9  72327784.121 8
  20685974.337    20685979.662   -44070890.222 9  41905794.275 7
  23468770.971    23468776.629    13990992.140 9   9523424.605 7
  21000919.991    21000925.224   -14638180.437 8 -12638799.556 7
 90  2 23  7 54 14.0800000  0  4G 3G12G11G13
  22607262.130    22607268.748   -61950776.279 8  72310455.598 8
  20687430.942    20687437.711   -44063234.004 8  41911760.161 7
  23474994.747    23475001.636    14023702.158 9   9548912.919 8
  21003374.253    21003379.661   -14625283.289 9 -12628749.822 7
 90  2 23  7 54 29.0800000  0  4G 3G12G11G13
  22603041.612    22603045.204   -61972962.988 8  72293167.265 8
  20688918.368    20688923.578   -44055418.601 8  41917850.074 7
  23481218.996    23481224.041    14056404.807 9   9574395.501 8
  21005837.162    21005841.497   -14612344.309 9 -12618667.499 7
 90  2 23  7 54 44.0800000  0  4G 3G12G11G13
  22598828.435    22598833.830   -61995098.016 8  72275919.192 8
  20690435.285    20690441.525   -44047443.876 8  41924064.127 8
  23487440.872    23487447.159    14089100.292 9   9599872.486 7
  21008306.188    21008312.487   -14599363.427 9 -12608552.531 7
 90  2 23  7 54 59.0800000  0  4G 3G12G11G13
  22594626.627    22594631.249   -62017181.513 8  72258711.298 8
  20691984.299    20691987.891   -44039309.923 8  41930402.280 8
  23493660.960    23493666.760    14121788.412 8   9625343.741 8
  21010785.334    21010789.663   -14586341.153 9 -12598405.291 7
 90  2 23  7 55 14.0800000  0  4G 3G12G11G13
  22590434.041    22590439.271   -62039213.675 9  72241543.385 8
  20693562.688    20693567.827   -44031016.778 8  41936864.470 8
  23499879.685    23499884.140    14154469.030 9   9650809.154 8
  21013271.596    21013274.178   -14573277.374 9 -12588225.740 8
 90  2 23  7 55 29.0800000  0  4G 3G12G11G13
  22586250.333    22586255.735   -62061194.433 9  72224415.542 8
  20695171.027    20695175.922   -44022564.463 8  41943450.678 7
  23506097.562    23506102.761    14187142.205 9   9676268.769 8
  21015765.606    21015769.866   -14560172.570 9 -12578014.204 8
 90  2 23  7 55 44.0800000  0  4G 3G12G11G13
  22582077.974    22582083.976   -62083123.965 8  72207327.620 8
  20696809.458    20696814.840   -44013953.101 8  41950160.821 8
  23512313.196    23512319.386    14219807.803 8   9701722.471 7
  21018266.534    21018269.367   -14547026.751 9 -12567770.709 7
 90  2 23  7 55 59.0800000  0  4G 3G12G11G13
  22577915.000    22577919.594   -62105002.331 9  72190279.544 8
  20698478.225    20698483.206   -44005182.675 9  41956994.915 7
  23518527.957    23518534.376    14252465.843 9   9727170.289 7
  21020776.173    21020779.790   -14533839.955 9 -12557495.285 8
 90  2 23  7 56 14.0800000  0  4G 3G12G11G13
  22573760.920    22573766.987   -62126829.729 8  72173271.194 7
  20700177.542    20700182.709   -43996253.274 8  41963952.897 7
  23524741.677    23524747.038    14285116.247 8   9752612.152 8
  21023292.434    21023297.367   -14520612.430 9 -12547188.132 7
 90  2 23  7 56 29.0800000  0  4G 3G12G11G13
  22569616.463    22569622.308   -62148606.150 8  72156302.573 8
  20701907.351    20701911.517   -43987165.087 9  41971034.595 7
  23530954.342    23530959.055    14317758.871 9   9778047.963 8
  21025817.692    21025822.574   -14507344.450 9 -12536849.427 7
 90  2 23  7 56 44.0800000  0  4G 3G12G11G13
  22565482.702    22565487.152   -62170331.570 9  72139373.698 7
  20703665.708    20703672.606   -43977918.166 9  41978239.974 8
  23537163.634    23537169.953    14350393.645 9   9803477.663 8
  21028349.886    21028354.185   -14494036.191 9 -12526479.367 7
 90  2 23  7 56 59.0800000  0  4G 3G12G11G13
  22561358.492    22561361.762   -62192006.358 9  72122484.264 7
  20705456.861    20705459.853   -43968512.549 9  41985569.018 6
  23543371.051    23543379.348    14383020.581 9   9828901.230 8
  21030890.519    21030894.689   -14480687.848 9 -12516078.051 6
 90  2 23  7 57 14.0800000  0  4G 3G12G11G13
  22557242.939    22557247.354   -62213630.440 9  72105634.346 7
  20707275.645    20707281.013   -43958948.246 9  41993021.720 7
  23549579.265    23549584.315    14415639.510 9   9854318.577 7
  21033438.839    21033442.187   -14467299.528 8 -12505645.602 7
 90  2 23  7 57 29.0800000  0  4G 3G12G11G13
  22553137.518    22553142.226   -62235203.775 9  72088823.962 7
  20709127.655    20709132.622   -43949225.282 8  42000598.054 7
  23555785.158    23555790.644    14448250.256 8   9879729.537 9
  21035993.845    21035998.188   -14453871.606 9 -12495182.293 8
 90  2 23  7 57 44.0800000  0  4G 3G12G11G13
  22549041.197    22549046.706   -62256726.716 9  72072052.846 7
  20711008.427    20711011.849   -43939343.748 8  42008297.940 8
  23561988.401    23561993.951    14480852.893 9   9905134.167 9
  21038555.631    21038561.072   -14440404.155 9 -12484688.161 7
 90  2 23  7 57 59.0800000  0  4G 3G12G11G13
  22544956.846    22544962.455   -62278199.226 8  72055321.034 8
  20712917.288    20712922.698   -43929303.699 8  42016121.363 7
  23568191.514    23568196.435    14513447.343 8   9930532.451 8
  21041126.442    21041129.715   -14426897.361 9 -12474163.386 7
 90  2 23  7 58 14.0800000  0  4G 3G12G11G13
  22540880.514    22540884.728   -62299621.310 9  72038628.504 8
  20714858.373    20714864.999   -43919105.253 9  42024068.199 7
  23574390.968    23574397.756    14546033.522 8   9955924.271 8
  21043704.669    21043709.984   -14413351.252 9 -12463607.993 8
 90  2 23  7 58 29.0800000  0  4G 3G12G11G13
  22536812.568    22536818.192   -62320993.250 9  72021975.077 8
  20716829.707    20716834.717   -43908748.456 8  42032138.412 8
  23580591.520    23580597.983    14578611.394 9   9981309.608 7
  21046289.191    21046292.829   -14399765.963 9 -12453022.054 7
 90  2 23  7 58 44.0800000  0  4G 3G12G11G13
  22532754.489    22532760.742   -62342314.803 8  72005360.886 8
  20718830.261    20718836.544   -43898233.280 9  42040332.056 7
  23586789.619    23586794.714    14611181.117 8  10006688.592 7
  21048881.291    21048886.649   -14386141.562 9 -12442405.646 6
 90  2 23  7 58 59.0800000  0  4G 3G12G11G13
  22528706.769    22528713.573   -62363586.398 9  71988785.629 7
  20720862.710    20720866.418   -43887560.099 9  42048648.820 8
  23592985.027    23592990.866    14643742.407 9  10032061.024 8
  21051481.092    21051485.341   -14372478.748 9 -12431759.282 7
 90  2 23  7 59 14.0800000  0  4G 3G12G11G13
  22524667.828    22524674.409   -62384808.021 8  71972249.306 8
  20722922.805    20722927.828   -43876728.755 9  42057088.826 8
  23599180.739    23599186.063    14676295.333 8  10057426.908 8
  21054089.651    21054093.106   -14358777.564 8 -12421083.030 6
 90  2 23  7 59 29.0800000  0  4G 3G12G11G13
  22520640.520    22520645.678   -62405979.629 9  71955751.972 5
  20725013.535    20725019.346   -43865739.441 8  42065651.914 7
  23605372.233    23605378.921    14708839.743 9  10082786.196 8
  21056703.307    21056707.141   -14345037.833 9 -12410376.746 7
 90  2 23  7 59 44.0800000  0  4G 3G12G11G13
  22516621.440    22516626.677   -62427101.532 8  71939293.355 7
  20727135.703    20727138.709   -43854592.185 9  42074338.086 8
  23611564.693    23611569.453    14741375.443 8  10108138.658 8
  21059323.789    21059329.927   -14331260.052 8 -12399640.824 7
 90  2 23  7 59 59.0800000  0  4G 3G12G11G13
  22512611.274    22512616.469   -62448173.847 9  71922873.374 8
  20729286.146    20729290.154   -43843287.169 9  42083147.193 7
  23617753.104    23617759.531    14773902.396 8  10133484.337 8
  21061954.952    21061957.642   -14317444.269 9 -12388875.275 7
 90  2 23  8  0 14.0800000  0  4G 3G12G11G13
  22508610.589    22508615.983   -62469196.604 9  71906492.019 7
  20731467.940    20731472.821   -43831824.506 8  42092079.121 8
  23623941.494    23623947.913    14806420.551 9  10158823.142 7
  21064591.242    21064594.050   -14303590.593 8 -12378080.195 7
 90  2 23  8  0 29.0800000  0  4G 3G12G11G13
  22504620.413    22504624.763   -62490169.762 8  71890149.314 8
  20733679.311    20733684.278   -43820204.252 8  42101133.857 7
  23630129.543    23630135.054    14838929.894 9  10184155.070 8
  21067234.447    21067238.857   -14289699.384 9 -12367255.889 8
 90  2 23  8  0 44.0800000  0  4G 3G12G11G13
  22500637.686    22500641.599   -62511093.552 8  71873845.079 8
  20735920.059    20735924.811   -43808426.429 9  42110311.393 7
  23636313.715    23636319.913    14871430.394 8  10209480.119 8
  21069885.360    21069888.168   -14275770.603 9 -12356402.284 7
 90  2 23  8  0 59.0800000  0  4G 3G12G11G13
  22496666.627    22496670.863   -62531968.191 8  71857579.135 8
  20738191.629    20738195.308   -43796491.230 8  42119611.550 7
  23642495.851    23642501.816    14903922.037 8  10234798.290 8
  21072542.892    21072547.925   -14261804.704 9 -12345519.768 7
 90  2 23  8  1 14.0800000  0  4G 3G12G11G13
  22492703.768    22492707.453   -62552793.609 9  71841351.555 7
  20740492.633    20740495.854   -43784398.561 9  42129034.388 7
  23648678.098    23648683.398    14936404.691 7  10260109.417 7
  21075207.493    21075210.855   -14247801.797 9 -12334608.405 7
 90  2 23  8  1 29.0800000  0  4G 3G12G11G13
  22488749.766    22488755.519   -62573569.623 9  71825162.467 7
  20742824.745    20742829.196   -43772148.347 9  42138580.014 7
  23654857.147    23654863.785    14968878.385 8  10285413.601 8
  21077879.012    21077884.102   -14233761.834 9 -12323668.187 8
 90  2 23  8  1 44.0800000  0  4G 3G12G11G13
  22484804.858    22484809.473   -62594296.584 8  71809011.591 8
  20745184.703    20745190.127   -43759740.963 8  42148248.092 7
  23661034.433    23661042.122    15001342.967 8  10310710.659 8
  21080558.004    21080560.232   -14219685.116 9 -12312699.314 7
 90  2 23  8  1 59.0800000  0  4G 3G12G11G13
  22480869.014    22480875.597   -62614974.682 9  71792898.789 8
  20747576.398    20747580.535   -43747176.611 8  42158038.487 7
  23667210.802    23667217.630    15033798.504 8  10336000.667 8
  21083243.274    21083246.225   -14205571.727 9 -12301701.872 8
 90  2 23  8  2 14.0800000  0  4G 3G12G11G13
  22476944.690    22476950.049   -62635603.937 9  71776824.059 7
  20749997.643    20750000.964   -43734455.292 9  42167951.203 8
  23673385.015    23673391.091    15066244.879 9  10361283.546 8
  21085935.101    21085939.200   -14191421.976 9 -12290676.093 8
 90  2 23  8  2 29.0800000  0  4G 3G12G11G13
  22473028.108    22473032.963   -62656184.496 9  71760787.274 8
  20752447.121    20752449.860   -43721577.209 1  42177986.089 1
  23679558.163    23679564.280    15098681.896 9  10386559.129 8
  21088635.445    21088639.759   -14177235.949 9 -12279622.042 7
 90  2 23  8  2 44.0800000  0  4G 3G12G11G13
  22469121.040    22469126.538   -62676716.427 9  71744788.378 8
  20754927.088    20754933.042   -43708542.324 1  42188143.108 1
  23685728.528    23685735.258    15131109.642 8  10411827.484 8
  21091341.589    21091346.555   -14163013.848 9 -12268539.905 7
 90  2 23  8  2 59.0800000  0  4G 3G12G11G13
  22465223.388    22465227.683   -62697199.774 9  71728827.345 7
  20757439.377    20757444.391   -43695350.833 1  42198422.187 1
  23691897.590    23691903.177    15163528.026 8  10437088.537 8
  21094054.962    21094058.032   -14148755.753 9 -12257429.692 8
 90  2 23  8  3 14.0800000  0  4G 3G12G11G13
  22461333.678    22461339.409   -62717634.854 8  71712903.914 9
  20759978.368    20759983.778   -43682002.796 8  42208823.261 8
  23698064.356    23698070.633    15195937.085 7  10462342.331 8
  21096774.263    21096779.473   -14134462.035 9 -12246291.717 7
 90  2 23  8  3 29.0800000  0  4G 3G12G11G13
  22457455.341    22457460.200   -62738021.371 8  71697018.335 8
  20762548.155    20762552.804   -43668498.369 8  42219346.183 8
  23704231.820    23704236.560    15228336.768 8  10487588.825 9
  21099500.359    21099507.321   -14120132.815 9 -12235126.091 8
 90  2 23  8  3 44.0800000  0  4G 3G12G11G13
  22453584.354    22453588.963   -62758359.602 9  71681170.363 8
  20765147.247    20765151.615   -43654837.642 8  42229990.898 8
  23710394.279    23710401.255    15260726.998 8  10512827.933 9
  21102235.579    21102239.505   -14105768.216 8 -12223932.907 7
 90  2 23  8  3 59.0800000  0  4G 3G12G11G13
  22449723.428    22449728.267   -62778649.656 8  71665359.939 8
  20767776.989    20767781.783   -43641020.694 8  42240757.345 7
  23716556.327    23716562.138    15293107.719 8  10538059.649 9
  21104975.331    21104979.838   -14091368.252 9 -12212712.156 7
 90  2 23  8  4 14.0800000  0  4G 3G12G11G13
  22445871.878    22445876.295   -62798891.387 9  71649587.174 8
  20770436.722    20770440.574   -43627047.518 8  42251645.523 9
  23722716.951    23722722.175    15325479.039 8  10563284.019 9
  21107722.459    21107726.672   -14076933.169 9 -12201464.027 7
 90  2 23  8  4 29.0800000  0  4G 3G12G11G13
  22442028.095    22442033.103   -62819085.138 8  71633851.782 7
  20773124.731    20773129.255   -43612918.313 8  42262655.300 8
  23728874.694    23728880.121    15357840.742 8  10588500.908 9
  21110476.190    21110480.486   -14062463.104 9 -12190188.667 7
 90  2 23  8  4 44.0800000  0  4G 3G12G11G13
  22438195.296    22438200.028   -62839231.222 9  71618153.547 8
  20775843.218    20775846.583   -43598633.412 9  42273786.386 8
  23735029.940    23735037.016    15390192.859 8  10613710.325 9
  21113236.433    21113240.298   -14047958.588 9 -12178886.437 8
 90  2 23  8  4 59.0800000  0  4G 3G12G11G13
  22434371.022    22434375.186   -62859329.434 9  71602492.604 8
  20778591.557    20778595.623   -43584192.868 8  42285038.750 8
  23741186.029    23741191.896    15422535.308 7  10638912.205 9
  21116002.649    21116006.886   -14033419.434 8 -12167557.227 8
 90  2 23  8  5 14.0800000  0  4G 3G12G11G13
  22430555.096    22430561.067   -62879380.060 8  71586868.761 9
  20781367.966    20781372.378   -43569596.749 8  42296412.348 8
  23747338.746    23747343.847    15454868.018 7  10664106.506 9
  21118775.734    21118780.821   -14018845.708 9 -12156201.082 8
 90  2 23  8  5 29.0800000  0  4G 3G12G11G13
  22426747.770    22426754.354   -62899382.907 9  71571282.129 8
  20784176.059    20784179.652   -43554845.074 8  42307907.149 8
  23753487.676    23753494.555    15487190.916 8  10689293.166 8
  21121554.841    21121559.468   -14004237.774 8 -12144818.275 8
 90  2 23  8  5 44.0800000  0  4G 3G12G11G13
  22422950.871    22422956.236   -62919338.245 8  71555732.525 8
  20787012.138    20787017.806   -43539938.078 8  42319522.989 8
  23759637.325    23759644.649    15519503.877 7  10714472.064 9
  21124341.625    21124347.365   -13989595.796 8 -12133408.957 7
 90  2 23  8  5 59.0800000  0  4G 3G12G11G13
  22419162.654    22419168.255   -62939246.160 8  71540219.880 8
  20789879.015    20789882.093   -43524875.987 8  42331259.665 8
  23765785.621    23765791.273    15551807.002 8  10739643.309 9
  21127135.303    21127138.743   -13974919.971 9 -12121973.249 8
 90  2 23  8  6 14.0800000  0  4G 3G12G11G13
  22415383.753    22415389.111   -62959106.569 8  71524744.260 8
  20792774.077    20792778.884   -43509658.619 8  42343117.350 8
  23771930.532    23771936.477    15584100.292 8  10764806.913 9
  21129934.606    21129937.435   -13960210.122 8 -12110511.033 7
 90  2 23  8  6 29.0800000  0  4G 3G12G11G13
  22411612.615    22411619.543   -62978919.862 8  71509305.334 8
  20795699.332    20795703.525   -43494286.400 8  42355095.702 7
  23778073.850    23778079.327    15616383.628 8  10789962.745 8
  21132740.107    21132743.614   -13945466.625 9 -12099022.595 8
 90  2 23  8  6 44.0800000  0  4G 3G12G11G13
  22407851.814    22407856.724   -62998686.137 8  71493903.056 9
  20798653.235    20798658.459   -43478759.455 8  42367194.620 8
  23784214.670    23784220.832    15648656.974 9  10815110.785 9
  21135551.909    21135555.095   -13930689.980 8 -12087508.324 8
 90  2 23  8  6 59.0800000  0  4G 3G12G11G13
  22404099.331    22404104.490   -63018405.365 8  71478537.428 9
  20801636.699    20801643.086   -43463077.927 8  42379413.979 7
  23790353.671    23790360.802    15680920.174 8  10840250.931 9
  21138368.734    21138373.108   -13915880.153 8 -12075968.206 7
 90  2 23  8  7 14.0800000  0  3G 3G12G13
  22400356.187    22400360.086   -63038077.641 8  71463208.390 7
  20804650.993    20804655.719   -43447241.777 8  42391753.833 8
  21141193.355    21141199.116   -13901037.170 9 -12064402.248 7
 90  2 23  8  7 29.0800000  0  3G 3G12G13
  22396622.200    22396625.991   -63057703.001 9  71447915.916 8
  20807694.276    20807700.709   -43431251.292 8  42404213.947 8
  21144024.240    21144028.751   -13886161.161 8 -12052810.573 6
 90  2 23  8  7 44.0800000  0  3G 3G12G13
  22392895.829    22392900.640   -63077281.634 7  71432659.859 8
  20810765.704    20810770.783   -43415106.592 8  42416794.223 7
  21146860.946    21146865.871   -13871252.208 8 -12041193.203 7
 90  2 23  8  7 59.0800000  0  3G 3G12G13
  22389177.345    22389183.605   -63096813.552 8  71417440.196 9
  20813866.808    20813872.763   -43398807.754 7  42429494.599 7
  21149704.379    21149710.131   -13856310.427 8 -12029550.260 7
 90  2 23  8  8 14.0800000  0  4G 3G12G19G13
  22385470.934    22385475.743   -63116298.964 9  71402256.754 8
  20817000.373    20817004.317   -43382354.779 7  42442315.071 8
                  23821331.446   -75147402.982 1
  21152554.792    21152557.399   -13841336.157 8 -12017881.982 7
 90  2 23  8  8 29.0800000  0  4G 3G12G19G13
  22381771.656    22381776.343   -63135737.910 9  71387109.537 8
  20820158.270    20820164.531   -43365747.997 8  42455255.431 7
                  23987657.841   -75114478.697 1
  21155410.071    21155413.993   -13826329.633 8 -12006188.602 7
 90  2 23  8  8 44.0800000  0  3G 3G12G13
  22378081.458    22378086.245   -63155130.572 8  71371998.383 9
  20823348.124    20823353.565   -43348987.685 7  42468315.411 8
  21158272.482    21158275.203   -13811291.035 9 -11994470.216 8
 90  2 23  8  8 59.0800000  0  3G 3G12G13
  22374399.010    22374404.972   -63174476.990 9  71356923.269 9
  20826565.882    20826571.672   -43332073.857 8  42481495.013 7
  21161140.831    21161145.125   -13796220.571 8 -11982727.019 7
 90  2 23  8  9 14.0800000  0  4G 3G12G19G13
  22370726.529    22370731.074   -63193777.271 9  71341884.107 8
  20829814.408    20829820.121   -43315006.699 8  42494794.095 8
                  23165044.570   -75367956.640 7
  21164013.818    21164018.524   -13781118.310 8 -11970959.025 8
 90  2 23  8  9 29.0800000  0  4G 3G12G19G13
  22367064.005    22367067.244   -63213031.551 9  71326880.787 8
  20833092.175    20833096.132   -43297786.355 8  42508212.546 8
  23160298.734    23160302.764   -75392580.113 8  95686012.170 8
  21166893.931    21166899.488   -13765984.442 8 -11959166.400 7
 90  2 23  8  9 44.0800000  0  4G 3G12G19G13
  22363408.951    22363412.520   -63232239.789 8  71311913.337 8
  20836398.236    20836402.368   -43280412.844 8  42521750.335 8
  23155636.118    23155640.060   -75417081.377 9  95666920.291 7
  21169778.449    21169783.439   -13750818.835 8 -11947349.037 8
 90  2 23  8  9 59.0800000  0  4G 3G12G19G13
  22359762.225    22359766.394   -63251402.172 8  71296981.610 8
  20839732.402    20839737.284   -43262886.439 8  42535407.282 7
  23150996.112    23151001.693   -75441460.703 8  95647923.415 8
  21172671.392    21172676.059   -13735621.942 9 -11935507.312 8
 90  2 23  8 10 14.0800000  0  4G 3G12G19G13
  22356123.568    22356128.281   -63270518.747 8  71282085.604 8
  20843096.547    20843100.846   -43245207.354 8  42549183.175 8
  23146381.213    23146385.975   -75465718.069 7  95629021.577 8
  21175569.220    21175573.179   -13720393.936 9 -11923641.336 7
 90  2 23  8 10 29.0800000  0  4G 3G12G19G13
  22352494.784    22352499.998   -63289589.739 8  71267225.094 8
  20846489.835    20846495.118   -43227375.867 8  42563077.837 7
  23141787.226    23141793.505   -75489853.239 9  95610214.950 9
  21178472.359    21178477.498   -13705135.038 8 -11911751.288 8
 90  2 23  8 10 44.0800000  0  4G 3G12G19G13
  22348874.529    22348879.430   -63308615.139 8  71252400.122 8
  20849913.532    20849916.719   -43209391.846 8  42577091.353 8
  23137218.453    23137223.346   -75513865.885 7  95591503.793 9
  21181382.142    21181387.109   -13689845.117 9 -11899837.080 8
 90  2 23  8 10 59.0800000  0  4G 3G12G19G13
  22345262.318    22345267.874   -63327594.825 9  71237610.771 9
  20853362.871    20853368.637   -43191255.629 9  42591223.453 8
  23132671.551    23132676.380   -75537756.068 8  95572888.078 8
  21184297.668    21184303.040   -13674524.382 8 -11887898.850 7
 90  2 23  8 11 14.0800000  0  4G 3G12G19G13
  22341660.092    22341664.163   -63346529.246 8  71222856.701 8
  20856844.510    20856849.050   -43172967.505 8  42605473.919 8
  23128149.482    23128154.707   -75561523.253 9  95554368.187 8
  21187218.505    21187223.364   -13659173.029 9 -11875936.741 8
 90  2 23  8 11 29.0800000  0  4G 3G12G19G13
  22338064.879    22338070.076   -63365418.282 8  71208137.971 8
  20860352.609    20860358.570   -43154527.426 8  42619842.823 9
  23123650.954    23123655.047   -75585167.380 8  95535944.198 8
  21190146.125    21190149.571   -13643790.895 8 -11863950.684 7
 90  2 23  8 11 44.0800000  0  4G 3G12G19G13
  22334479.396    22334483.709   -63384262.161 8  71193454.446 8
  20863891.548    20863895.597   -43135935.622 8  42634329.922 7
  23119175.890    23119179.345   -75608688.460 8  95517616.076 8
  21193079.563    21193083.249   -13628378.437 8 -11851940.978 8
 90  2 23  8 11 59.0800000  0  4G 3G12G19G13
  22330902.327    22330906.211   -63403060.886 8  71178806.087 7
  20867458.080    20867462.542   -43117192.233 9  42648935.146 8
  23114721.236    23114726.151   -75632086.035 8  95499384.216 8
  21196017.624    21196021.831   -13612935.792 9 -11839907.761 7
 90  2 23  8 12 14.0800000  0  4G 3G12G19G13
  22327333.011    22327338.710   -63421814.737 8  71164192.708 7
  20871053.468    20871057.774   -43098297.526 9  42663658.296 7
  23110293.100    23110297.042   -75655360.181 8  95481248.513 9
  21198961.217    21198966.005   -13597463.201 8 -11827851.201 8
 90  2 23  8 12 29.0800000  0  4G 3G12G19G13
  22323773.083    22323777.156   -63440523.494 8  71149614.469 8
  20874676.622    20874682.709   -43079251.532 8  42678499.331 8
  23105888.133    23105892.392   -75678510.339 8  95463209.439 8
  21201911.708    21201916.433   -13581960.721 9 -11815771.345 7
 90  2 23  8 12 44.0800000  0  4G 3G12G19G13
  22320221.144    22320225.955   -63459187.430 8  71135071.153 8
  20878330.407    20878335.992   -43060054.474 8  42693458.065 8
  23101506.145    23101509.099   -75701536.757 8  95445266.784 8
  21204867.639    21204873.516   -13566428.593 8 -11803668.402 8
 90  2 23  8 12 59.0800000  0  4G 3G12G19G13
  22316678.158    22316683.301   -63477806.787 8  71120562.581 8
  20882012.009    20882018.555   -43040706.548 8  42708534.374 8
  23097146.971    23097151.915   -75724439.006 8  95427420.874 8
  21207829.761    21207833.612   -13550866.943 8 -11791542.435 7
 90  2 23  8 13 14.0800000  0  4G 3G12G19G13
  22313143.330    22313148.285   -63496381.641 9  71106088.668 8
  20885722.421    20885727.885   -43021208.062 8  42723727.990 8
  23092811.832    23092818.081   -75747217.278 7  95409671.583 8
  21210794.776    21210799.735   -13535275.887 8 -11779393.576 7
 90  2 23  8 13 29.0800000  0  4G 3G12G19G13
  22309618.031    22309622.185   -63514911.946 7  71091649.498 9
  20889461.740    20889467.273   -43001559.061 8  42739038.889 8
  23088501.575    23088506.275   -75769871.271 8  95392019.122 8
  21213767.667    21213773.131   -13519655.471 8 -11767221.818 7
 90  2 23  8 13 44.0800000  0  4G 3G12G19G13
  22306099.513    22306103.299   -63533397.729 8  71077244.980 9
  20893230.778    20893235.543   -42981759.705 8  42754466.940 8
  23084214.841    23084219.378   -75792400.608 8  95374463.802 8
  21216745.761    21216750.640   -13504005.874 8 -11755027.327 8
 90  2 23  8 13 59.0800000  0  4G 3G12G19G13
  22302590.560    22302595.870   -63551839.226 7  71062875.006 8
  20897026.053    20897031.469   -42961810.277 8  42770011.965 8
  23079950.185    23079956.737   -75814805.268 9  95357005.632 9
  21219729.354    21219733.654   -13488327.181 8 -11742810.190 8
 90  2 23  8 14 14.0800000  0  4G 3G12G19G13
  22299090.070    22299094.940   -63570236.452 8  71048539.518 8
  20900851.676    20900855.464   -42941710.963 9  42785673.754 8
  23075713.246    23075717.332   -75837084.745 8  95339645.000 9
  21222718.757    21222724.129   -13472619.868 8 -11730570.722 7
 90  2 23  8 14 29.0800000  0  4G 3G12G19G13
  22295596.597    22295602.294   -63588589.609 8  71034238.369 8
  20904703.710    20904709.969   -42921461.858 8  42801452.274 9
  23071497.518    23071501.364   -75859239.047 8  95322381.912 9
  21225713.160    21225718.252   -13456883.791 9 -11718308.872 7
 90  2 23  8 14 44.0800000  0  4G 3G12G19G13
  22292113.679    22292116.259   -63606898.810 8  71019971.472 8
  20908585.304    20908591.067   -42901063.197 8  42817347.326 8
  23067304.120    23067309.478   -75881268.301 8  95305216.259 8
  21228713.067    21228718.424   -13441119.183 8 -11706024.755 9
 90  2 23  8 14 59.0800000  0  4G 3G12G19G13
  22288637.031    22288641.318   -63625163.984 9  71005738.877 8
  20912495.612    20912500.849   -42880515.085 9  42833358.831 8
  23063135.814    23063141.367   -75903172.208 8  95288148.284 9
  21231719.640    21231724.624   -13425326.080 9 -11693718.445 8
 90  2 23  8 15 14.0800000  0  4G 3G12G19G13
  22285171.029    22285173.911   -63643385.234 8  70991540.499 8
  20916434.446    20916438.436   -42859817.654 8  42849486.698 8
  23058991.673    23058997.310   -75924950.297 8  95271178.354 8
  21234730.270    21234733.514   -13409504.485 8 -11681389.931 8
 90  2 23  8 15 29.0800000  0  4G 3G12G19G13
  22281711.699    22281715.853   -63661562.860 8  70977376.125 7
  20920401.863    20920406.765   -42838971.325 8  42865730.582 8
  23054871.174    23054875.461   -75946602.701 8  95254306.352 9
  21237745.503    21237749.738   -13393654.813 9 -11669039.539 7
 90  2 23  8 15 44.0800000  0  4G 3G12G19G13
  22278259.434    22278264.860   -63679696.879 8  70963245.729 8
  20924396.192    20924401.335   -42817976.305 8  42882090.323 8
  23050775.097    23050778.796   -75968129.380 8  95237532.310 8
  21240766.664    21240770.901   -13377777.373 8 -11656667.519 6
 90  2 23  8 15 59.0800000  0  4G 3G12G19G13
  22274817.555    22274821.627   -63697787.333 9  70949149.273 8
  20928419.902    20928425.054   -42796832.718 8  42898565.835 8
  23046702.434    23046708.386   -75989530.001 9  95220856.495 9
  21243792.956    21243799.519   -13361872.037 8 -11644273.763 7
 90  2 23  8 16 14.0800000  0  4G 3G12G19G13
  22271383.949    22271387.634   -63715834.500 9  70935086.566 7
  20932471.721    20932476.820   -42775540.796 9  42915156.928 8
  23042653.795    23042658.935   -76010804.471 8  95204278.998 8
  21246825.479    21246829.687   -13345939.099 8 -11631858.496 8
 90  2 23  8 16 29.0800000  0  4G 3G12G19G13
  22267957.500    22267960.940   -63733838.342 9  70921057.608 7
  20936551.428    20936558.480   -42754100.751 8  42931863.449 8
  23038629.942    23038634.852   -76031952.627 8  95187799.908 8
  21249862.184    21249868.007   -13329978.679 8 -11619421.806 7
 90  2 23  8 16 44.0800000  0  4G 3G12G19G13
  22264538.775    22264544.177   -63751799.039 9  70907062.271 8
  20940660.919    20940665.557   -42732512.866 8  42948685.184 8
  23034628.556    23034634.343   -76052974.358 9  95171419.351 8
  21252905.336    21252909.745   -13313990.879 8 -11606963.786 7
 90  2 23  8 16 59.0800000  0  4G 3G12G19G13
  22261129.124    22261135.266   -63769716.699 8  70893100.470 8
  20944796.330    20944801.233   -42710777.378 9  42965621.922 8
  23030652.825    23030658.640   -76073869.497 8  95155137.435 8
  21255952.474    21255958.582   -13297976.011 9 -11594484.677 8
 90  2 23  8 17 14.0800000  0  4G 3G12G19G13
  22257729.030    22257734.071   -63787591.439 8  70879172.108 7
  20948961.284    20948965.064   -42688894.491 8  42982673.508 9
  23026701.740    23026705.829   -76094637.964 9  95138954.206 9
  21259005.226    21259009.950   -13281934.024 8 -11581984.425 7
 90  2 23  8 17 29.0800000  0  4G 3G12G19G13
  22254334.489    22254339.060   -63805423.345 8  70865277.132 8
  20953151.890    20953156.985   -42666864.280 9  42999839.895 8
  23022772.760    23022778.704   -76115279.537 9  95122869.865 8
  21262062.639    21262067.661   -13265864.982 9 -11569463.098 8
 90  2 23  8 17 44.0800000  0  4G 3G12G19G13
  22250949.307    22250953.504   -63823212.299 9  70851415.613 8
  20957372.949    20957378.244   -42644686.849 8  43017120.993 7
  23018869.938    23018874.352   -76135793.917 8  95106884.634 8
  21265126.376    21265131.334   -13249768.892 9 -11556920.699 8
 90  2 23  8 17 59.0800000  0  4G 3G12G19G13
  22247573.139    22247576.906   -63840958.373 8  70837587.517 7
  20961620.067    20961625.744   -42622362.326 8  43034516.720 9
  23014989.544    23014994.908   -76156180.955 8  95090998.617 8
  21268193.637    21268199.199   -13233645.889 9 -11544357.324 8
 90  2 23  8 18 14.0800000  0  4G 3G12G19G13
  22244204.181    22244208.252   -63858661.869 8  70823792.586 8
  20965897.682    20965901.910   -42599891.233 9  43052026.665 8
  23011135.318    23011139.168   -76176440.745 8  95075211.782 8
  21271267.390    21271271.887   -13217496.337 8 -11531773.269 7
 90  2 23  8 18 29.0800000  0  4G 3G12G19G13
  22240841.694    22240848.153   -63876322.959 8  70810030.703 7
  20970201.126    20970206.659   -42577273.792 8  43069650.628 8
  23007304.931    23007308.816   -76196573.238 8  95059524.116 8
  21274344.230    21274349.831   -13201320.499 9 -11519168.729 8
 90  2 23  8 18 44.0800000  0  4G 3G12G19G13
  22237490.396    22237494.679   -63893941.641 8  70796301.878 7
  20974531.463    20974538.396   -42554510.219 9  43087388.474 8
  23003497.226    23003501.140   -76216577.879 9  95043936.079 8
  21277428.663    21277432.967   -13185118.356 8 -11506543.686 8
 90  2 23  8 18 59.0800000  0  4G 3G12G19G13
  22234146.106    22234151.120   -63911518.114 8  70782605.929 7
  20978892.206    20978898.013   -42531600.675 9  43105240.059 8
  22999713.855    22999719.443   -76236454.792 8  95028447.582 8
  21280517.400    21280521.778   -13168890.130 8 -11493898.317 8
 90  2 23  8 19 14.0800000  0  4G 3G12G19G13
  22230809.743    22230814.029   -63929052.378 9  70768942.882 8
  20983279.079    20983284.834   -42508545.352 9  43123205.230 8
  22995956.065    22995961.788   -76256203.625 9  95013058.901 8
  21283610.920    21283614.187   -13152636.053 9 -11481232.822 8
 90  2 23  8 19 29.0800000  0  4G 3G12G19G13
  22227479.596    22227484.551   -63946544.569 8  70755312.614 8
  20987693.968    20987699.691   -42485344.460 8  43141283.838 8
  22992222.766    22992226.537   -76275824.438 9  94997769.950 8
  21286707.659    21286712.663   -13136355.971 9 -11468547.053 8
 90  2 23  8 19 44.0800000  0  4G 3G12G19G13
  22224158.921    22224164.189   -63963994.521 8  70741715.248 8
  20992137.423    20992143.026   -42461998.122 8  43159475.782 9
  22988513.961    22988517.515   -76295316.907 9  94982581.021 9
  21289810.080    21289815.603   -13120049.895 8 -11455841.017 8
 90  2 23  8 19 59.0800000  0  4G 3G12G19G13
  22220847.457    22220851.411   -63981402.515 9  70728150.586 8
  20996606.861    20996613.282   -42438506.643 9  43177780.818 8
  22984829.057    22984832.162   -76314681.060 8  94967492.060 9
  21292918.931    21292924.340   -13103718.249 9 -11443115.074 7
 90  2 23  8 20 14.0800000  0  4G 3G12G19G13
  22217542.663    22217548.204   -63998768.852 9  70714618.374 8
  21001105.627    21001111.326   -42414870.292 8  43196198.745 8
  22981168.220    22981172.147   -76333917.018 8  94952502.999 7
  21296031.095    21296035.394   -13087361.222 8 -11430369.342 7
 90  2 23  8 20 29.0800000  0  4G 3G12G19G13
  22214246.227    22214250.898   -64016093.242 9  70701118.863 8
  21005629.567    21005637.823   -42391089.133 9  43214729.514 7
  22977531.560    22977535.585   -76353024.289 9  94937614.221 9
  21299149.641    21299153.150   -13070978.778 9 -11417603.818 8
 90  2 23  8 20 44.0800000  0  4G 3G12G19G13
  22210956.511    22210961.897   -64033376.101 9  70687651.706 7
  21010183.597    21010189.599   -42367163.458 8  43233372.876 7
  22973920.985    22973925.255   -76372002.452 8  94922826.034 8
  21302272.249    21302276.230   -13054570.772 9 -11404818.366 8
 90  2 23  8 20 59.0800000  0  4G 3G12G19G13
  22207674.640    22207679.915   -64050617.367 8  70674216.961 8
  21014763.604    21014768.426   -42343093.505 8  43252128.685 8
  22970332.898    22970338.011   -76390851.650 9  94908138.350 9
  21305398.755    21305404.100   -13038137.584 9 -11392013.286 7
 90  2 23  8 21 14.0800000  0  4G 3G12G19G13
  22204403.731    22204405.941   -64067817.065 9  70660814.612 7
  21019371.199    21019376.938   -42318879.544 9  43270996.706 8
  22966771.309    22966775.859   -76409571.884 8  94893551.163 9
  21308530.812    21308535.508   -13021679.414 9 -11379188.738 8
 90  2 23  8 21 29.0800000  0  4G 3G12G19G13
  22201137.459    22201142.029   -64084975.536 8  70647444.386 8
  21024006.512    21024012.490   -42294521.779 9  43289976.765 8
  22963232.328    22963238.118   -76428162.835 8  94879064.719 8
  21311667.604    21311671.592   -13005196.447 9 -11366344.878 8
 90  2 23  8 21 44.0800000  0  4G 3G12G19G13
  22197879.971    22197884.710   -64102092.625 8  70634106.399 8
  21028669.480    21028674.738   -42270020.442 8  43309068.715 7
  22959719.334    22959724.890   -76446624.438 9  94864679.050 9
  21314807.703    21314813.809   -12988688.855 9 -11353481.824 7
 90  2 23  8 21 59.0800000  0  4G 3G12G19G13
  22194630.467    22194635.036   -64119168.644 8  70620800.412 8
  21033358.558    21033363.985   -42245375.819 9  43328272.302 8
  22956231.800    22956236.750   -76464956.708 9  94850394.163 8
  21317954.585    21317959.793   -12972156.475 9 -11340599.456 9
 90  2 23  8 22 14.0800000  0  4G 3G12G19G13
  22191389.549    22191393.562   -64136203.629 9  70607526.419 8
  21038076.066    21038080.774   -42220588.101 9  43347587.392 7
  22952768.121    22952773.151   -76483159.217 9  94836210.396 8
  21321105.440    21321110.309   -12955599.586 9 -11327697.994 7
 90  2 23  8 22 29.0800000  0  4G 3G12G19G13
  22188156.127    22188160.358   -64153197.691 9  70594284.298 8
  21042820.514    21042825.452   -42195657.643 8  43367013.721 8
  22949328.752    22949332.896   -76501232.082 9  94822127.653 8
  21324259.722    21324264.483   -12939018.333 9 -11314777.540 8
 90  2 23  8 22 44.0800000  0  4G 3G12G19G13
  22184929.891    22184934.490   -64170150.759 9  70581074.116 7
  21047591.609    21047596.943   -42170584.755 8  43386551.024 8
  22945915.031    22945918.588   -76519175.184 9  94808146.021 8
  21327419.682    21327425.956   -12922412.805 9 -11301838.173 8
 90  2 23  8 22 59.0800000  0  4G 3G12G19G13
  22181711.183    22181715.483   -64187063.171 9  70567895.628 7
  21052388.985    21052395.737   -42145369.626 9  43406199.171 8
  22942524.770    22942528.206   -76536988.481 9  94794265.522 8
  21330584.042    21330590.431   -12905783.201 9 -11288880.047 8
 90  2 23  8 23 14.0800000  0  4G 3G12G19G13
  22178501.116    22178504.985   -64203935.038 9  70554748.711 8
  21057215.011    21057220.798   -42120012.482 9  43425957.964 8
  22939160.492    22939164.912   -76554671.590 8  94780486.475 9
  21333754.002    21333758.724   -12889129.508 8 -11275903.145 8
 90  2 23  8 23 29.0800000  0  4G 3G12G19G13
  22175297.603    22175301.699   -64220766.287 9  70541633.458 8
  21062067.131    21062072.318   -42094513.601 9  43445827.227 8
  22935820.138    22935823.760   -76572224.767 9  94766808.679 8
  21336927.445    21336932.557   -12872452.132 9 -11262907.796 8
 90  2 23  8 23 44.0800000  0  4G 3G12G19G13
  22172102.618    22172107.029   -64237556.946 8  70528549.831 7
  21066945.958    21066951.931   -42068873.253 8  43465806.709 9
  22932504.338    22932509.033   -76589647.694 8  94753232.350 9
  21340105.676    21340111.263   -12855751.038 8 -11249893.965 8
 90  2 23  8 23 59.0800000  0  4G 3G12G19G13
  22168914.269    22168919.040   -64254307.385 9  70515497.553 8
  21071852.128    21071858.548   -42043091.618 9  43485896.284 8
  22929214.369    22929217.153   -76606940.102 9  94739757.754 8
  21343288.299    21343292.530   -12839026.286 9 -11236861.690 8
 90  2 23  8 24 14.0800000  0  4G 3G12G19G13
  22165734.537    22165739.666   -64271017.578 8  70502476.630 8
  21076785.130    21076791.476   -42017168.927 8  43506095.784 8
  22925947.720    22925950.585   -76624102.024 8  94726384.823 8
  21346476.460    21346481.086   -12822278.065 9 -11223811.132 7
 90  2 23  8 24 29.0800000  0  4G 3G12G19G13
  22162563.364    22162566.503   -64287687.753 9  70489486.910 8
  21081745.110    21081750.968   -41991105.485 7  43526404.948 7
  22922705.983    22922710.787   -76641133.327 8  94713113.674 8
  21349666.633    21349671.463   -12805506.607 9 -11210742.476 8
 90  2 23  8 24 44.0800000  0  4G 3G12G19G13
  22159397.742    22159402.026   -64304317.937 9  70476528.325 8
  21086731.997    21086737.292   -41964901.558 8  43546823.588 7
  22919489.408    22919494.763   -76658033.995 9  94699944.311 9
  21352862.374    21352866.594   -12788712.052 8 -11197655.803 8
 90  2 23  8 24 59.0800000  0  4G 3G12G19G13
  22156242.792    22156245.273   -64320908.063 8  70463600.962 7
  21091744.917    21091749.375   -41938557.325 8  43567351.558 7
  22916298.980    22916304.203   -76674803.801 9  94686876.931 8
  21356063.930    21356068.203   -12771894.260 9 -11184551.045 8
 90  2 23  8 25 14.0800000  0  4G 3G12G19G13
  22153092.224    22153096.022   -64337458.234 8  70450704.740 9
  21096784.996    21096788.910   -41912073.125 9  43587988.576 8
  22913132.805    22913137.128   -76691442.544 8  94673911.683 8
  21359267.157    21359272.807   -12755053.450 9 -11171428.333 8
 90  2 23  8 25 29.0800000  0  4G 3G12G19G13
  22149950.783    22149953.792   -64353968.825 8  70437839.339 7
  21101850.962    21101856.624   -41885449.047 9  43608734.587 7
  22909990.808    22909996.144   -76707950.358 9  94661048.455 8
  21362476.983    21362481.279   -12738189.891 9 -11158287.912 9
 90  2 23  8 25 44.0800000  0  4G 3G12G19G13
  22146815.982    22146818.964   -64370439.743 9  70425004.855 8
  21106944.137    21106948.957   -41858685.486 8  43629589.302 8
  22906875.095    22906878.844   -76724326.964 9  94648287.473 8
  21365689.838    21365695.001   -12721303.669 8 -11145129.816 8
 90  2 23  8 25 59.0800000  0  4G 3G12G19G13
  22143689.394    22143692.347   -64386870.919 9  70412201.347 7
  21112063.654    21112069.136   -41831782.539 9  43650552.638 7
  22903784.381    22903788.471   -76740572.041 8  94635628.959 8
  21368908.110    21368912.846   -12704394.528 9 -11131953.871 7
 90  2 23  8 26 14.0800000  0  4G 3G12G19G13
  22140570.017    22140573.944   -64403262.539 9  70399428.661 8
  21117208.871    21117215.516   -41804740.532 9  43671624.322 7
  22900716.801    22900722.346   -76756685.778 8  94623072.823 8
  21372129.224    21372134.781   -12687462.962 9 -11118760.440 8
 90  2 23  8 26 29.0800000  0  4G 3G12G19G13
  22137459.056    22137462.638   -64419614.732 9  70386686.703 9
  21122380.518    21122386.556   -41777559.738 8  43692804.154 9
  22897675.197    22897680.997   -76772667.943 9  94610619.186 8
  21375356.274    21375361.856   -12670508.936 9 -11105549.517 7
 90  2 23  8 26 44.0800000  0  4G 3G12G19G13
  22134353.619    22134358.804   -64435927.635 8  70373975.359 9
  21127579.753    21127586.162   -41750240.502 8  43714091.872 7
  22894660.307    22894664.371   -76788518.494 8  94598268.105 8
  21378586.975    21378592.050   -12653532.503 9 -11092321.141 8
 90  2 23  8 26 59.0800000  0  4G 3G12G19G13
  22131257.054    22131261.106   -64452201.413 9  70361294.508 7
  21132804.291    21132809.658   -41722783.118 8  43735487.214 7
  22891667.745    22891673.404   -76804237.497 8  94586019.535 8
  21381821.281    21381825.224   -12636533.977 9 -11079075.535 8
 90  2 23  8 27 14.0800000  0  4G 3G12G19G13
  22128166.579    22128172.310   -64468436.095 8  70348644.122 8
  21138056.168    21138061.074   -41695187.660 7  43756990.164 8
  22888700.890    22888706.930   -76819824.568 8  94573873.769 8
  21385060.510    21385064.443   -12619513.197 8 -11065812.602 8
 90  2 23  8 27 29.0800000  0  4G 3G12G19G13
  22125084.409    22125090.009   -64484631.698 8  70336024.168 8
  21143333.417    21143340.031   -41667454.531 8  43778600.390 7
  22885761.015    22885766.468   -76835279.777 8  94561830.750 8
  21388303.750    21388308.366   -12602470.397 9 -11052532.501 8
 90  2 23  8 27 44.0800000  0  4G 3G12G19G13
  22122009.766    22122014.951   -64500788.450 8  70323434.509 9
  21148637.275    21148643.091   -41639584.150 8  43800317.557 7
  22882845.222    22882850.938   -76850603.195 8  94549890.423 9
  21391551.303    21391555.176   -12585405.842 8 -11039235.445 9
 90  2 23  8 27 59.0800000  0  4G 3G12G19G13
  22118943.304    22118948.991   -64516906.305 8  70310875.146 8
  21153968.336    21153973.123   -41611576.755 8  43822141.483 9
  22879955.618    22879959.767   -76865794.184 8  94538053.289 8
  21394802.916    21394806.617   -12568319.444 9 -11025921.368 8
 90  2 23  8 28 14.0800000  0  4G 3G12G19G13
  22115883.568    22115889.310   -64532985.694 9  70298345.764 8
  21159322.273    21159327.193   -41583432.550 9  43844072.023 7
  22877089.901    22877093.989   -76880853.017 7  94526319.135 8
  21398057.616    21398062.560   -12551211.460 9 -11012590.476 7
 90  2 23  8 28 29.0800000  0  4G 3G12G19G13
  22112830.330    22112836.605   -64549026.350 8  70285846.560 9
  21164703.712    21164710.645   -41555151.852 8  43866108.921 7
  22874249.261    22874253.322   -76895779.493 9  94514688.124 8
  21401316.964    21401322.063   -12534081.909 9 -10999242.781 8
 90  2 23  8 28 44.0800000  0  4G 3G12G19G13
  22109786.078    22109791.237   -64565028.497 8  70273377.372 8
  21170112.924    21170117.396   -41526734.850 9  43888252.032 8
  22871433.529    22871438.281   -76910573.602 8  94503160.237 8
  21404581.384    21404585.962   -12516930.892 9 -10985878.357 8
 90  2 23  8 28 59.0800000  0  4G 3G12G19G13
  22106747.091    22106752.891   -64580992.098 7  70260938.197 8
  21175547.369    21175550.672   -41498181.922 9  43910501.054 9
  22868642.898    22868647.974   -76925235.397 9  94491735.464 8
  21407848.782    21407852.732   -12499758.752 9 -10972497.462 8
 90  2 23  8 29 14.0800000  0  4G 3G12G19G13
  22103716.834    22103723.048   -64596917.496 8  70248528.800 7
  21181005.990    21181008.790   -41469493.279 8  43932855.840 8
  22865879.707    22865883.064   -76939764.881 8  94480413.790 9
  21411120.734    21411125.718   -12482565.413 9 -10959100.072 8
 90  2 23  8 29 29.0800000  0  4G 3G12G19G13
  22100694.703    22100700.519   -64612804.605 8  70236149.245 9
  21186490.690    21186495.313   -41440669.153 8  43955316.200 8
  22863139.735    22863143.633   -76954161.568 9  94469195.592 7
  21414397.135    21414401.180   -12465350.957 9 -10945686.191 8
 90  2 23  8 29 44.0800000  0  4G 3G12G19G13
  22097679.385    22097683.899   -64628653.721 9  70223799.306 8
  21192000.741    21192006.399   -41411709.902 8  43977881.817 8
  22860425.093    22860429.368   -76968425.622 8  94458080.752 8
  21417676.377    21417680.626   -12448115.584 9 -10932256.043 8
 90  2 23  8 29 59.0800000  0  4G 3G12G19G13
  22094669.560    22094674.888   -64644464.797 8  70211478.999 8
  21197537.161    21197542.738   -41382615.726 8  44000552.608 8
  22857735.159    22857739.595   -76982556.875 8  94447069.381 8
  21420959.269    21420965.546   -12430859.391 8 -10918809.645 8
 90  2 23  8 30 14.0800000  0  4G 3G12G19G13
  22091667.234    22091672.862   -64660237.740 8  70199188.390 8
  21203099.553    21203104.385   -41353386.933 8  44023328.271 7
  22855071.860    22855076.503   -76996555.215 8  94436161.573 8
  21424247.162    21424251.622   -12413582.498 8 -10905347.140 8
 90  2 23  8 30 29.0800000  0  4G 3G12G19G13
  22088673.834    22088678.964   -64675972.891 7  70186927.240 9
  21208686.564    21208691.451   -41324023.940 8  44046208.517 8
  22852433.581    22852437.623   -77010420.607 8  94425357.365 9
  21427539.360    21427544.019   -12396284.911 9 -10891868.487 8
 90  2 23  8 30 44.0800000  0  4G 3G12G19G13
  22085687.453    22085691.862   -64691670.350 8  70174695.463 8
  21214299.465    21214304.695   -41294526.888 9  44069193.218 7
  22849819.702    22849824.481   -77024152.846 8  94414656.928 8
  21430834.689    21430838.799   -12378966.647 8 -10878373.744 8
 90  2 23  8 30 59.0800000  0  4G 3G12G19G13
  22082706.730    22082712.118   -64707330.083 8  70162493.090 8
  21219938.283    21219944.259   -41264896.139 7  44092282.093 8
  22847231.265    22847236.182   -77037751.983 8  94404060.174 8
  21434134.291    21434139.503   -12361627.834 9 -10864862.980 8
 90  2 23  8 31 14.0800000  0  4G 3G12G19G13
  22079734.800    22079739.323   -64722952.313 8  70150319.933 9
  21225603.126    21225608.116   -41235131.998 8  44115474.925 8
  22844669.833    22844674.225   -77051217.895 8  94393567.268 7
  21437437.604    21437442.273   -12344268.745 8 -10851336.416 8
 90  2 23  8 31 29.0800000  0  4G 3G12G19G13
  22076767.415    22076772.228   -64738536.966 9  70138176.055 8
  21231292.346    21231297.025   -41205234.680 8  44138771.527 7
  22842130.575    22842138.460   -77064550.546 8  94383178.184 8
  21440744.086    21440749.913   -12326889.601 9 -10837794.233 8
 90  2 23  8 31 44.0800000  0  4G 3G12G19G13
  22073810.762    22073815.044   -64754084.205 8  70126061.335 8
  21237007.241    21237011.216   -41175204.508 8  44162171.657 8
  22839620.729    22839625.824   -77077749.790 7  94372893.062 8
  21444055.912    21444061.746   -12309490.181 9 -10824236.248 8
 90  2 23  8 31 59.0800000  0  4G 3G12G19G13
  22070859.204    22070863.948   -64769594.203 8  70113975.629 8
  21242746.601    21242751.791   -41145041.892 8  44185674.975 8
  22837133.881    22837139.332   -77090815.600 7  94362711.916 8
  21447370.044    21447375.485   -12292070.751 9 -10810662.651 8
 90  2 23  8 32 14.0800000  0  4G 3G12G19G13
  22067914.630    22067919.601   -64785066.983 8  70101918.939 9
  21248510.815    21248515.690   -41114747.054 8  44209281.328 8
  22834672.213    22834678.208   -77103748.022 8  94352634.708 7
  21450688.305    21450694.502   -12274631.312 9 -10797073.488 8
 90  2 23  8 32 29.0800000  0  4G 3G12G19G13
  22064976.811    22064981.549   -64800502.650 9  70089891.137 8
  21254301.350    21254305.869   -41084320.330 8  44232990.467 8
  22832237.723    22832242.682   -77116546.879 8  94342661.564 8
  21454011.079    21454016.537   -12257172.039 9 -10783468.857 8
 90  2 23  8 32 44.0800000  0  4G 3G12G19G13
  22062046.832    22062051.945   -64815901.352 9  70077892.166 7
  21260116.103    21260122.152   -41053761.906 8  44256802.214 8
  22829828.615    22829832.624   -77129212.171 8  94332792.514 8
  21457337.541    21457341.057   -12239693.131 8 -10769848.921 8
 90  2 23  8 32 59.0800000  0  4G 3G12G19G13
  22059124.177    22059128.734   -64831263.148 8  70065921.938 9
  21265956.333    21265960.112   -41023071.929 8  44280716.468 8
  22827444.252    22827448.990   -77141743.602 7  94323027.777 8
  21460667.932    21460671.863   -12222194.639 9 -10756213.729 8
 90  2 23  8 33 14.0800000  0  4G 3G12G19G13
  22056207.450    22056212.620   -64846587.936 8  70053980.558 8
  21271821.465    21271826.285   -40992250.938 8  44304732.823 7
  22825084.059    22825088.849   -77154141.249 7  94313367.278 9
  21464001.439    21464006.191   -12204676.505 8 -10742563.241 8
 90  2 23  8 33 29.0800000  0  4G 3G12G19G13
  22053297.160    22053302.776   -64861876.088 8  70042067.714 8
  21277710.804    21277717.343   -40961299.312 8  44328850.948 8
  22822750.910    22822754.627   -77166405.052 9  94303811.056 8
  21467338.101    21467342.537   -12187138.901 9 -10728897.570 8
 90  2 23  8 33 44.0800000  0  4G 3G12G19G13
  22050395.741    22050400.884   -64877127.559 8  70030183.470 9
  21283626.896    21283632.070   -40930217.332 8  44353070.671 8
  22820442.503    22820447.888   -77178535.122 7  94294359.048 8
  21470679.939    21470685.174   -12169581.978 9 -10715216.844 8
 90  2 23  8 33 59.0800000  0  4G 3G12G19G13
  22047500.622    22047504.503   -64892342.426 8  70018327.733 8
  21289565.025    21289570.895   -40899005.101 8  44377391.877 8
  22818160.082    22818164.462   -77190531.207 8  94285011.452 8
  21474024.741    21474029.295   -12152005.556 8 -10701520.931 6
 90  2 23  8 34 14.0800000  0  4G 3G12G19G13
  22044611.567    22044616.792   -64907520.620 9  70006500.577 8
  21295528.879    21295535.266   -40867662.789 8  44401814.438 8
  22815902.820    22815906.319   -77202392.818 8  94275768.641 9
  21477372.774    21477377.748   -12134409.804 9 -10687809.947 8
 90  2 23  8 34 29.0800000  0  4G 3G12G19G13
  22041730.065    22041735.822   -64922662.410 9  69994701.800 9
  21301518.036    21301524.843   -40836190.918 8  44426337.966 8
  22813671.543    22813674.994   -77214120.274 9  94266630.373 8
  21480723.659    21480729.170   -12116795.131 8 -10674084.237 8
 90  2 23  8 34 44.0800000  0  4G 3G12G19G13
  22038855.951    22038861.121   -64937768.197 7  69982931.046 9
  21307532.065    21307536.476   -40804590.015 9  44450962.022 8
  22811463.831    22811469.062   -77225713.607 9  94257596.598 8
  21484079.414    21484083.919   -12099161.931 9 -10660344.073 7
 90  2 23  8 34 59.0800000  0  4G 3G12G19G13
  22035988.128    22035993.327   -64952837.818 8  69971188.500 8
  21313570.743    21313576.312   -40772860.262 8  44475686.500 7
  22809283.756    22809289.257   -77237172.895 8  94248667.277 8
  21487438.583    21487443.525   -12081509.790 9 -10646589.142 8
 90  2 23  8 35 14.0800000  0  4G 3G12G19G13
  22033127.752    22033132.407   -64967871.370 8  69959474.056 9
  21319632.855    21319637.378   -40741001.974 8  44500511.119 8
  22807127.882    22807134.659   -77248497.954 8  94239842.574 9
  21490802.490    21490808.189   -12063838.811 8 -10632819.555 8
 90  2 23  8 35 29.0800000  0  4G 3G12G19G13
  22030273.754    22030278.280   -64982868.833 8  69947787.728 8
  21325719.497    21325724.622   -40709015.502 9  44525435.641 8
  22804999.552    22805004.496   -77259689.022 7  94231122.252 8
  21494167.775    21494172.041   -12046148.940 9 -10619035.225 7
 90  2 23  8 35 44.0800000  0  4G 3G12G19G13
  22027426.794    22027430.852   -64997830.515 7  69936129.286 8
  21331830.702    21331834.985   -40676901.087 8  44550459.849 8
  22802894.523    22802900.458   -77270745.633 8  94222506.709 8
  21497538.297    21497542.266   -12028440.507 9 -10605236.464 8
 90  2 23  8 35 59.0800000  0  4G 3G12G19G13
  22024586.532    22024590.331   -65012756.384 8  69924498.742 8
  21337966.096    21337971.773   -40644659.021 8  44575583.519 8
  22800816.368    22800820.337   -77281667.724 9  94213996.002 8
  21500910.757    21500915.064   -12010713.814 9 -10591423.450 8
 90  2 23  8 36 14.0800000  0  4G 3G12G19G13
  22021753.429    22021758.227   -65027646.378 8  69912896.166 8
  21344126.238    21344130.951   -40612289.581 9  44600806.455 8
  22798764.286    22798769.302   -77292454.907 9  94205590.395 8
  21504287.726    21504292.549   -11992968.643 7 -10577596.044 7
 90  2 23  8 36 29.0800000  0  4G 3G12G19G13
  22018926.104    22018930.517   -65042500.716 8  69901321.369 8
  21350309.610    21350314.293   -40579793.096 7  44626128.397 7
  22796737.160    22796741.262   -77303107.716 8  94197289.514 8
  21507668.085    21507671.286   -11975204.928 9 -10563754.184 8
 90  2 23  8 36 44.0800000  0  4G 3G12G19G13
  22016106.993    22016111.248   -65057319.528 7  69889774.261 9
  21356516.966    21356521.855   -40547170.047 7  44651548.926 8
  22794735.912    22794739.032   -77313626.195 8  94189093.303 8
  21511052.000    21511056.796   -11957423.088 8 -10549898.205 7
 90  2 23  8 36 59.0800000  0  4G 3G12G19G13
  22013292.888    22013297.618   -65072102.638 8  69878254.954 9
  21362749.926    21362754.489   -40514420.286 8  44677068.202 8
  22792759.348    22792763.702   -77324009.762 8  94181002.204 8
  21514439.133    21514444.297   -11939622.936 8 -10536027.955 8
 90  2 23  8 37 14.0800000  0  4G 3G12G19G13
  22010487.545    22010490.986   -65086850.202 8  69866763.349 8
  21369005.556    21369011.409   -40481544.422 7  44702685.756 8
  22790807.927    22790812.564   -77334258.303 9  94173016.340 8
  21517829.607    21517834.537   -11921804.789 9 -10522143.688 8
 90  2 23  8 37 29.0800000  0  4G 3G12G19G13
  22007687.664    22007691.746   -65101562.665 9  69855299.100 8
  21375284.897    21375290.683   -40448542.759 8  44728401.327 8
  22788884.514    22788888.413   -77344372.182 7  94165135.401 8
  21521222.786    21521228.438   -11903968.622 9 -10508245.365 8
 90  2 23  8 37 44.0800000  0  4G 3G12G19G13
  22004894.108    22004897.947   -65116239.945 8  69843862.273 9
  21381589.571    21381596.431   -40415415.666 8  44754214.627 8
  22786985.722    22786988.944   -77354351.366 8  94157359.414 8
  21524620.565    21524625.867   -11886114.651 8 -10494333.175 7
 90  2 23  8 37 59.0800000  0  4G 3G12G19G13
  22002108.253    22002111.891   -65130882.202 8  69832452.726 8
  21387917.497    21387922.422   -40382163.519 8  44780125.386 8
  22785112.998    22785117.337   -77364195.975 8  94149688.295 8
  21528021.553    21528026.730   -11868242.981 9 -10480407.210 8
 90  2 23  8 38 14.0800000  0  4G 3G12G19G13
  21999328.202    21999332.645   -65145489.462 8  69821070.436 8
  21394268.860    21394275.045   -40348786.787 8  44806133.199 8
  22783264.801    22783269.524   -77373905.897 9  94142122.122 7
  21531426.172    21531430.749   -11850353.636 8 -10466467.452 8
 90  2 23  8 38 29.0800000  0  4G 3G12G19G13
  21996555.227    21996559.523   -65160061.850 8  69809715.332 8
  21400643.882    21400647.792   -40315285.721 9  44832237.917 9
  22781443.673    22781446.326   -77383480.884 8  94134661.086 8
  21534834.638    21534839.412   -11832446.747 9 -10452514.032 8
 90  2 23  8 38 44.0800000  0  4G 3G12G19G13
  21993788.373    21993793.325   -65174599.459 9  69798387.348 7
  21407042.629    21407047.614   -40281660.568 8  44858439.335 8
  22779645.774    22779649.222   -77392921.129 9  94127305.065 8
  21538245.537    21538249.971   -11814522.389 9 -10438547.008 7
 90  2 23  8 38 59.0800000  0  4G 3G12G19G13
  21991029.016    21991033.183   -65189102.500 9  69787086.270 8
  21413464.553    21413469.650   -40247911.654 9  44884737.172 9
  22777876.092    22777879.733   -77402226.427 8  94120054.171 8
  21541658.839    21541664.322   -11796580.623 8 -10424566.402 8
 90  2 23  8 39 14.0800000  0  4G 3G12G19G13
  21988275.957    21988280.495   -65203570.767 8  69775812.304 8
  21419910.756    21419915.061   -40214039.322 9  44911131.190 8
  22776131.239    22776134.366   -77411396.851 9  94112908.389 8
  21545075.617    21545080.613   -11778621.512 8 -10410572.289 8
 90  2 23  8 39 29.0800000  0  4G 3G12G19G13
  21985529.391    21985533.861   -65218004.394 8  69764565.326 8
  21426380.600    21426384.529   -40180043.848 8  44937621.148 8
  22774411.201    22774415.324   -77420432.353 9  94105867.725 8
  21548497.116    21548501.728   -11760645.164 8 -10396564.748 7
 90  2 23  8 39 44.0800000  0  4G 3G12G19G13
  21982789.297    21982793.168   -65232403.450 9  69753345.294 8
  21432872.515    21432876.638   -40145925.427 8  44964206.929 8
  22772717.514    22772722.393   -77429332.610 9  94098932.476 8
  21551920.758    21551926.390   -11742651.401 8 -10382543.636 7
 90  2 23  8 39 59.0800000  0  4G 3G12G19G13
  21980054.864    21980060.193   -65246768.217 8  69742151.979 8
  21439388.003    21439393.344   -40111684.592 9  44990888.092 9
  22771049.154    22771053.477   -77438097.971 8  94092102.320 8
  21555348.472    21555354.927   -11724640.619 9 -10368509.253 8
 90  2 23  8 40 14.0800000  0  4G 3G12G19G13
  21977328.363    21977332.334   -65261098.709 9  69730985.374 8
  21445927.287    21445932.427   -40077321.837 8  45017664.253 9
  22769407.270    22769411.780   -77446728.203 8  94085377.464 8
  21558780.311    21558784.450   -11706612.747 8 -10354461.574 8
 90  2 23  8 40 29.0800000  0  4G 3G12G19G13
  21974608.157    21974611.509   -65275395.048 8  69719845.370 8
  21452490.150    21452494.229   -40042837.283 9  45044535.312 8
  22767790.448    22767794.183   -77455223.275 8  94078757.925 9
  21562213.855    21562217.680   -11688568.060 8 -10340400.772 8
 90  2 23  8 40 44.0800000  0  4G 3G12G19G13
  21971894.046    21971899.433   -65289657.058 8  69708732.129 8
  21459074.371    21459080.092   -40008231.230 8  45071501.043 8
  22766200.058    22766203.996   -77463583.287 8  94072243.637 8
  21565649.983    21565653.531   -11670506.484 8 -10326326.817 7
 90  2 23  8 40 59.0800000  0  4G 3G12G19G13
  21969186.490    21969191.445   -65303885.203 9  69697645.269 7
  21465683.136    21465687.368   -39973504.182 8  45098561.062 8
  22764634.289    22764639.936   -77471808.300 8  94065834.526 8
  21569090.652    21569094.681   -11652428.114 9 -10312239.781 8
 90  2 23  8 41 14.0800000  0  4G 3G12G19G13
  21966484.798    21966489.384   -65318079.186 9  69686585.021 8
  21472314.486    21472319.749   -39938656.331 8  45125715.224 8
  22763094.725    22763099.820   -77479898.202 9  94059530.702 7
  21572534.593    21572538.260   -11634332.987 8 -10298139.675 9
 90  2 23  8 41 29.0800000  0  4G 3G12G19G13
  21963789.978    21963795.163   -65332239.471 9  69675551.038 8
  21478966.923    21478973.608   -39903688.208 8  45152963.089 8
  22761580.100    22761586.068   -77487853.002 9  94053332.170 8
  21575980.770    21575984.997   -11616221.371 8 -10284026.723 7
 90  2 23  8 41 44.0800000  0  4G 3G12G19G13
  21961103.197    21961106.510   -65346365.765 9  69664543.543 8
  21485644.616    21485650.163   -39868599.948 7  45180304.585 8
  22760093.963    22760096.642   -77495672.349 9  94047239.168 8
  21579429.330    21579434.647   -11598093.057 9 -10269900.777 8
 90  2 23  8 41 59.0800000  0  4G 3G12G19G13
  21958421.283    21958424.263   -65360458.585 9  69653562.137 8
  21492345.065    21492350.477   -39833392.061 8  45207739.284 9
  22758629.814    22758635.439   -77503356.593 8  94041251.428 8
  21582882.122    21582888.436   -11579948.310 9 -10255762.022 7
 90  2 23  8 42 14.0800000  0  4G 3G12G19G13
  21955745.665    21955750.576   -65374517.701 9  69642606.976 8
  21499067.041    21499073.579   -39798064.734 8  45235267.056 8
  22757193.508    22757199.076   -77510905.744 8  94035368.989 8
  21586337.906    21586343.348   -11561787.231 8 -10241610.526 8
 90  2 23  8 42 29.0800000  0  4G 3G12G19G13
  21953076.685    21953081.284   -65388543.070 7  69631678.126 8
  21505813.303    21505817.981   -39762618.176 8  45262887.749 8
  22755782.943    22755788.181   -77518319.506 8  94029592.044 8
  21589797.979    21589802.558   -11543609.770 9 -10227446.274 7
 90  2 23  8 42 44.0800000  0  4G 3G12G19G13
  21950412.999    21950419.156   -65402535.100 9  69620775.258 9
  21512579.626    21512586.463   -39727052.997 7  45290600.849 8
  22754397.798    22754403.406   -77525598.077 9  94023920.437 8
  21593259.737    21593263.614   -11525416.009 8 -10213269.314 7
 90  2 23  8 42 59.0800000  0  4G 3G12G19G13
  21947757.783    21947761.981   -65416493.673 9  69609898.464 9
  21519369.467    21519376.181   -39691369.521 8  45318406.154 9
  22753039.410    22753042.979   -77532741.299 8  94018354.287 8
  21596724.430    21596730.237   -11507206.112 9 -10199079.779 8
 90  2 23  8 43 14.0800000  0  4G 3G12G19G13
  21945108.523    21945112.751   -65430419.003 8  69599047.569 8
  21526183.712    21526188.858   -39655568.161 8  45346303.314 8
  22751703.850    22751709.572   -77539749.177 8  94012893.594 8
  21600192.802    21600197.023   -11488980.278 8 -10184877.833 8
 90  2 23  8 43 29.0800000  0  4G 3G12G19G13
  21942464.643    21942468.341   -65444311.181 9  69588222.497 9
  21533018.456    21533023.780   -39619649.240 8  45374292.077 8
  22750397.780    22750401.030   -77546621.977 9  94007538.175 9
  21603664.273    21603670.817   -11470738.466 9 -10170663.426 8
 90  2 23  8 43 44.0800000  0  4G 3G12G19G13
  21939826.942    21939831.772   -65458170.210 8  69577423.258 7
  21539877.167    21539882.791   -39583612.883 8  45402372.331 8
  22749115.858    22749119.505   -77553359.453 9  94002288.189 8
  21607138.938    21607144.353   -11452480.505 9 -10156436.451 7
 90  2 23  8 43 59.0800000  0  4G 3G12G19G13
  21937196.113    21937201.039   -65471996.069 8  69566649.874 8
  21546756.462    21546761.687   -39547459.500 9  45430543.797 8
  22747859.574    22747862.787   -77559961.677 9  93997143.592 9
  21610616.427    21610622.660   -11434206.606 8 -10142197.061 8
 90  2 23  8 44 14.0800000  0  4G 3G12G19G13
  21934571.521    21934576.518   -65485789.136 8  69555902.031 9
  21553657.291    21553663.149   -39511189.562 8  45458806.069 7
  22746629.286    22746632.395   -77566428.475 8  93992104.532 8
  21614097.179    21614100.969   -11415916.949 8 -10127945.372 7
